     2              OBSERVATION DATA    GPS                 RINEX VERSION / TYPE
teqc 1998Mar9 19980312 00:58:40UTC                          PGM / RUN BY / DATE
                                                            COMMENT
Original Marker Name: unknown                               COMMENT
Campaign Name: Cholame 1989                                 COMMENT
4-Character Station Name: REDH                              COMMENT
6-Character Antenna Code: TI4100                            COMMENT
Vertical Measurement Point: PAE                             COMMENT
Vertical Offset to Rinex Ref. Point: 0.0000                 COMMENT
Radial Measurement Point: PAE                               COMMENT
Radial Offset to Rinex Ref. Point: 0.0842                   COMMENT
Antenna Height from Field Measurement: 1.2865 m             COMMENT
Original XYZ: -2616514.1057 -4484811.9692 3693100.1907      COMMENT
New XYZ position is based on association with SCEC monument COMMENT
E1F1D7I9+0011. Position of that monument is believed to be  COMMENT
valid to within 1 m horizontally; vertical accuracy         COMMENT
should be no worse than 3-times this value.                 COMMENT
                                                            COMMENT
Revised Rinex header created by UCSD GPS archive for        COMMENT
GSAC on 14-Apr-1999 (1999:104) 18:56:36 GMT                 COMMENT
For assistance contact dagnew@ucsd.edu or hjohnson@ucsd.edu COMMENT
                                                            COMMENT
REDHILLS                                                    MARKER NAME
unknown UCLA                                                OBSERVER / AGENCY
UN03 TI 4100 1.9                                            REC # / TYPE / VERS
UN03 TI 4100                                                ANT # / TYPE
 -2616551.0000 -4484767.0000  3693080.0000                  APPROX POSITION XYZ
        1.2837        0.0000        0.0000                  ANTENNA: DELTA H/E/N
     1     1     0                                          WAVELENGTH FACT L1/2
     4    P1    P2    L1    L2                              # / TYPES OF OBSERV
     0                                                      INTERVAL
  1989    11    16    10    55   59.000000                  TIME OF FIRST OBS
  1989    11    16    16    44   59.000000                  TIME OF LAST OBS
     0                                                      # OF SATELLITES
                                                            END OF HEADER
 89 11 16 10 55 59.0800000  0  2G 6G 9
  20762950.085    20762949.957     3729147.213 9  -6259991.787 9
  22724500.712    22724501.358     2444969.764 9  -7151773.744 8
 89 11 16 10 56 29.0800000  0  2G 6G 9
  20756884.991    20756885.428     3697272.312 7  -6284829.364 5
  22708409.811    22708410.371     2360411.107 9  -7217663.591 8
 89 11 16 10 56 59.0800000  0  3G 6G11G 9
  20750878.094    20750878.385     3665704.695 8  -6309427.521 9
                  21497903.039     -231367.095 9
  22692333.972    22692335.357     2275934.125 9  -7283489.824 9
 89 11 16 10 57 29.0800000  0  3G 6G11G 9
  20744928.898    20744929.753     3634445.943 9  -6333785.002 9
  21484467.105    21484469.477     -301971.778 9    434633.769 9
  22676274.365    22676275.728     2191540.365 9  -7349251.185 8
 89 11 16 10 57 59.0800000  0  3G 6G11G 9
  20739039.744    20739039.636     3603498.254 9  -6357900.138 8
  21471120.413    21471123.421     -372105.279 6    379984.315 6
  22660231.605    22660231.581     2107231.500 9  -7414946.390 9
 89 11 16 10 58 29.0800000  0  3G 6G11G 9
  20733210.069    20733210.452     3572862.620 9  -6381772.078 8
  21457864.912    21457867.780     -441766.724 9    325702.674 9
  22644204.265    22644204.481     2023008.246 8  -7480574.897 8
 89 11 16 10 58 59.0800000  0  3G 6G11G 9
  20727440.472    20727440.594     3542541.596 9  -6405398.860 8
  21444700.126    21444701.461     -510953.845 9    271790.612 8
  22628192.433    22628193.774     1938873.236 9  -7546134.610 9
 89 11 16 10 59 29.0800000  0  3G 6G11G 9
  20721730.750    20721731.090     3512538.720 9  -6428777.691 8
  21431625.556    21431626.635     -579663.346 9    218250.726 9
  22612200.415    22612202.050     1854829.586 9  -7611623.135 8
 89 11 16 10 59 59.0800000  0  3G 6G11G 9
  20716082.118    20716082.145     3482854.196 9  -6451908.483 8
  21418641.221    21418642.844     -647895.018 9    165083.172 8
  22596224.539    22596226.111     1770877.375 9  -7677040.435 8
 89 11 16 11  0 29.0800000  0  3G 6G11G 9
  20710494.379    20710494.027     3453489.574 9  -6474789.970 8
  21405747.593    21405749.803     -715647.600 9    112288.985 9
  22580266.713    22580267.670     1687017.904 9  -7742385.422 8
 89 11 16 11  0 59.0800000  0  3G 6G11G 9
  20704967.615    20704967.521     3424447.322 9  -6497420.304 8
  21392945.814    21392947.939     -782918.735 9     59869.922 9
  22564326.390    22564327.402     1603253.637 8  -7807656.273 8
 89 11 16 11  1 29.0800000  0  3G 6G11G 9
  20699503.491    20699502.812     3395731.181 9  -6519796.500 8
  21380237.018    21380239.086     -849705.243 9      7828.527 8
  22548405.729    22548406.941     1519587.966 9  -7872850.280 8
 89 11 16 11  1 59.0800000  0  3G 6G11G 9
  20694101.096    20694100.755     3367342.564 9  -6541917.472 8
  21367620.288    21367622.583     -916005.986 8    -43834.306 9
  22532504.543    22532505.018     1436022.156 9  -7937966.469 8
 89 11 16 11  2 29.0800000  0  3G 6G11G 9
  20688761.730    20688761.445     3339282.330 9  -6563782.586 8
  21355096.580    21355099.117     -981820.518 9    -95118.280 9
  22516621.397    22516621.401     1352557.041 9  -8003004.212 8
 89 11 16 11  2 59.0800000  0  3G 6G11G 9
  20683484.198    20683484.784     3311552.417 9  -6585390.293 8
  21342665.725    21342667.720    -1047147.184 9   -146022.073 9
  22500758.019    22500757.973     1269194.356 9  -8067962.118 9
 89 11 16 11  3 29.0800000  0  3G 6G11G 9
  20678270.800    20678270.394     3284156.179 9  -6606738.022 9
  21330328.437    21330329.159    -1111982.936 9   -196543.370 9
  22484914.545    22484915.053     1185937.249 9  -8132837.772 9
 89 11 16 11  3 59.0800000  0  3G 6G11G 9
  20673121.786    20673120.919     3257095.492 9  -6627824.303 8
  21318082.500    21318085.382    -1176326.241 9   -246680.974 9
  22469091.147    22469091.830     1102787.883 9  -8197629.480 9
 89 11 16 11  4 29.0800000  0  3G 6G11G 9
  20668036.019    20668035.178     3230371.440 9  -6648648.238 8
  21305933.221    21305935.675    -1240176.623 9   -296434.481 9
  22453289.433    22453290.246     1019746.866 9  -8262336.748 8
 89 11 16 11  4 59.0800000  0  3G 6G11G 9
  20663014.725    20663016.452     3203985.625 9  -6669208.623 9
  21293876.581    21293878.748    -1303532.819 9   -345802.931 9
  22437508.168    22437509.215      936815.788 9  -8326958.341 9
 89 11 16 11  5 29.0800000  0  4G13G 6G11G 9
                  24579565.155    -3365261.890 9
  20658058.194    20658059.058     3177941.385 9  -6689502.828 8
  21281914.161    21281916.759    -1366391.840 9   -394783.960 9
  22421749.239    22421749.880      853998.194 9  -8391491.507 9
 89 11 16 11  5 59.0800000  0  4G13G 6G11G 9
  24557029.174    24557031.520    -3483810.385 9   4344252.445 9
  20653168.430    20653168.233     3152241.184 9  -6709528.948 8
  21270047.656    21270050.650    -1428751.894 9   -443376.168 9
  22406010.937    22406011.805      771296.132 9  -8455934.607 8
 89 11 16 11  6 29.0800000  0  4G13G 6G11G 9
  24534490.191    24534491.766    -3602250.522 9   4251961.437 8
  20648343.319    20648343.428     3126886.558 9  -6729285.811 8
  21258276.738    21258278.486    -1490611.664 9   -491578.593 9
  22390295.072    22390295.934      688711.330 9  -8520286.383 8
 89 11 16 11  6 59.0800000  0  4G13G 6G11G 9
  24511973.202    24511974.562    -3720581.990 9   4159755.089 8
  20643584.432    20643584.773     3101877.743 9  -6748773.190 8
  21246600.421    21246602.214    -1551971.444 9   -539391.449 8
  22374602.496    22374603.115      606243.981 9  -8584546.668 9
 89 11 16 11  7 29.0800000  0  4G13G 6G11G 9
  24489476.949    24489478.280    -3838800.373 9   4067636.855 7
  20638892.134    20638891.755     3077218.238 8  -6767988.408 8
  21235019.481    21235021.053    -1612828.604 9   -586812.618 9
  22358932.721    22358932.666      523897.307 9  -8648712.891 9
 89 11 16 11  7 59.0800000  0  4G13G 6G11G 9
  24467002.400    24467004.433    -3956903.725 9   3975608.272 7
  20634266.226    20634266.814     3052909.649 9  -6786930.217 9
  21223534.556    21223537.126    -1673181.413 9   -633840.779 9
  22343286.070    22343286.830      441673.332 9  -8712783.512 8
 89 11 16 11  8 29.0800000  0  4G13G 6G11G 9
  24444551.235    24444551.390    -4074888.070 9   3883672.437 7
  20629707.884    20629708.112     3028954.844 9  -6805596.310 9
  21212146.653    21212149.086    -1733027.829 9   -680474.329 9
  22327663.277    22327662.918      359574.756 9  -8776756.390 8
 89 11 16 11  8 59.0800000  0  4G13G 6G11G 9
  24422121.463    24422124.539    -4192752.262 9   3791830.210 7
  20625217.156    20625217.872     3005354.578 9  -6823986.140 9
  21200853.661    21200857.050    -1792367.769 9   -726713.231 9
  22312063.940    22312064.708      277602.408 9  -8840630.936 9
 89 11 16 11  9 29.0800000  0  4G13G 6G11G 9
  24399716.657    24399717.831    -4310493.201 8   3700084.022 6
  20620793.981    20620794.064     2982111.807 9  -6842097.378 8
  21189659.002    21189660.287    -1851198.769 9   -772555.560 8
  22296489.822    22296490.364      195759.015 9  -8904404.998 8
 89 11 16 11  9 59.0800000  0  4G13G 6G11G 9
  24377335.091    24377336.565    -4428108.234 8   3608435.956 7
  20616439.894    20616439.917     2959228.533 9  -6859928.455 8
  21178560.616    21178563.771    -1909519.610 9   -818000.358 9
  22280940.489    22280940.998      114046.735 9  -8968076.880 8
 89 11 16 11 10 29.0800000  0  4G13G 6G11G 9
  24354978.309    24354979.426    -4545594.553 8   3516888.207 7
  20612153.806    20612154.746     2936706.637 9  -6877477.970 8
  21167560.312    21167561.601    -1967328.629 9   -863046.334 8
  22265416.660    22265416.557       32467.765 9  -9031644.857 8
 89 11 16 11 10 59.0800000  0  4G13G 6G11G 9
  24332644.864    24332648.157    -4662950.307 8   3425442.177 6
  20607937.336    20607936.317     2914547.334 9  -6894744.921 8
  21156657.750    21156659.015    -2024625.600 9   -907693.299 9
  22249917.950    22249919.422      -48976.840 9  -9095108.155 9
 89 11 16 11 11 29.0800000  0  4G13G 6G11G 9
  24310339.882    24310341.155    -4780172.392 7   3334100.306 7
  20603789.250    20603789.758     2892753.312 8  -6911727.264 9
  21145852.150    21145853.604    -2081408.218 9   -951939.451 8
  22234446.050    22234445.660     -130284.040 9  -9158464.411 9
 89 11 16 11 11 59.0800000  0  4G13G 6G11G 9
  24288057.449    24288060.624    -4897258.389 7   3242864.479 8
  20599711.267    20599712.913     2871326.134 9  -6928423.763 8
  21135144.910    21135146.674    -2137675.688 9   -995784.180 8
  22218999.333    22219000.572     -211452.081 9  -9221712.227 9
 89 11 16 11 12 29.0800000  0  4G13G 6G11G 9
  24265805.323    24265806.111    -5014204.809 8   3151737.419 8
  20595704.787    20595705.007     2850268.450 9  -6944832.343 9
  21124535.161    21124536.217    -2193426.208 9  -1039226.099 8
  22203581.845    22203582.492     -292478.443 9  -9284849.630 8
 89 11 16 11 12 59.0800000  0  4G13G 6G11G 9
  24243577.481    24243580.185    -5131008.358 9   3060721.679 8
  20591768.902    20591768.781     2829583.090 8  -6960950.806 9
  21114024.364    21114026.373    -2248657.510 9  -1082263.441 8
  22188190.240    22188190.567     -373360.210 9  -9347874.347 8
 89 11 16 11 13 29.0800000  0  4G13G 6G11G 9
  24221377.284    24221379.761    -5247668.607 9   2969817.594 8
  20587902.983    20587902.732     2809269.822 9  -6976779.329 8
  21103612.909    21103615.811    -2303370.646 9  -1124897.015 9
  22172826.138    22172826.764     -454097.215 9  -9410786.277 9
 89 11 16 11 13 59.0800000  0  4G13G 6G11G 9
  24199205.907    24199207.267    -5364183.178 9   2879027.043 7
  20584108.683    20584109.721     2789330.566 9  -6992316.397 9
  21093300.181    21093301.987    -2357564.356 9  -1167125.843 9
  22157490.239    22157490.244     -534687.680 9  -9473584.035 8
 89 11 16 11 14 29.0800000  0  4G13G 6G11G 9
  24177062.589    24177065.307    -5480548.599 9   2788352.692 8
  20580385.884    20580386.543     2769768.263 8  -7007559.773 9
  21083087.028    21083089.676    -2411236.570 9  -1208948.321 8
  22142182.395    22142183.693     -615128.214 9  -9536264.961 9
 89 11 16 11 14 59.0800000  0  4G13G 6G11G 9
  24154948.204    24154949.390    -5596761.490 9   2697797.180 8
  20576736.013    20576735.187     2750585.060 9  -7022507.725 8
  21072973.619    21072974.721    -2464385.978 9  -1250363.421 9
  22126904.190    22126905.632     -695416.572 9  -9598827.308 9
 89 11 16 11 15 29.0800000  0  4G13G 6G11G 9
  24132862.766    24132864.813    -5712819.522 9   2607362.348 9
  20573157.806    20573158.480     2731783.095 9  -7037158.615 8
  21062959.448    21062960.516    -2517011.050 9  -1291369.963 9
  22111655.891    22111656.132     -775550.350 9  -9661269.189 9
 89 11 16 11 15 59.0800000  0  4G13G 6G11G 9
  24110806.540    24110809.183    -5828720.947 9   2517049.563 9
  20569653.326    20569653.697     2713363.421 9  -7051511.640 9
  21053045.060    21053046.682    -2569111.221 9  -1331967.487 9
  22096436.133    22096436.781     -855528.205 9  -9723589.583 8
 89 11 16 11 16 29.0800000  0  4G13G 6G11G 9
  24088781.986    24088784.503    -5944461.927 9   2426861.781 9
  20566221.092    20566221.465     2695329.165 9  -7065564.331 8
  21043230.799    21043231.214    -2620684.502 9  -1372154.448 8
  22081246.925    22081248.166     -935346.931 9  -9785785.974 9
 89 11 16 11 16 59.0800000  0  4G13G 6G11G 9
  24066788.684    24066790.190    -6060040.622 9   2336800.474 9
  20562862.553    20562863.095     2677681.915 9  -7079315.435 9
  21033517.362    21033518.340    -2671730.233 9  -1411930.327 9
  22066089.147    22066089.825    -1015004.442 9  -9847856.735 9
 89 11 16 11 17 29.0800000  0  4G13G 6G11G 9
  24044826.185    24044827.685    -6175454.726 9   2246867.414 9
  20559578.049    20559578.476     2660422.452 9  -7092764.399 9
  21023903.992    21023905.250    -2722248.349 9  -1451295.098 8
  22050961.704    22050961.323    -1094500.003 9  -9909801.324 8
 89 11 16 11 17 59.0800000  0  4G13G 6G11G 9
  24022894.979    24022896.839    -6290701.000 9   2157065.129 9
  20556367.765    20556369.781     2643553.664 8  -7105908.922 9
  21014391.560    21014392.585    -2772236.670 9  -1490247.023 8
  22035865.134    22035866.599    -1173829.981 9  -9971616.874 8
 89 11 16 11 18 29.0800000  0  4G13G 6G11G 9
  24000995.877    24000998.779    -6405776.823 9   2067395.658 9
  20553232.677    20553233.663     2627077.724 9  -7118747.347 8
  21004979.691    21004981.111    -2821694.393 9  -1528785.496 9
  22020801.626    22020801.564    -1252992.321 9 -10033301.817 9
 89 11 16 11 18 59.0800000  0  4G13G 6G11G 9
  23979130.546    23979132.381    -6520681.054 8   1977859.906 8
  20550172.912    20550173.212     2610995.256 9  -7131279.143 9
  20995669.058    20995671.224    -2870621.638 9  -1566910.611 9
  22005769.904    22005769.543    -1331985.855 9 -10094855.204 9
 89 11 16 11 19 29.0800000  0  4G13G 6G11G 9
  23957299.623    23957301.861    -6635410.445 8   1888460.390 9
  20547186.826    20547188.486     2595308.404 9  -7143502.672 9
  20986459.371    20986461.575    -2919017.024 9  -1604621.299 8
  21990769.766    21990770.569    -1410807.981 9 -10156275.041 8
 89 11 16 11 19 59.0800000  0  4G13G 6G11G 9
  23935500.583    23935502.169    -6749960.546 8   1799200.579 8
  20544277.866    20544279.311     2580021.217 9  -7155414.752 8
  20977352.488    20977352.875    -2966877.562 9  -1641915.219 9
  21975804.838    21975804.098    -1489454.541 9 -10217558.044 9
 89 11 16 11 20 29.0800000  0  4G13G 6G11G 9
  23913735.929    23913738.880    -6864330.643 8   1710081.045 7
  20541445.460    20541445.431     2565134.026 9  -7167015.159 9
  20968345.405    20968347.475    -3014203.696 8  -1678792.733 9
  21960871.278    21960871.868    -1567924.899 9 -10278703.748 8
 89 11 16 11 20 59.0800000  0  4G13G 6G11G 9
  23892007.210    23892009.487    -6978518.835 8   1621103.229 8
  20538688.564    20538688.906     2550647.334 9  -7178303.486 8
  20959442.319    20959443.246    -3060995.933 9  -1715254.207 9
  21945972.839    21945973.230    -1646217.878 9 -10339711.237 8
 89 11 16 11 21 29.0800000  0  4G13G 6G11G 9
  23870313.343    23870315.102    -7092521.760 8   1532269.801 7
  20536007.520    20536008.677     2536564.349 8  -7189277.244 8
  20950638.955    20950640.713    -3107252.080 9  -1751297.951 9
  21931109.795    21931109.289    -1724329.982 9 -10400577.764 8
 89 11 16 11 21 59.0800000  0  4G13G 6G11G 9
  23848654.846    23848655.980    -7206336.502 8   1443582.966 8
  20533405.508    20533406.323     2522887.310 9  -7199934.694 9
  20941938.633    20941941.269    -3152971.006 9  -1786923.100 8
  21916279.304    21916280.030    -1802258.463 9 -10461301.267 9
 89 11 16 11 22 29.0800000  0  4G13G 6G11G 9
  23827033.738    23827034.902    -7319960.437 9   1355044.842 8
  20530881.036    20530881.692     2509617.932 8  -7210274.463 9
  20933342.325    20933343.722    -3198151.827 9  -1822128.914 8
  21901485.552    21901486.320    -1880001.147 9 -10521879.943 9
 89 11 16 11 22 59.0800000  0  4G13G 6G11G 9
  23805448.797    23805449.368    -7433391.427 9   1266657.083 9
  20528433.031    20528434.305     2496757.921 9  -7220295.239 8
  20924846.913    20924848.781    -3242793.956 9  -1856914.996 8
  21886727.200    21886727.853    -1957556.174 9 -10582312.428 8
 89 11 16 11 23 29.0800000  0  4G13G 6G11G 9
  23783900.683    23783902.189    -7546626.426 9   1178422.018 9
  20526064.873    20526065.932     2484309.315 9  -7229995.440 9
  20916454.621    20916455.745    -3286896.356 9  -1891280.496 9
  21872004.958    21872005.119    -2034920.736 9 -10642596.481 9
 89 11 16 11 23 59.0800000  0  4G13G 6G11G 9
  23762390.178    23762392.137    -7659663.130 9   1090341.473 9
  20523774.914    20523774.713     2472273.663 9  -7239373.844 9
  20908165.139    20908166.566    -3330458.473 9  -1925224.988 8
  21857320.450    21857320.224    -2112092.842 9 -10702730.578 9
 89 11 16 11 24 29.0800000  0  4G13G 6G11G 9
  23740918.154    23740919.754    -7772500.094 9   1002416.581 8
  20521563.285    20521564.170     2460651.773 8  -7248429.873 9
  20899977.752    20899980.232    -3373480.459 9  -1958748.626 9
  21842671.628    21842672.125    -2189071.150 9 -10762713.666 9
 89 11 16 11 24 59.0800000  0  4G13G 6G11G 9
  23719484.307    23719486.632    -7885133.347 9    914650.395 9
  20519430.697    20519431.327     2449447.122 9  -7257160.755 9
  20891894.177    20891895.694    -3415960.068 9  -1991849.609 8
  21828060.390    21828060.557    -2265851.847 9 -10822542.771 8
 89 11 16 11 25 29.0800000  0  4G13G 6G11G 9
  23698090.503    23698091.842    -7997559.505 9    827045.601 9
  20517379.431    20517379.043     2438661.900 8  -7265564.838 9
  20883914.613    20883916.202    -3457896.286 9  -2024527.171 9
  21813487.529    21813487.711    -2342431.917 9 -10882215.556 9
 89 11 16 11 25 59.0800000  0  4G13G 6G11G 9
  23676736.537    23676738.645    -8109777.818 9    739602.782 9
  20515405.721    20515406.747     2428296.631 9  -7273641.694 8
  20876037.583    20876039.316    -3499289.673 8  -2056781.752 8
  21798953.459    21798953.191    -2418810.437 8 -10941731.278 8
 89 11 16 11 26 29.0800000  0  4G13G 6G11G 9
  23655421.665    23655423.354    -8221786.448 9    652323.356 9
  20513512.998    20513514.557     2418352.253 9  -7281390.563 9
  20868264.033    20868265.263    -3540140.288 9  -2088613.401 8
  21784457.082    21784457.205    -2494986.012 9 -11001088.877 9
 89 11 16 11 26 59.0800000  0  4G13G 6G11G 9
  23634147.503    23634149.354    -8333582.106 9    565209.890 9
  20511702.826    20511702.439     2408832.029 9  -7288808.913 8
  20860593.731    20860595.770    -3580446.075 9  -2120020.482 9
  21770001.505    21770002.217    -2570954.601 9 -11060285.168 8
 89 11 16 11 27 29.0800000  0  4G13G 6G11G 9
  23612914.420    23612915.676    -8445162.479 9    478264.170 8
  20509970.570    20509971.627     2399736.921 9  -7295896.021 9
  20853027.422    20853029.711    -3620207.105 9  -2151003.097 9
  21755584.405    21755584.295    -2646714.726 9 -11119319.009 9
 89 11 16 11 27 59.0800000  0  4G13G 6G11G 9
  23591721.689    23591724.602    -8556524.045 8    391488.948 8
  20508322.205    20508321.974     2391069.408 9  -7302649.943 8
  20845565.100    20845567.517    -3659422.183 9  -2181560.279 8
  21741208.053    21741208.680    -2722263.021 9 -11178187.787 8
 89 11 16 11 28 29.0800000  0  4G13G 6G11G 9
  23570573.646    23570575.368    -8667664.609 8    304885.943 9
  20506754.316    20506754.916     2382831.407 8  -7309069.134 8
  20838207.084    20838208.557    -3698090.594 9  -2211691.490 9
  21726872.774    21726872.521    -2797597.200 9 -11236889.736 8
 89 11 16 11 28 59.0800000  0  4G13G 6G11G 9
  23549466.810    23549468.794    -8778582.434 8    218456.446 9
  20505268.705    20505269.764     2375023.844 9  -7315152.954 8
  20830952.321    20830953.413    -3736212.695 9  -2241397.007 7
  21712578.284    21712578.045    -2872715.834 9 -11295423.746 9
 89 11 16 11 29 29.0800000  0  4G13G 6G11G 9
  23528403.383    23528404.980    -8889274.096 9    132203.198 9
  20503864.915    20503865.717     2367649.245 9  -7320899.383 8
  20823803.003    20823802.922    -3773787.187 9  -2270675.814 8
  21698325.062    21698325.115    -2947615.346 9 -11353786.999 9
 89 11 16 11 29 59.0800000  0  4G13G 6G11G 9
  23507382.585    23507384.459    -8999737.431 9     46127.867 9
  20502544.377    20502545.147     2360709.118 8  -7326307.248 8
  20816756.579    20816757.828    -3810813.777 9  -2299527.682 8
  21684114.567    21684114.461    -3022293.689 9 -11411977.917 8
 89 11 16 11 30 29.0800000  0  4G13G 6G11G 9
  23486405.791    23486407.262    -9109971.591 9    -39768.871 8
  20501307.260    20501306.999     2354203.564 9  -7331376.512 9
  20809813.772    20809815.177    -3847293.655 9  -2327953.540 8
  21669945.532    21669946.322    -3096750.055 9 -11469995.855 9
 89 11 16 11 30 59.0800000  0  4G13G 6G11G 9
  23465473.115    23465473.951    -9219971.798 9   -125483.304 8
  20500152.563    20500152.475     2348136.388 9  -7336104.181 8
  20802975.965    20802978.515    -3883223.946 9  -2355951.147 8
  21655820.241    21655819.621    -3170979.804 9 -11527837.207 9
 89 11 16 11 31 29.0800000  0  4G13G 6G11G 9
  23444585.805    23444586.918    -9329736.384 9   -211014.151 8
  20499081.133    20499082.947     2342509.079 9  -7340489.103 7
  20796243.677    20796244.855    -3918604.478 9  -2383520.357 8
  21641737.956    21641738.218    -3244980.733 9 -11585500.250 9
 89 11 16 11 31 59.0800000  0  4G13G 6G11G 9
  23423743.991    23423745.055    -9439263.801 9   -296360.199 8
  20498094.583    20498094.925     2337322.137 9  -7344530.870 8
  20789615.854    20789617.259    -3953436.013 9  -2410661.769 7
  21627700.127    21627700.483    -3318751.522 9 -11642983.982 9
 89 11 16 11 32 29.0800000  0  4G13G 6G11G 9
  23402947.041    23402948.571    -9548551.410 9   -381519.381 9
  20497191.830    20497191.756     2332577.670 8  -7348227.862 8
  20783092.293    20783094.276    -3987717.957 8  -2437374.954 8
  21613705.947    21613706.335    -3392289.533 9 -11700286.295 9
 89 11 16 11 32 59.0800000  0  4G13G 6G11G 9
  23382195.863    23382198.408    -9657595.512 9   -466488.786 9
  20496372.784    20496373.442     2328277.699 9  -7351578.497 9
  20776673.225    20776675.344    -4021449.372 9  -2463659.139 9
  21599757.967    21599758.321    -3465591.766 9 -11757404.901 9
 89 11 16 11 33 29.0800000  0  4G13G 6G11G 9
  23361492.161    23361494.352    -9766393.572 9   -551266.512 9
  20495640.508    20495640.265     2324424.732 9  -7354580.788 9
  20770359.650    20770361.442    -4054629.171 9  -2489513.495 9
  21585854.160    21585853.993    -3538654.832 9 -11814337.120 8
 89 11 16 11 33 59.0800000  0  4G13G 6G11G 9
  23340836.019    23340838.041    -9874943.986 9   -635851.238 9
  20494992.343    20494991.570     2321019.554 9  -7357234.170 8
  20764149.895    20764152.659    -4087258.129 9  -2514938.634 8
  21571995.807    21571996.183    -3611477.173 9 -11871081.764 8
 89 11 16 11 34 29.0800000  0  4G13G 6G11G 9
  23320226.954    23320229.303    -9983245.112 9   -720241.725 9
  20494429.405    20494429.935     2318062.776 9  -7359538.156 8
  20758045.757    20758047.304    -4119336.449 9  -2539934.687 8
  21558184.502    21558184.520    -3684057.108 9 -11927637.522 9
 89 11 16 11 34 59.0800000  0  4G13G 6G11G 9
  23299666.152    23299668.536   -10091294.705 9   -804436.204 8
  20493951.834    20493952.863     2315556.278 9  -7361491.276 8
  20752047.005    20752048.793    -4150864.100 9  -2564501.657 8
  21544419.680    21544419.850    -3756392.219 9 -11984002.507 9
 89 11 16 11 35 29.0800000  0  4G13G 6G11G 9
  23279154.149    23279155.218   -10199089.178 9   -888431.878 8
  20493561.262    20493562.161     2313502.262 9  -7363091.815 8
  20746151.435    20746153.918    -4181840.055 9  -2588638.740 8
  21530701.774    21530702.242    -3828479.351 9 -12040174.255 9
 89 11 16 11 35 59.0800000  0  4G13G 6G11G 9
  23258689.537    23258691.744   -10306625.243 9   -972226.189 9
  20493257.979    20493257.347     2311903.699 9  -7364337.424 8
  20740362.836    20740364.108    -4212262.739 9  -2612344.694 8
  21517031.743    21517032.627    -3900314.646 9 -12096149.802 8
 89 11 16 11 36 29.0800000  0  4G13G 6G11G 9
  23238276.164    23238277.513   -10413901.722 9  -1055818.259 9
  20493039.846    20493040.562     2310760.659 9  -7365228.115 8
  20734677.778    20734679.688    -4242133.235 9  -2635620.390 8
  21503410.543    21503410.754    -3971896.878 8 -12151928.153 8
 89 11 16 11 36 59.0800000  0  4G13G 6G11G 9
  23217911.867    23217913.157   -10520916.502 9  -1139206.385 9
  20492908.645    20492909.116     2310074.270 9  -7365762.965 8
  20729099.362    20729100.726    -4271452.125 9  -2658466.254 9
  21489837.824    21489838.468    -4043224.113 9 -12207507.800 8
 89 11 16 11 37 29.0800000  0  4G13G 6G11G 9
  23197596.517    23197598.874   -10627667.966 9  -1222389.328 9
  20492865.844    20492866.158     2309845.991 9  -7365940.840 9
  20723624.944    20723625.429    -4300219.183 9  -2680882.137 8
  21476312.429    21476313.520    -4114293.949 9 -12262886.893 8
 89 11 16 11 37 59.0800000  0  4G13G 6G11G 9
  23177333.547    23177336.530   -10734152.888 9  -1305364.586 8
  20492909.499    20492911.028     2310077.815 9  -7365760.215 9
  20718255.718    20718257.467    -4328433.881 9  -2702867.615 8
  21462837.970    21462839.427    -4185103.256 8 -12318062.951 8
 89 11 16 11 38 29.0800000  0  4G13G 6G11G 9
  23157121.240    23157123.022   -10840368.778 8  -1388130.187 9
  20493042.158    20493043.188     2310771.093 9  -7365220.015 8
  20712991.858    20712993.750    -4356096.289 9  -2724422.729 8
  21449414.702    21449414.805    -4255649.679 9 -12373034.177 9
 89 11 16 11 38 59.0800000  0  4G13G 6G11G 9
  23136961.501    23136962.861   -10946312.202 9  -1470683.496 9
  20493262.490    20493262.173     2311928.438 9  -7364318.218 8
  20707834.275    20707834.755    -4383204.961 8  -2745546.365 7
  21436040.007    21436040.389    -4325929.758 9 -12427797.867 8
 89 11 16 11 39 29.0800000  0  4G13G 6G11G 9
  23116853.029    23116854.691   -11051981.838 9  -1553023.459 8
  20493571.122    20493571.449     2313550.991 9  -7363053.890 8
  20702781.168    20702781.774    -4409760.421 8  -2766238.924 8
  21422716.630    21422718.393    -4395941.087 9 -12482352.129 9
 89 11 16 11 39 59.0800000  0  4G13G 6G11G 9
  23096796.990    23096798.227   -11157375.802 9  -1635148.619 9
  20493967.643    20493968.214     2315639.922 9  -7361426.162 8
  20697831.918    20697833.125    -4435763.102 8  -2786500.760 8
  21409446.463    21409447.025    -4465681.609 9 -12536695.394 9
 89 11 16 11 40 29.0800000  0  4G13G 6G11G 9
  23076794.057    23076796.221   -11262491.590 9  -1717057.007 9
  20494455.186    20494455.840     2318196.240 9  -7359434.230 9
  20692988.584    20692990.789    -4461213.553 9  -2806332.274 9
  21396226.657    21396227.648    -4535149.283 9 -12590826.059 8
 89 11 16 11 40 59.0800000  0  4G13G 6G11G 9
  23056845.418    23056846.724   -11367326.555 9  -1798746.566 7
  20495030.427    20495031.327     2321221.712 9  -7357076.768 8
  20688250.120    20688253.216    -4486111.091 9  -2825732.933 8
  21383059.254    21383060.538    -4604340.995 9 -12644741.684 9
 89 11 16 11 41 29.0800000  0  4G13G 6G11G 9
  23036948.843    23036951.669   -11471878.525 9  -1880215.630 9
  20495696.359    20495696.558     2324717.903 9  -7354352.472 8
  20683617.763    20683619.406    -4510455.750 9  -2844702.764 8
  21369946.020    21369946.181    -4673254.250 9 -12698440.296 9
 89 11 16 11 41 59.0800000  0  4G13G 6G11G 9
  23017108.090    23017109.719   -11576145.300 9  -1961462.464 9
  20496451.154    20496451.196     2328686.398 9  -7351260.170 8
  20679091.294    20679093.130    -4534247.438 9  -2863241.733 9
  21356885.729    21356886.704    -4741886.234 9 -12751919.730 9
 89 11 16 11 42 29.0800000  0  4G13G 6G11G 9
  22997321.104    22997322.323   -11680125.319 9  -2042485.838 9
  20497296.440    20497297.409     2333127.689 8  -7347799.435 9
  20674668.211    20674669.922    -4557487.217 9  -2881350.624 8
  21343879.092    21343880.886    -4810235.296 8 -12805178.706 8
 89 11 16 11 42 59.0800000  0  4G13G 6G11G 9
  22977590.287    22977590.993   -11783815.072 9  -2123283.034 8
  20498231.887    20498233.001     2338044.686 9  -7343967.998 8
  20670351.866    20670353.380    -4580173.480 9  -2899028.211 8
  21330928.294    21330928.782    -4878297.573 9 -12858214.217 9
 89 11 16 11 43 29.0800000  0  4G13G 6G11G 9
  22957914.352    22957916.124   -11887213.328 9  -2203853.105 8
  20499257.882    20499258.540     2343437.254 9  -7339765.989 9
  20666139.195    20666140.971    -4602307.843 9  -2916275.732 8
  21318031.045    21318031.527    -4946071.746 9 -12911025.234 9
 89 11 16 11 43 59.0800000  0  4G13G 6G11G 9
  22938294.551    22938295.865   -11990318.214 9  -2284194.572 8
  20500375.000    20500375.141     2349306.656 8  -7335192.434 9
  20662033.138    20662034.020    -4623891.062 9  -2933093.813 8
  21305188.342    21305189.391    -5013555.485 9 -12963609.946 8
 89 11 16 11 44 29.0800000  0  4G13G 6G11G 9
  22918729.610    22918732.391   -12093126.108 9  -2364304.604 9
  20501582.879    20501583.923     2355655.340 9  -7330245.415 8
  20658030.566    20658031.617    -4644921.841 9  -2949481.418 8
  21292403.487    21292404.020    -5080744.784 9 -13015965.232 9
 89 11 16 11 44 59.0800000  0  4G13G 6G11G 9
  22899222.908    22899224.867   -12195635.627 8  -2444182.127 9
  20502881.710    20502882.679     2362483.874 9  -7324924.499 9
  20654132.470    20654135.274    -4665401.482 8  -2965439.555 8
  21279674.716    21279673.953    -5147638.233 9 -13068089.998 9
 89 11 16 11 45 29.0800000  0  4G13G 6G11G 9
  22879773.907    22879774.393   -12297843.126 9  -2454519.332 9
                  20504274.391                    -7319227.949 9
                  20650341.979                    -2980967.281 8
  21267002.483    21267003.179    -5237234.688 9 -13119981.324 8
 89 11 16 11 45 59.0800000  0  4G13G 6G11G 9
  22860381.644    22860383.300   -12399747.940 9  -2533925.681 9
  20505756.770    20505757.808     2261927.565 9  -7313155.480 9
  20646653.319    20646655.122    -4769144.243 8  -2996065.825 9
  21254386.865    21254386.912    -5303526.911 9 -13171638.050 9
 89 11 16 11 46 29.0800000  0  4G13G 6G11G 9
  22841047.642    22841049.928   -12501346.893 9  -2613093.700 8
  20507331.611    20507331.892     2270205.139 9  -7306705.427 8
  20643071.250    20643071.912    -4787969.340 8  -3010734.711 7
  21241830.096    21241829.278    -5369515.272 9 -13223057.521 8
 89 11 16 11 46 59.0800000  0  4G13G 6G11G 9
  22821772.875    22821774.861   -12602637.717 7  -2692021.597 9
  20508999.289    20508999.581     2278968.687 9  -7299876.694 9
  20639593.729    20639594.992    -4806243.304 8  -3024974.146 9
  21229330.536    21229331.363    -5435196.422 9 -13274237.629 8
 89 11 16 11 47 29.0800000  0  4G13G 6G11G 9
  22802557.228    22802558.586   -12703619.152 9  -2770708.424 9
  20510759.659    20510760.469     2288218.563 9  -7292669.010 9
  20636220.852    20636222.754    -4823967.410 9  -3038785.112 8
  21216890.796    21216890.492    -5500568.355 9 -13325176.764 9
 89 11 16 11 47 59.0800000  0  4G13G 6G11G 9
  22783400.585    22783402.721   -12804288.677 9  -2849152.197 9
  20512613.043    20512614.108     2297956.768 9  -7285080.807 9
  20632952.657    20632954.371    -4841140.895 9  -3052167.031 8
  21204510.354    21204510.650    -5565628.074 9 -13375872.625 8
 89 11 16 11 48 29.0800000  0  4G13G 6G11G 9
  22764302.571    22764304.881   -12904644.802 9  -2927351.756 9
  20514559.606    20514559.656     2308183.212 9  -7277112.166 8
  20629788.916    20629790.418    -4857765.485 9  -3065121.242 8
  21192190.109    21192190.013    -5630374.109 9 -13426324.080 9
 89 11 16 11 48 59.0800000  0  4G13G 6G11G 9
  22745266.293    22745266.895   -13004685.273 9  -3005305.357 9
  20516598.493    20516598.557     2318899.739 9  -7268761.634 9
  20626730.242    20626732.345    -4873841.283 9  -3077647.834 8
  21179928.906    21179929.958    -5694803.188 9 -13476528.546 9
 89 11 16 11 49 29.0800000  0  4G13G 6G11G 9
  22726289.168    22726291.157   -13104406.727 9  -3083010.384 8
  20518730.618    20518731.742     2330108.769 9  -7260027.329 9
  20623775.843    20623777.002    -4889367.114 8  -3089745.840 8
  21167729.767    21167730.221    -5758911.582 9 -13526483.143 9
 89 11 16 11 49 59.0800000  0  4G13G 6G11G 9
  22707373.882    22707375.620   -13203807.411 9  -3160465.439 9
  20520957.701    20520959.164     2341810.915 9  -7250908.775 9
  20620925.543    20620927.633    -4904344.124 9  -3101416.223 9
  21155591.672    21155591.883    -5822697.308 9 -13576186.278 9
 89 11 16 11 50 29.0800000  0  4G13G 6G11G 9
  22688520.034    22688521.609   -13302885.220 9  -3237668.917 9
  20523278.505    20523280.044     2354006.658 9  -7241405.603 9
  20618180.472    20618181.707    -4918773.300 9  -3112659.707 8
  21143516.263    21143515.288    -5886158.383 9 -13625636.460 8
 89 11 16 11 50 59.0800000  0  4G13G 6G11G 9
  22669728.002    22669729.004   -13401638.586 9  -3314619.551 9
  20525694.123    20525694.145     2366696.770 9  -7231517.202 9
  20615538.787    20615539.873    -4932655.345 8  -3123476.853 9
  21131501.986    21131501.427    -5949292.224 9 -13674831.620 9
 89 11 16 11 51 29.0800000  0  4G13G 6G11G 9
  22650998.878    22650999.102   -13500064.130 9  -3391314.795 8
  20528202.867    20528203.532     2379883.409 9  -7221241.935 8
  20613001.285    20613001.963    -4945989.948 8  -3133867.427 8
  21119549.843    21119550.193    -6012095.507 9 -13723769.245 9
 89 11 16 11 51 59.0800000  0  4G13G 6G11G 9
  22632331.155    22632333.156   -13598159.926 9  -3467753.064 8
  20530807.682    20530807.661     2393568.156 9  -7210578.527 9
  20610567.575    20610568.471    -4958777.480 9  -3143831.730 9
  21107662.472    21107663.506    -6074565.115 9 -13772446.832 9
 89 11 16 11 52 29.0800000  0  4G13G 6G11G 9
  22613727.500    22613729.324   -13695925.559 9  -3543934.070 9
  20533506.107    20533505.914     2407750.612 9  -7199527.280 9
  20608237.969    20608239.647    -4971019.670 8  -3153371.078 8
  21095838.570    21095838.237    -6136699.804 9 -13820863.438 9
 89 11 16 11 52 59.0800000  0  4G13G 6G11G 9
  22595186.334    22595187.559   -13793358.322 9  -3619855.692 8
  20536299.574    20536299.939     2422432.197 9  -7188087.087 8
  20606012.208    20606012.950    -4982716.783 9  -3162485.680 8
  21084079.459    21084079.464    -6198496.901 9 -13869016.995 9
 89 11 16 11 53 29.0800000  0  4G13G 6G11G 9
  22576709.789    22576710.141   -13890455.191 9  -3695515.565 8
  20539188.599    20539189.606     2437615.065 8  -7176256.309 8
  20603889.685    20603891.044    -4993868.467 9  -3171175.285 8
  21072384.666    21072385.223    -6259952.351 9 -13916904.340 8
 89 11 16 11 53 59.0800000  0  4G13G 6G11G 9
  22558296.377    22558298.436   -13987215.001 9  -3770912.807 8
  20542173.552    20542174.374     2453300.002 8  -7164034.295 9
  20601872.666    20601872.821    -5004475.615 9  -3179440.560 8
  21060755.633    21060754.870    -6321064.038 9 -13964523.838 9
 89 11 16 11 54 29.0800000  0  4G13G 6G11G 9
  22539948.379    22539949.900   -14083635.902 9  -3846045.967 8
  20545254.692    20545254.612     2469486.704 8  -7151421.290 8
  20599956.035    20599957.121    -5014539.959 8  -3187282.890 8
  21049192.060    21049192.029    -6381830.355 9 -14011874.198 9
 89 11 16 11 54 59.0800000  0  4G13G 6G11G 9
  22521665.558    22521666.152   -14179714.869 9  -3920912.687 8
  20548430.442    20548430.664     2486177.117 9  -7138415.773 9
  20598144.181    20598145.897    -5024061.341 9  -3194702.129 9
  21037694.472    21037695.034    -6442248.121 9 -14058952.967 9
 89 11 16 11 55 29.0800000  0  4G13G 6G11G 9
  22503447.015    22503449.103   -14275450.180 9  -3995511.624 8
  20551702.039    20551702.961     2503372.523 8  -7125016.789 8
  20596435.861    20596436.575    -5033040.229 9  -3201698.651 8
  21026264.960    21026264.404    -6502314.304 9 -14105757.788 9
 89 11 16 11 55 59.0800000  0  4G13G 6G11G 9
  22485295.228    22485296.312   -14387967.116 9  -4069841.438 8
  20555071.343    20555071.813     2481035.542 9  -7111223.801 9
  20594829.786    20594831.762    -5110517.413 9  -3208273.075 8
  21014901.930    21014902.394    -6562027.402 9 -14090408.702 8
 89 11 16 11 56 29.0800000  0  4G13G 6G11G 9
  22467208.150    22467211.400   -14483010.248 9  -4143901.052 9
  20558535.310    20558536.510     2499242.410 9  -7097036.690 8
  20593326.679    20593328.962    -5118414.529 8  -3214426.687 8
  21003606.352    21003607.325    -6621383.573 9 -14136660.307 9
 89 11 16 11 56 59.0800000  0  4G13G 6G11G 9
  22449189.749    22449190.846   -14577703.965 9  -4217688.331 8
  20562095.607    20562097.009     2517956.629 8  -7082454.195 9
  20591926.623    20591929.484    -5125771.606 8  -3220159.451 9
  20992381.239    20992380.820    -6680380.748 9 -14182632.132 8
 89 11 16 11 57 29.0800000  0  4G13G 6G11G 9
  22431236.612    22431238.805   -14672046.311 9  -4291201.843 9
  20565753.922    20565755.968     2537179.466 8  -7067475.379 9
  20590629.892    20590630.816    -5132589.290 8  -3225471.920 9
  20981222.170    20981222.559    -6739015.995 9 -14228321.949 8
 89 11 16 11 57 59.0800000  0  4G13G 6G11G 9
  22413351.659    22413352.484   -14766035.429 9  -4364440.103 8
  20569508.852    20569509.653     2556911.265 9  -7052099.940 9
  20589435.537    20589436.997    -5138868.703 8  -3230364.956 7
  20970134.031    20970133.428    -6797287.056 9 -14273727.971 9
 89 11 16 11 58 29.0800000  0  4G13G 6G11G 9
  22395533.278    22395534.283   -14859669.797 9  -4437401.935 8
  20573361.171    20573361.602     2577152.833 9  -7036327.316 9
  20588342.646    20588344.024    -5144610.665 9  -3234839.209 8
  20959114.401    20959115.522    -6855191.571 9 -14318848.368 9
 89 11 16 11 58 59.0800000  0  4G13G 6G11G 9
  22377783.269    22377784.903   -14952946.280 9  -4510084.910 9
  20577308.619    20577311.323     2597906.034 8  -7020156.018 9
  20587352.933    20587353.354    -5149814.824 8  -3238894.388 9
  20948166.083    20948166.732    -6912725.684 9 -14363680.110 8
 89 11 16 11 59 29.0800000  0  4G13G 6G11G 9
  22360102.592    22360102.711   -15045863.374 9  -4582487.825 8
  20581356.716    20581357.631     2619171.505 9  -7003585.582 9
  20586463.924    20586465.580    -5154482.628 8  -3242531.645 9
  20937288.862    20937288.855    -6969886.954 9 -14408221.346 9
 89 11 16 11 59 59.0800000  0  4G13G 6G11G 9
  22342489.757    22342490.527   -15138420.401 9  -4654610.178 9
  20585500.884    20585502.815     2640948.511 9  -6986616.482 9
  20585678.251    20585678.730    -5158616.344 8  -3245752.703 9
  20926483.110    20926483.377    -7026674.671 9 -14452471.497 8
 89 11 16 12  0 29.0800000  0  4G13G 6G11G 9
  22324945.106    22324946.403   -15230615.266 9  -4726450.333 9
  20589743.245    20589744.058     2663238.626 8  -6969247.592 9
  20584991.464    20584993.101    -5162216.364 8  -3248557.919 8
  20915747.904    20915747.702    -7083085.306 9 -14496427.843 9
 89 11 16 12  0 59.0800000  0  4G13G 6G11G 9
  22307470.290    22307471.089   -15322444.690 9  -4798005.720 9
  20594082.733    20594082.662     2686043.581 9  -6951477.482 9
  20584407.870    20584409.798    -5165282.547 8  -3250947.147 9
  20905085.313    20905086.279    -7139115.312 9 -14540087.563 9
 89 11 16 12  1 29.0800000  0  4G13G 6G11G 9
  22290064.480    22290067.073   -15413907.905 9  -4869275.740 9
  20598519.811    20598520.941     2709363.534 9  -6933306.094 9
  20583926.330    20583928.145    -5167816.087 8  -3252921.328 9
  20894495.922    20894495.947    -7194762.614 9 -14583449.071 8
 89 11 16 12  1 59.0800000  0  4G13G 6G11G 9
  22272730.294    22272731.713   -15505002.766 9  -4940258.739 9
  20603056.509    20603056.910     2733199.132 9  -6914732.883 9
  20583545.722    20583547.351    -5169818.150 8  -3254481.357 7
  20883980.532    20883980.624    -7250024.738 9 -14626510.454 8
 89 11 16 12  2 29.0800000  0  4G13G 6G11G 9
  22255465.208    22255466.764   -15595727.933 9  -5010953.670 9
  20607689.567    20607691.155     2757550.750 9  -6895757.612 9
  20583264.801    20583267.814    -5171290.039 9  -3255628.287 8
  20873537.542    20873538.138    -7304899.150 9 -14669269.727 8
 89 11 16 12  2 59.0800000  0  4G13G 6G11G 9
  22238272.012    22238273.288   -15686080.788 9  -5081358.479 8
  20612422.472    20612423.947     2782418.980 9  -6876379.786 9
  20583085.380    20583087.729    -5172232.832 8  -3256362.941 9
  20863169.555    20863170.073    -7359383.645 9 -14711725.174 8
 89 11 16 12  3 29.0800000  0  4G13G 6G11G 9
  22221149.780    22221152.375   -15776058.578 9  -5151471.029 9
  20617252.882    20617254.342     2807805.882 9  -6856597.802 9
  20583006.884    20583008.546    -5172646.336 9  -3256685.133 8
  20852876.650    20852876.215    -7413474.274 9 -14753873.710 9
 89 11 16 12  3 59.0800000  0  4G13G 6G11G 9
  22204098.453    22204101.783   -15865660.862 9  -5221290.983 9
  20622182.569    20622184.243     2833710.964 8  -6836412.037 9
  20583028.978    20583031.529    -5172532.451 9  -3256596.397 8
  20842658.360    20842659.598    -7467169.496 9 -14795714.129 8
 89 11 16 12  4 29.0800000  0  4G13G 6G11G 9
  22187120.322    22187122.078   -15954885.505 9  -5290816.652 8
  20627210.931    20627210.519     2860135.296 9  -6815821.628 8
  20583150.178    20583153.134    -5171891.855 9  -3256097.216 8
  20832516.354    20832516.979    -7520466.343 9 -14837244.112 9
 89 11 16 12  4 59.0800000  0  4G13G 6G11G 9
  22170213.710    22170213.729   -16043731.703 9  -5360047.446 9
  20632338.772    20632338.572     2887078.834 9  -6794826.684 8
  20583372.911    20583374.184    -5170726.622 8  -3255189.237 9
  20822450.961    20822450.961    -7573362.955 8 -14878462.257 9
 89 11 16 12  5 29.0800000  0  4G13G 6G11G 9
  22153379.130    22153380.057   -16132196.981 9  -5428981.398 9
  20637564.429    20637564.372     2914542.795 9  -6773426.196 8
  20583695.232    20583696.643    -5169037.020 9  -3253872.651 8
  20812462.522    20812462.697    -7625856.023 9 -14919365.925 8
 89 11 16 12  5 59.0800000  0  4G13G 6G11G 9
  22136617.406    22136618.990   -16220279.826 9  -5497617.368 9
  20642890.052    20642890.666     2942527.367 9  -6751620.072 9
  20584113.879    20584116.687    -5166824.465 8  -3252148.593 8
  20802549.395    20802550.099    -7677943.167 9 -14959953.324 9
 89 11 16 12  6 29.0800000  0  4G13G 6G11G 9
  22119929.015    22119930.866   -16307977.896 9  -5565953.523 9
  20648313.521    20648315.322     2971033.683 9  -6729407.362 9
  20584635.584    20584637.125    -5164089.653 8  -3250017.554 9
  20792715.611    20792716.212    -7729621.657 9 -15000222.265 8
 89 11 16 12  6 59.0800000  0  4G13G 6G11G 9
  22103313.136    22103316.614   -16414095.828 9  -5633988.762 8
  20653838.767    20653839.415     2957669.963 9  -6706787.945 9
                  20585256.089                    -3247480.674 8
  20782959.488    20782958.834    -7810352.477 9 -15040170.860 8
 89 11 16 12  7 29.0800000  0  4G13G 6G11G 9
  22086772.779    22086774.711   -16501019.388 9  -5701721.432 8
  20659462.281    20659462.823     2987220.601 9  -6683761.525 9
  20585973.035    20585974.600    -5236311.776 9  -3244538.951 8
  20773283.046    20773283.378    -7861205.738 9 -15079797.130 8
 89 11 16 12  7 59.0800000  0  4G13G 6G11G 9
  22070306.131    22070307.606   -16587553.852 9  -5769150.869 9
  20665184.753    20665183.982     3017293.823 9  -6660327.916 9
  20586790.246    20586792.543    -5232018.384 9  -3241193.468 8
  20763684.230    20763684.785    -7911643.339 9 -15119099.136 8
 89 11 16 12  8 29.0800000  0  4G13G 6G11G 9
  22053913.961    22053915.064   -16673696.931 9  -5836275.330 8
  20671006.790    20671007.132     3047890.785 9  -6636486.179 8
  20587705.520    20587707.140    -5227207.435 8  -3237444.651 8
  20754166.547    20754167.238    -7961662.126 8 -15158074.800 8
 89 11 16 12  8 59.0800000  0  4G13G 6G11G 9
  22037596.417    22037597.124   -16759446.634 9  -5903093.242 8
  20676928.934    20676929.577     3079012.367 9  -6612235.614 9
  20588719.951    20588720.931    -5221879.753 9  -3233293.186 8
  20744728.808    20744729.256    -8011258.711 9 -15196721.449 9
 89 11 16 12  9 29.0800000  0  4G13G 6G11G 9
  22021352.908    22021354.524   -16844801.829 9  -5969603.778 9
  20682951.155    20682951.912     3110658.234 9  -6587576.551 9
  20589831.413    20589832.726    -5216037.496 9  -3228740.788 8
  20735370.704    20735372.025    -8060431.617 9 -15235037.984 8
 89 11 16 12  9 59.0800000  0  4G13G 6G11G 9
  22005185.664    22005188.009   -16929761.065 9  -6035805.759 8
  20689073.998    20689072.369     3142828.196 9  -6562509.067 8
  20591041.042    20591042.859    -5209682.438 9  -3223788.794 8
  20726094.637    20726094.781    -8109178.759 9 -15273022.771 8
 89 11 16 12 10 29.0800000  0  4G13G 6G11G 9
  21989095.112    21989095.656   -17014322.706 9  -6101697.931 8
  20695294.460    20695295.477     3175523.297 9  -6537032.359 9
  20592348.008    20592348.954    -5202815.238 8  -3218437.725 8
  20716901.217    20716900.898    -8157497.197 9 -15310673.520 8
 89 11 16 12 10 59.0800000  0  4G13G 6G11G 9
  21973079.762    21973080.606   -17098484.680 9  -6167278.688 8
  20701616.632    20701616.919     3208744.298 9  -6511145.841 9
  20593751.728    20593753.566    -5195436.651 9  -3212688.179 8
  20707787.930    20707788.868    -8205383.701 9 -15347987.697 9
 89 11 16 12 11 29.0800000  0  4G13G 6G11G 9
  21957139.879    21957141.474   -17182246.260 9  -6232547.434 9
  20708038.768    20708038.868     3242490.593 9  -6484850.031 9
  20595253.511    20595254.678    -5187548.877 8  -3206541.845 9
  20698758.960    20698758.367    -8252836.704 9 -15384964.073 8
 89 11 16 12 11 59.0800000  0  4G13G 6G11G 9
  21941277.709    21941278.588   -17265605.048 9  -6297502.327 8
  20714560.265    20714560.623     3276763.762 9  -6458143.679 9
  20596851.477    20596852.028    -5179152.159 9  -3199998.948 8
  20689812.119    20689810.234    -8299852.600 9 -15421599.829 9
 89 11 16 12 12 29.0800000  0  4G13G 6G11G 9
  21925491.499    21925493.144   -17348559.641 9  -6362142.255 9
  20721181.842    20721182.100     3311563.306 9  -6431027.167 9
  20598545.015    20598546.545    -5170248.622 9  -3193061.118 8
  20680948.261    20680947.981    -8346429.520 9 -15457893.531 9
 89 11 16 12 12 59.0800000  0  4G13G 6G11G 9
  21909782.515    21909784.625   -17431109.429 9  -6426466.749 9
  20727904.528    20727905.186     3346889.024 9  -6403500.643 9
  20600334.829    20600336.683    -5160840.235 8  -3185729.910 8
  20672169.053    20672168.956    -8392565.737 9 -15493843.815 8
 89 11 16 12 13 29.0800000  0  4G13G 6G11G 9
  21894151.724    21894153.106   -17513252.976 9  -6490474.699 8
  20734727.178    20734727.808     3382741.194 9  -6375563.911 9
  20602221.538    20602223.708    -5150928.410 8  -3178006.401 8
  20663473.577    20663473.478    -8438258.416 8 -15529448.502 8
 89 11 16 12 13 59.0800000  0  4G13G 6G11G 9
  21878597.953    21878599.391   -17594986.791 9  -6554163.395 8
  20741650.078    20741650.621     3419122.207 9  -6347215.094 8
  20604202.923    20604205.016    -5140512.574 9  -3169890.169 8
  20654863.736    20654863.844    -8483503.162 9 -15564704.142 9
 89 11 16 12 14 29.0800000  0  4G13G 6G11G 9
  21863122.404    21863123.456   -17676309.970 9  -6617532.082 8
  20748673.971    20748673.541     3456031.014 9  -6318455.000 9
  20606281.094    20606283.425    -5129594.969 8  -3161382.941 9
  20646340.567    20646339.023    -8528298.673 9 -15599609.749 9
 89 11 16 12 14 59.0800000  0  4G13G 6G11G 9
  21847724.794    21847726.435   -17757223.394 9  -6680581.516 8
  20755797.515    20755798.103     3493465.924 9  -6289284.954 9
  20608453.335    20608454.533    -5118178.881 9  -3152487.300 8
  20637900.535    20637901.152    -8572644.308 8 -15634164.792 8
 89 11 16 12 15 29.0800000  0  4G13G 6G11G 9
  21832406.609    21832408.162   -17837722.440 9  -6743308.025 8
  20763021.966    20763022.295     3531429.105 9  -6259703.325 9
  20610720.063    20610721.418    -5106264.048 9  -3143202.990 8
  20629547.553    20629548.792    -8616535.607 9 -15668365.776 8
 89 11 16 12 15 59.0800000  0  4G13G 6G11G 9
  21817167.090    21817169.221   -17917806.701 9  -6805711.337 8
  20770346.984    20770346.840     3569921.038 9  -6229709.680 8
  20613082.617    20613084.724    -5093851.651 8  -3133530.990 8
  20621283.076    20621283.238    -8659969.964 8 -15702210.738 9
 89 11 16 12 16 29.0800000  0  4G13G 6G11G 9
  21802006.994    21802008.438   -17997475.136 9  -6867790.624 8
  20777771.908    20777773.237     3608941.365 9  -6199304.249 9
  20615538.856    20615539.786    -5080943.668 9  -3123472.826 8
  20613104.454    20613104.932    -8702945.389 9 -15735698.074 9
 89 11 16 12 16 59.0800000  0  4G13G 6G11G 9
  21786926.041    21786927.750   -18076726.635 9  -6929545.018 9
  20785297.509    20785297.481     3648489.364 9  -6168487.635 9
  20618089.131    20618090.514    -5067542.369 9  -3113030.253 8
  20605014.774    20605015.097    -8745460.182 9 -15768826.456 8
 89 11 16 12 17 29.0800000  0  4G13G 6G11G 9
  21771924.339    21771925.611   -18155561.027 9  -6990974.398 9
  20792923.992    20792923.463     3688564.880 9  -6137259.925 9
  20620732.076    20620733.819    -5053649.694 9  -3102204.771 8
  20597012.114    20597013.197    -8787512.341 9 -15801594.365 9
 89 11 16 12 17 59.0800000  0  4G13G 6G11G 9
  21757002.897    21757004.750   -18233974.632 9  -7052075.907 9
  20800650.639    20800650.411     3729169.653 9  -6105619.870 9
  20623470.537    20623472.184    -5039265.386 9  -3090996.237 8
  20589099.200    20589099.076    -8829097.813 9 -15833998.631 9
 89 11 16 12 18 29.0800000  0  4G13G 6G11G 9
  21742161.909    21742162.399   -18311964.973 9  -7112847.593 9
  20808478.681    20808479.195     3770304.685 9  -6073566.650 8
  20626301.243    20626301.817    -5024390.055 9  -3079405.068 8
  20581275.573    20581274.954    -8870212.988 9 -15866036.426 8
 89 11 16 12 18 59.0800000  0  4G13G 6G11G 9
  21727401.111    21727402.768   -18389533.343 9  -7173290.475 8
  20816406.430    20816406.230     3811967.348 9  -6041102.249 9
  20629224.313    20629225.304    -5009027.833 9  -3067434.500 9
  20573540.739    20573540.631    -8910858.213 8 -15897708.022 8
 89 11 16 12 19 29.0800000  0  4G13G 6G11G 9
  21712720.094    21712721.532   -18466679.160 9  -7233404.087 8
  20824434.458    20824435.746     3854157.415 9  -6008226.888 9
  20632239.865    20632240.560    -4993180.598 8  -3055085.988 7
  20565896.562    20565896.331    -8951031.297 9 -15929011.707 8
 89 11 16 12 19 59.0800000  0  4G13G 6G11G 9
  21698121.109    21698121.439   -18543398.838 9  -7293185.658 9
  20832564.509    20832563.980     3896876.635 9  -5974939.259 8
  20635348.031    20635349.244    -4976848.087 8  -3042359.367 9
  20558341.865    20558340.534    -8990728.137 8 -15959944.307 8
 89 11 16 12 20 29.0800000  0  4G13G 6G11G 9
  21683603.582    21683604.591   -18619690.622 9  -7352633.806 8
  20840794.497    20840794.953     3940125.139 9  -5941239.163 9
  20638548.220    20638548.249    -4960031.945 8  -3029255.886 6
  20550879.904    20550879.476    -9029946.278 9 -15990503.901 8
 89 11 16 12 20 59.0800000  0  4G13G 6G11G 9
  21669166.993    21669167.636   -18695555.346 9  -7411749.162 8
  20849124.677    20849126.020     3983901.226 9  -5907127.960 9
  20641838.718    20641839.969    -4942735.643 8  -3015778.250 8
  20543507.583    20543507.239    -9068684.997 8 -16020689.900 8
 89 11 16 12 21 29.0800000  0  4G13G 6G11G 9
  21654811.516    21654812.811   -18770990.905 9  -7470530.114 8
  20857554.906    20857556.952     4028205.570 9  -5872605.177 9
  20645221.154    20645223.257    -4924959.708 9  -3001926.886 8
  20536228.058    20536226.574    -9106941.095 9 -16050499.862 8
 89 11 16 12 21 59.0800000  0  4G13G 6G11G 9
  21640537.988    21640539.590   -18845995.664 9  -7528975.373 8
  20866086.188    20866087.549     4073038.913 9  -5837670.138 9
  20648694.924    20648696.925    -4906705.228 9  -2987702.599 9
  20529040.172    20529040.064    -9144711.527 9 -16079931.350 9
 89 11 16 12 22 29.0800000  0  4G13G 6G11G 9
  21626347.940    21626349.356   -18920568.252 9  -7587083.881 8
  20874718.752    20874719.695     4118400.847 9  -5802323.193 9
  20652260.067    20652261.199    -4887973.972 8  -2973106.818 8
  20521945.337    20521944.359    -9181994.424 9 -16108982.954 8
 89 11 16 12 22 59.0800000  0  4G13G 6G11G 9
  21612239.575    21612241.057   -18994708.745 9  -7644855.695 8
  20883451.850    20883452.478     4164290.097 9  -5766565.385 9
  20655914.762    20655915.038    -4868768.636 9  -2958141.621 9
  20514944.432    20514943.555    -9218788.121 8 -16137653.376 7
 89 11 16 12 23 29.0800000  0  4G13G 6G11G 9
  21598213.518    21598215.828   -19068415.006 9  -7702289.135 9
  20892284.595    20892285.727     4210707.121 9  -5730396.319 9
  20659659.212    20659660.159    -4849090.348 8  -2942807.890 7
  20508034.704    20508036.515    -9255089.910 8 -16165940.479 9
 89 11 16 12 23 59.0800000  0  4G13G 6G11G 9
  21584271.290    21584272.785   -19141685.489 9  -7759383.012 8
  20901216.993    20901218.066     4257652.452 9  -5693815.554 9
  20663493.741    20663494.575    -4828940.269 9  -2927106.539 8
  20501221.252    20501222.335    -9290896.966 9 -16193842.087 9
 89 11 16 12 24 29.0800000  0  4G13G 6G11G 9
  21570410.676    21570411.570   -19214519.560 9  -7816136.832 8
  20910250.957    20910252.174     4305125.311 9  -5656823.759 9
  20667417.261    20667418.009    -4808320.726 9  -2911039.370 9
  20494501.611    20494502.221    -9326207.433 8 -16221356.736 9
 89 11 16 12 24 59.0800000  0  4G13G 6G11G 9
  21556634.041    21556635.043   -19286917.226 9  -7872550.592 8
  20919384.856    20919385.914     4353124.090 9  -5619422.135 9
  20671429.158    20671431.989    -4787234.696 9  -2894608.696 8
  20487878.394    20487877.839    -9361020.379 9 -16248483.696 8
 89 11 16 12 25 29.0800000  0  4G13G 6G11G 9
  21542940.742    21542941.424   -19358875.892 9  -7928622.267 8
  20928619.119    20928620.649     4401650.024 9  -5581609.752 9
  20675530.627    20675532.912    -4765682.612 8  -2877814.859 8
  20481348.436    20481349.071    -9395332.072 9 -16275220.084 8
 89 11 16 12 25 59.0800000  0  4G13G 6G11G 9
  21529331.241    21529332.172   -19430395.083 9  -7984351.499 8
  20937954.092    20937955.122     4450702.501 9  -5543387.087 9
  20679721.680    20679722.677    -4743666.343 7  -2860659.322 8
  20474915.210    20474915.167    -9429140.464 8 -16301564.286 8
 89 11 16 12 26 29.0800000  0  4G13G 6G11G 9
  21515805.311    21515807.792   -19501472.283 9  -8039736.331 9
  20947388.827    20947389.485     4500281.974 9  -5504753.764 9
  20683998.224    20683999.875    -4721186.896 8  -2843142.873 7
  20468577.596    20468577.547    -9462442.865 9 -16327514.213 8
 89 11 16 12 26 59.0800000  0  4G13G 6G11G 9
  21502364.262    21502365.809   -19572106.517 9  -8094775.975 8
  20956924.155    20956924.857     4550388.444 9  -5465709.761 9
  20688363.795    20688364.867    -4698245.835 9  -2825266.735 8
  20462337.084    20462337.692    -9495236.847 8 -16353067.953 7
 89 11 16 12 27 29.0800000  0  4G13G 6G11G 9
  21489006.465    21489008.863   -19642297.998 9  -8149470.637 8
  20966558.532    20966559.621     4601020.479 9  -5426256.213 9
  20692817.016    20692819.066    -4674846.445 8  -2807033.445 8
  20456192.783    20456195.028    -9527521.084 8 -16378224.492 8
 89 11 16 12 27 59.0800000  0  4G13G 6G11G 9
  21475734.215    21475735.576   -19712047.468 9  -8203820.857 8
  20976292.559    20976293.747     4652175.913 9  -5386394.811 9
  20697355.609    20697357.627    -4650991.973 8  -2788445.553 8
  20450147.423    20450147.540    -9559295.084 9 -16402983.458 9
 89 11 16 12 28 29.0800000  0  4G13G 6G11G 9
  21462546.427    21462547.613   -19781352.375 9  -8257824.681 9
  20986127.379    20986128.739     4703856.040 9  -5346124.562 9
  20701982.291    20701982.536    -4626682.531 9  -2769503.113 8
  20444199.690    20444198.925    -9590555.234 9 -16427342.011 8
 89 11 16 12 28 59.0800000  0  4G13G 6G11G 9
  21449442.839    21449445.014   -19850209.848 9  -8311479.828 9
  20996061.535    20996063.007     4756062.109 9  -5305444.506 9
  20706694.661    20706695.719    -4601918.418 9  -2750206.412 8
  20438349.386    20438348.446    -9621297.434 9 -16451296.980 8
 89 11 16 12 29 29.0800000  0  4G13G 6G11G 9
  21436425.029    21436426.409   -19918619.366 9  -8364785.946 8
  21006095.910    21006097.256     4808792.862 9  -5264355.627 9
  20711492.934    20711494.522    -4576702.195 9  -2730557.408 8
  20432596.728    20432595.963    -9651520.404 9 -16474847.339 9
 89 11 16 12 29 59.0800000  0  4G13G 6G11G 9
  21423492.565    21423494.246   -19986581.916 9  -8417743.772 9
  21016229.393    21016229.965     4862046.218 9  -5222859.575 9
  20716377.615    20716377.107    -4551037.184 9  -2710558.706 7
  20426944.025    20426943.851    -9681223.767 8 -16497992.815 8
 89 11 16 12 30 29.0800000  0  4G13G 6G11G 9
  21410645.212    21410646.386   -20054096.068 9  -8470352.196 8
  21026463.496    21026464.812     4915822.324 9  -5180956.184 9
  20721345.689    20721346.616    -4524925.030 9  -2690211.595 8
  20421392.866    20421391.697    -9710404.758 8 -16520731.257 8
 89 11 16 12 30 59.0800000  0  4G13G 6G11G 9
  21397883.158    21397885.338   -20121160.626 9  -8522610.292 9
  21036795.733    21036797.121     4970121.335 9  -5138645.300 9
  20726399.924    20726401.081    -4498366.948 8  -2669516.989 8
  20415939.156    20415939.583    -9739060.804 9 -16543060.647 8
 89 11 16 12 31 29.0800000  0  4G13G 6G11G 9
  21385206.535    21385208.395   -20187774.035 9  -8574516.843 8
  21047227.848    21047229.265     5024943.125 9  -5095927.054 9
  20731537.743    20731538.770    -4471364.373 9  -2648476.044 8
  20410585.785    20410586.314    -9767189.238 9 -16564978.905 8
 89 11 16 12 31 59.0800000  0  4G13G 6G11G 9
  21372616.304    21372617.602   -20253935.175 9  -8626070.974 8
  21057760.069    21057761.585     5080286.896 9  -5052802.056 9
  20736760.389    20736761.328    -4443919.375 9  -2627090.325 7
  20405333.841    20405334.109    -9794788.204 9 -16586484.601 8
 89 11 16 12 32 29.0800000  0  4G13G 6G11G 9
  21360112.774    21360114.547   -20319643.960 9  -8677272.625 9
  21068390.853    21068391.640     5136151.346 9  -5009271.328 9
  20742067.244    20742067.863    -4416034.969 9  -2605362.242 9
  20400183.212    20400182.984    -9821856.633 8 -16607576.878 7
 89 11 16 12 32 59.0800000  0  4G13G 6G11G 9
  21347694.841    21347695.641   -20384899.383 9  -8728120.985 8
  21079120.170    21079121.243     5192535.621 9  -4965335.540 9
  20747456.970    20747457.178    -4387713.195 9  -2583293.348 8
  20395132.624    20395133.371    -9848392.442 9 -16628254.151 8
 89 11 16 12 33 29.0800000  0  4G13G 6G11G 9
  21335363.855    21335365.844   -20449699.549 9  -8778614.602 8
  21089948.591    21089950.223     5249440.791 9  -4920993.847 9
  20752929.190    20752929.663    -4358954.058 9  -2560883.636 7
  20390185.513    20390185.716    -9874392.103 8 -16648513.635 7
 89 11 16 12 33 59.0800000  0  4G13G 6G11G 9
  21323119.357    21323120.273   -20514045.471 9  -8828754.264 9
  21100876.234    21100877.564     5306864.975 9  -4876247.732 9
  20758485.052    20758486.404    -4329761.126 9  -2538135.902 8
  20385340.910    20385340.729    -9899854.929 9 -16668354.806 7
 89 11 16 12 34 29.0800000  0  4G13G 6G11G 9
  21310961.829    21310962.631   -20577937.120 9  -8878539.954 9
  21111901.607    21111902.582     5364806.134 9  -4831098.781 9
  20764121.894    20764122.588    -4300137.671 9  -2515052.704 8
  20380598.020    20380597.739    -9924780.233 8 -16687777.131 8
 89 11 16 12 34 59.0800000  0  4G13G 6G11G 9
  21298889.048    21298891.072   -20641372.327 9  -8927969.959 8
  21123026.545    21123028.047     5423265.342 9  -4785546.148 9
  20769841.385    20769842.046    -4270083.885 9  -2491634.179 7
  20375957.590    20375956.757    -9949164.432 9 -16706777.797 8
 89 11 16 12 35 29.0800000  0  4G13G 6G11G 9
  21286905.384    21286906.608   -20704348.923 9  -8977042.602 8
  21134249.701    21134250.287     5482242.546 9  -4739589.857 9
  20775641.845    20775643.114    -4239601.104 9  -2467881.362 8
  20371420.880    20371421.037    -9973004.717 9 -16725354.659 8
 89 11 16 12 35 59.0800000  0  4G13G 6G11G 9
  21275008.163    21275010.830   -20766867.622 9  -9025758.467 8
  21145571.045    21145571.647     5541736.017 9  -4693231.313 9
  20781523.021    20781524.574    -4208692.361 9  -2443796.623 8
  20366988.481    20366988.452    -9996300.265 8 -16743507.034 8
 89 11 16 12 36 29.0800000  0  4G13G 6G11G 9
  21263198.777    21263200.831   -20828927.882 9  -9074117.082 8
  21156991.152    21156991.581     5601745.107 9  -4646470.973 9
  20787485.294    20787486.007    -4177359.588 9  -2419381.475 9
  20362658.818    20362659.546   -10019049.037 9 -16761233.345 8
 89 11 16 12 36 59.0800000  0  4G13G 6G11G 9
  21251476.928    21251478.173   -20890529.542 9  -9122118.387 9
  21168507.761    21168509.363     5662268.327 9  -4599310.017 9
  20793528.115    20793529.223    -4145605.597 9  -2394638.115 8
  20358434.233    20358433.560   -10041249.836 7 -16778532.671 8
 89 11 16 12 37 29.0800000  0  4G13G 6G11G 9
  21239841.765    21239842.894   -20951670.177 9  -9169760.436 8
  21180123.189    21180122.675     5723306.275 9  -4551747.980 9
  20799650.447    20799653.034    -4113430.655 9  -2369566.739 8
  20354315.014    20354314.845   -10062899.598 9 -16795402.622 8
 89 11 16 12 37 59.0800000  0  4G13G 6G11G 9
  21228295.726    21228296.641   -21012349.055 9  -9217042.662 8
  21191835.004    21191836.519     5784858.361 9  -4503785.318 8
  20805853.147    20805854.110    -4080836.794 9  -2344168.925 9
  20350300.156    20350299.606   -10083995.888 8 -16811841.278 9
 89 11 16 12 38 29.0800000  0  4G13G 6G11G 9
  21216836.751    21216837.875   -21072566.284 9  -9263965.170 8
  21203645.695    21203646.910     5846922.993 9  -4455423.291 9
  20812134.278    20812135.712    -4047827.071 9  -2318447.062 8
  20346390.875    20346391.699   -10104537.826 9 -16827847.976 8
 89 11 16 12 38 59.0800000  0  4G13G 6G11G 9
  21205464.719    21205466.488   -21132321.638 9  -9310527.766 9
  21215554.004    21215554.130     5909499.268 9  -4406662.563 9
  20818495.217    20818497.305    -4014403.410 9  -2292402.639 8
  20342587.950    20342587.826   -10124523.945 8 -16843421.564 8
 89 11 16 12 39 29.0800000  0  4G13G 6G11G 9
  21194182.284    21194183.301   -21191614.750 9  -9356730.206 9
  21227559.240    21227559.556     5972585.838 9  -4357504.226 9
  20824933.688    20824935.167    -3980568.743 9  -2266037.984 8
  20338889.949    20338890.642   -10143952.541 8 -16858560.736 8
 89 11 16 12 39 59.0800000  0  4G13G 6G11G 9
  21182987.265    21182989.388   -21250444.179 9  -9402571.333 8
  21239660.667    21239661.324     6036182.886 9  -4307948.122 9
  20831450.351    20831451.861    -3946323.715 9  -2239353.566 8
  20335299.661    20335300.957   -10162820.748 8 -16873263.243 8
 89 11 16 12 40 29.0800000  0  4G13G 6G11G 9
  21171880.961    21171881.835   -21308810.161 9  -9448051.319 8
  21251859.565    21251860.782     6100288.836 9  -4257995.446 9
  20838044.093    20838046.302    -3911671.037 9  -2212351.468 9
  20331815.682    20331817.290   -10181127.692 8 -16887528.385 7
 89 11 16 12 40 59.0800000  0  4G13G 6G11G 9
  21160861.752    21160863.590   -21366711.843 9  -9493169.514 8
  21264155.682    21264155.883     6164902.867 9  -4207646.850 8
  20844715.983    20844717.606    -3876612.739 9  -2185033.315 9
  20328439.475    20328440.466   -10198871.410 8 -16901354.665 8
 89 11 16 12 41 29.0800000  0  4G13G 6G11G 9
  21149932.869    21149933.563   -21424147.994 9  -9537924.937 8
  21276547.340    21276548.214     6230024.316 9  -4156902.881 9
  20851463.262    20851465.469    -3841150.765 9  -2157400.622 8
  20325171.393    20325171.176   -10216049.749 7 -16914740.389 7
 89 11 16 12 41 59.0800000  0  4G13G 6G11G 9
  21139092.824    21139092.402   -21481118.642 9  -9582317.630 8
  21289035.414    21289036.480     6295651.687 9  -4105764.676 9
  20858288.338    20858290.272    -3805287.665 8  -2129455.353 9
  20322008.854    20322010.185   -10232661.816 7 -16927684.888 8
 89 11 16 12 42 29.0800000  0  4G13G 6G11G 9
  21128338.977    21128340.302   -21537622.933 9  -9626346.938 7
  21301620.462    21301621.084     6361784.053 9  -4054232.954 8
  20865189.486    20865191.465    -3769025.270 8  -2101198.952 8
  20318955.165    20318956.926   -10248705.569 8 -16940186.528 8
 89 11 16 12 42 59.0800000  0  4G13G 6G11G 9
  21117675.151    21117676.804   -21593660.519 9  -9670012.598 8
  21314301.558    21314302.224     6428421.329 9  -4002307.824 9
  20872165.243    20872167.493    -3732365.147 9  -2072632.609 8
  20316011.891    20316011.757   -10264178.652 7 -16952243.493 8
 89 11 16 12 43 29.0800000  0  4G13G 6G11G 9
  21107100.368    21107101.937   -21649231.731 9  -9713314.818 9
  21327077.584    21327078.742     6495560.922 9  -3949991.274 9
  20879216.560    20879218.014    -3695310.649 9  -2043758.973 8
  20313175.974    20313176.766   -10279080.635 7 -16963855.435 8
 89 11 16 12 43 59.0800000  0  4G13G 6G11G 9
  21096614.807    21096615.903   -21704335.199 9  -9756252.575 8
  21339948.994    21339950.581     6563202.902 9  -3897283.229 9
  20886343.016    20886343.588    -3657863.105 9  -2014579.077 9
  20310448.448    20310450.459   -10293408.871 8 -16975020.296 8
 89 11 16 12 44 29.0800000  0  4G13G 6G11G 9
  21086217.874    21086219.069   -21758969.662 9  -9798824.874 8
  21352917.521    21352918.286     6631347.201 9  -3844183.790 8
  20893543.250    20893545.024    -3620023.587 9  -1985093.738 9
  20307832.547    20307832.737   -10307161.158 7 -16985736.381 7
 89 11 16 12 44 59.0800000  0  4G13G 6G11G 9
  21075910.260    21075910.669   -21813136.259 9  -9841032.621 9
  21365979.179    21365980.701     6699990.917 9  -3790695.172 9
  20900817.995    20900819.792    -3581795.668 9  -1955305.748 8
  20305325.942    20305326.255   -10320337.113 8 -16996003.358 7
 89 11 16 12 45 29.0800000  0  4G13G 6G11G 9
  21065691.863    21065693.189   -21866835.863 9  -9882876.468 8
  21379136.099    21379137.831     6769131.961 9  -3736819.026 9
  20908165.275    20908167.133    -3543182.698 9  -1925217.732 8
  20302928.736    20302926.878   -10332936.419 8 -17005821.002 7
 89 11 16 12 45 59.0800000  0  4G13G 6G11G 9
  21055562.587    21055563.966   -21920066.496 9  -9924354.883 9
  21392388.054    21392389.106     6838770.539 9  -3682555.192 9
  20915586.300    20915587.119    -3504185.626 9  -1894830.412 8
  20300640.626    20300640.354   -10344956.311 8 -17015187.182 8
 89 11 16 12 46 29.0800000  0  4G13G 6G11G 9
  21045521.924    21045522.946   -21972827.219 9  -9965467.118 8
  21405734.866    21405735.336     6908906.252 9  -3627903.974 9
  20923079.996    20923081.317    -3464805.753 8  -1864144.802 9
  20298463.546    20298463.979   -10356394.248 8 -17024099.856 7
 89 11 16 12 46 59.0800000  0  4G13G 6G11G 9
  21035572.112    21035572.391   -22025117.794 9 -10006212.998 8
  21419175.911    21419175.968     6979537.600 9  -3572866.540 9
  20930646.068    20930647.723    -3425045.587 8  -1833162.857 9
  20296397.890    20296399.288   -10367249.140 8 -17032558.222 9
 89 11 16 12 47 29.0800000  0  4G13G 6G11G 9
  21025710.259    21025712.382   -22076938.121 9 -10046592.450 8
  21432710.316    21432710.974     7050663.486 9  -3517443.767 9
  20938283.980    20938285.005    -3384907.360 9  -1801886.327 9
  20294443.995    20294444.380   -10377519.647 8 -17040561.233 8
 89 11 16 12 47 59.0800000  0  4G13G 6G11G 9
  21015938.566    21015940.004   -22128288.266 9 -10086605.525 8
  21446339.369    21446339.312     7122281.816 9  -3461637.251 9
  20945994.369    20945994.870    -3344393.990 9  -1770317.455 9
  20292600.529    20292601.233   -10387204.769 8 -17048108.085 7
 89 11 16 12 48 29.0800000  0  4G13G 6G11G 9
  21006257.079    21006257.574   -22179167.719 9 -10126251.837 9
  21460061.167    21460061.727     7194392.026 9  -3405447.467 9
  20953774.114    20953775.558    -3303507.087 9  -1738457.544 8
  20290868.809    20290870.291   -10396302.727 9 -17055197.430 7
 89 11 16 12 48 59.0800000  0  4G13G 6G11G 9
  20996664.596    20996665.804   -22229576.399 9 -10165531.315 8
  21473876.382    21473877.090     7266992.423 9  -3348875.718 8
  20961626.267    20961627.009    -3262248.865 9  -1706308.280 7
  20289249.832    20289251.362   -10404812.254 8 -17061828.237 8
 89 11 16 12 49 29.0800000  0  4G13G 6G11G 9
  20987161.245    20987162.153   -22279514.344 9 -10204443.973 9
  21487783.892    21487785.467     7340081.753 9  -3291922.983 9
  20969545.764    20969547.862    -3220622.006 9  -1673871.779 9
  20287743.490    20287744.876   -10412732.197 8 -17067999.642 7
 89 11 16 12 49 59.0800000  0  4G13G 6G11G 9
  20977747.940    20977748.622   -22328981.909 9 -10242990.133 8
  21501785.349    21501786.865     7413658.408 9  -3234590.543 9
  20977537.162    20977538.502    -3178629.016 9  -1641149.968 8
  20286348.573    20286350.381   -10420061.362 8 -17073710.707 8
 89 11 16 12 50 29.0800000  0  4G13G 6G11G 9
  20968425.414    20968426.295   -22377975.883 9 -10281167.258 9
  21515879.279    21515880.582     7487723.768 9  -3176877.272 9
  20985598.155    20985599.887    -3136269.457 9  -1608142.529 9
  20285068.049    20285066.785   -10426795.728 7 -17078958.273 7
 89 11 16 12 50 59.0800000  0  4G13G 6G11G 9
  20959191.690    20959192.113   -22426497.859 9 -10318976.565 8
  21530066.341    21530067.486     7562274.500 9  -3118785.780 9
  20993728.398    20993729.014    -3093547.278 9  -1574852.522 8
  20283899.090    20283899.268   -10432936.139 8 -17083743.032 8
 89 11 16 12 51 29.0800000  0  4G13G 6G11G 9
  20950047.243    20950049.740   -22474549.524 9 -10356419.433 8
  21544344.380    21544346.004     7637307.622 9  -3060318.410 9
  21001926.544    21001927.356    -3050466.204 9  -1541282.856 8
  20282842.814    20282844.349   -10438482.563 8 -17088064.935 8
 89 11 16 12 51 59.0800000  0  4G13G 6G11G 9
  20940993.215    20940994.107   -22522129.454 9 -10393494.687 8
  21558715.014    21558716.302     7712823.172 9  -3001475.136 9
  21010191.962    21010193.777    -3007027.312 9  -1507434.373 8
  20281901.959    20281902.377   -10443432.430 7 -17091921.973 9
 89 11 16 12 52 29.0800000  0  4G13G 6G11G 9
  20932029.019    20932031.088   -22569236.385 9 -10430201.376 8
  21573176.505    21573177.722     7788820.343 9  -2942256.559 9
  21018525.824    21018527.931    -2963232.225 9  -1473308.331 8
  20281073.708    20281074.259   -10447783.970 8 -17095312.774 8
 89 11 16 12 52 59.0800000  0  4G13G 6G11G 9
  20923154.827    20923156.582   -22615871.300 9 -10466540.250 8
  21587730.262    21587731.134     7865297.138 9  -2882664.251 9
  21026927.250    21026928.345    -2919083.712 9  -1438906.909 8
  20280359.578    20280360.233   -10451536.371 8 -17098236.725 7
 89 11 16 12 53 29.0800000  0  4G13G 6G11G 9
  20914369.969    20914371.651   -22662034.082 8 -10502511.251 9
  21602373.686    21602375.618     7942251.971 9  -2822699.457 9
  21035395.459    21035396.564    -2874584.154 9  -1404231.919 9
  20279758.579    20279759.615   -10454688.791 8 -17100693.149 9
 89 11 16 12 53 59.0800000  0  4G13G 6G11G 9
  20905675.101    20905678.211   -22707724.050 9 -10538113.832 8
  21617108.675    21617109.404     8019683.913 9  -2762362.897 9
  21043929.625    21043931.391    -2829735.389 8  -1369284.848 9
  20279273.717    20279274.810   -10457239.630 8 -17102680.853 7
 89 11 16 12 54 29.0800000  0  4G13G 6G11G 9
  20897070.224    20897072.722   -22752942.144 9 -10573348.716 8
  21631933.882    21631935.629     8097590.859 9  -2701656.183 9
  21052530.047    21052531.114    -2784540.182 9  -1334067.799 9
  20278903.579    20278903.973   -10459188.010 8 -17104199.076 8
 89 11 16 12 54 59.0800000  0  4G13G 6G11G 9
  20888556.196    20888557.806   -22797687.546 9 -10608215.253 8
  21646849.247    21646849.740     8175971.748 9  -2640580.150 9
  21061196.344    21061197.744    -2739000.061 9  -1298581.973 8
  20278648.033    20278647.572   -10460532.505 9 -17105246.733 8
 89 11 16 12 55 29.0800000  0  4G13G 6G11G 9
  20880130.971    20880132.752   -22841959.948 9 -10642713.221 9
  21661854.894    21661855.580     8254825.897 9  -2579135.371 9
  21069927.780    21069929.045    -2693116.775 9  -1262828.764 8
  20278506.773    20278507.720   -10461271.151 8 -17105822.309 9
 89 11 16 12 55 59.0800000  0  4G13G 6G11G 9
  20871796.351    20871798.189   -22885759.633 9 -10676842.803 8
  21676950.340    21676950.168     8334151.001 9  -2517323.575 9
  21078723.944    21078724.373    -2646893.502 9  -1226810.608 8
  20278482.011    20278481.703   -10461403.910 8 -17105925.750 8
 89 11 16 12 56 29.0800000  0  4G13G 6G11G 9
  20863550.648    20863552.715   -22929088.411 8 -10710605.469 8
  21692133.809    21692134.622     8413943.727 9  -2455147.433 8
  21087585.030    21087584.807    -2600334.177 9  -1190530.615 8
  20278571.949    20278572.396   -10460931.337 7 -17105557.551 8
 89 11 16 12 56 59.0800000  0  4G13G 6G11G 9
  20855395.938    20855398.020   -22971944.156 9 -10743999.532 8
  21707407.073    21707408.017     8494205.250 9  -2392605.985 9
  21096508.120    21096508.749    -2553437.996 9  -1153988.137 8
  20278777.550    20278778.467   -10459849.375 8 -17104714.455 7
 89 11 16 12 57 29.0800000  0  4G13G 6G11G 9
  20847330.747    20847332.557   -23014327.171 9 -10777025.261 8
  21722769.291    21722769.778     8574933.509 9  -2329700.863 9
  21105494.092    21105496.933    -2506207.831 9  -1117185.419 8
  20279099.605    20279100.696   -10458157.906 9 -17103396.446 9
 89 11 16 12 57 59.0800000  0  4G13G 6G11G 9
  20839356.289    20839357.440   -23056238.491 9 -10809683.424 8
  21738219.554    21738221.163     8656125.664 9  -2266434.259 9
  21114545.095    21114547.018    -2458647.483 9  -1080125.402 8
  20279537.365    20279537.768   -10455857.020 9 -17101603.566 8
 89 11 16 12 58 29.0800000  0  4G13G 6G11G 9
  20831470.449    20831472.190   -23097678.128 9 -10841974.035 8
  21753757.926    21753759.361     8737780.277 9  -2202807.289 8
  21123658.378    21123660.906    -2410758.893 9  -1042809.618 8
  20280090.126    20280092.693   -10452945.403 8 -17099334.793 8
 89 11 16 12 58 59.0800000  0  4G13G 6G11G 9
  20823674.169    20823675.192   -23138646.173 9 -10873897.161 7
  21769383.884    21769385.314     8819895.836 9  -2138821.135 9
  21132833.363    21132835.409    -2362543.879 9  -1005239.474 9
  20280761.866    20280761.998   -10449422.092 8 -17096589.368 8
 89 11 16 12 59 29.0800000  0  4G13G 6G11G 9
  20815968.095    20815968.891   -23179140.855 9 -10905451.430 8
  21785097.814    21785098.873     8902472.504 9  -2074475.674 9
  21142070.556    21142072.250    -2314002.828 9   -967415.264 9
  20281549.559    20281549.560   -10445284.379 7 -17093365.156 8
 89 11 16 12 59 59.0800000  0  4G13G 6G11G 9
  20808351.540    20808353.737   -23219163.981 9 -10936638.246 8
  21800898.159    21800899.160     8985507.282 9  -2009773.236 8
  21151368.068    21151370.605    -2265139.989 8   -929340.331 8
  20282454.398    20282454.401   -10440532.695 8 -17089662.548 8
 89 11 16 13  0 29.0800000  0  4G13G 6G11G 9
  20800825.275    20800826.270   -23258716.019 9 -10967458.001 8
  21816786.790    21816787.169     9068997.615 9  -1944715.836 8
  21160727.593    21160729.164    -2215958.209 9   -891016.864 9
  20283473.538    20283475.318   -10435167.279 8 -17085481.727 8
 89 11 16 13  0 59.0800000  0  4G13G 6G11G 9
  20793387.326    20793390.609   -23297797.032 9 -10997910.747 7
  21832759.990    21832761.513     9152942.578 9  -1879304.173 9
  21170146.725    21170148.208    -2166458.936 8   -852445.998 9
  20284611.996    20284613.530   -10429186.294 8 -17080821.255 8
 89 11 16 13  1 29.0800000  0  4G13G 6G11G 9
  20786042.258    20786042.152   -23336405.675 9 -11027995.424 8
  21848821.191    21848821.420     9237341.190 9  -1813539.033 9
  21179626.561    21179628.157    -2116643.717 9   -813628.970 8
  20285867.793    20285867.862   -10422588.150 8 -17075679.884 8
 89 11 16 13  1 59.0800000  0  4G13G 6G11G 9
  20778783.791    20778785.243   -23374544.095 9 -11057713.668 8
  21864967.124    21864967.834     9322190.187 9  -1747422.934 9
  21189164.787    21189167.658    -2066516.308 9   -774568.644 9
  20287241.676    20287241.634   -10415373.595 8 -17070058.144 8
 89 11 16 13  2 29.0800000  0  4G13G 6G11G 9
  20771615.686    20771616.594   -23412212.406 9 -11087065.601 8
  21881198.791    21881199.662     9407487.966 9  -1680957.131 8
  21198763.438    21198766.314    -2016078.818 8   -735266.703 8
  20288731.180    20288732.200   -10407541.530 8 -17063955.243 8
 89 11 16 13  2 59.0800000  0  4G13G 6G11G 9
  20764537.241    20764538.409   -23449409.743 9 -11116050.559 8
  21897515.854    21897516.827     9493233.884 9  -1614142.141 9
  21208419.539    21208421.779    -1965332.360 9   -695724.004 8
  20290339.730    20290340.830   -10399090.447 7 -17057369.992 8
 89 11 16 13  3 29.0800000  0  4G13G 6G11G 9
  20757548.430    20757549.770   -23486137.040 9 -11144669.225 8
  21913917.863    21913918.723     9579425.847 9  -1546979.582 9
  21218134.777    21218136.513    -1914279.611 9   -655942.645 9
  20292065.479    20292065.771   -10390019.783 9 -17050301.972 8
 89 11 16 13  3 59.0800000  0  4G13G 6G11G 9
  20750648.593    20750650.360   -23522394.589 9 -11172921.860 8
  21930404.285    21930404.226     9666061.675 9  -1479471.148 9
  21227908.157    21227909.423    -1862923.180 9   -615924.647 9
  20293908.315    20293911.024   -10380329.132 8 -17042750.826 8
 89 11 16 13  4 29.0800000  0  4G13G 6G11G 9
  20743838.647    20743840.182   -23558182.296 9 -11200808.372 8
  21946973.941    21946974.670     9753139.627 9  -1411618.208 8
  21237738.400    21237739.391    -1811265.340 9   -575671.773 9
  20295871.861    20295873.113   -10370017.910 7 -17034716.126 8
 89 11 16 13  4 59.0800000  0  4G13G 6G11G 9
  20737117.017    20737119.070   -23593501.433 9 -11228329.742 8
  21963628.207    21963628.766     9840657.312 9  -1343422.635 9
  21247625.721    21247627.016    -1759308.634 9   -535186.025 9
  20297952.058    20297953.460   -10359086.028 8 -17026197.791 9
 89 11 16 13  5 29.0800000  0  4G13G 6G11G 9
  20730485.676    20730486.901   -23628352.110 9 -11255486.113 8
  21980366.025    21980366.728     9928613.219 9  -1274885.574 9
  21257568.942    21257570.604    -1707055.117 9   -494468.994 8
  20300149.994    20300152.423   -10347532.639 7 -17017195.178 8
 89 11 16 13  5 59.0800000  0  4G13G 6G11G 9
  20723944.271    20723944.106   -23662733.521 9 -11282276.806 9
  21997186.723    21997187.911    10017006.984 9  -1206007.328 9
  21267568.819    21267570.195    -1654505.598 9   -453521.320 8
  20302468.335    20302469.713   -10335355.378 7 -17007706.406 8
 89 11 16 13  6 29.0800000  0  4G13G 6G11G 9
  20717490.137    20717491.803   -23696646.418 9 -11308702.439 8
  22014090.099    22014091.007    10105835.996 9  -1136789.923 9
  21277624.367    21277626.599    -1601662.980 9   -412345.269 8
  20304903.883    20304905.517   -10322554.443 8 -16997731.688 7
 89 11 16 13  6 59.0800000  0  4G13G 6G11G 9
  20711125.263    20711127.559   -23730092.242 8 -11334764.110 8
  22031076.954    22031076.960    10195096.989 9  -1067235.922 9
  21287734.870    21287736.415    -1548531.247 9   -370943.924 9
  20307458.096    20307458.369   -10309130.979 7 -16987271.871 8
 89 11 16 13  7 29.0800000  0  4G13G 6G11G 9
  20704849.079    20704851.261   -23763071.218 9 -11360462.011 8
  22048144.148    22048144.871    10284788.537 9   -997346.422 9
  21297900.456    21297902.040    -1495112.068 9   -329318.599 9
  20310130.910    20310131.197   -10295083.528 7 -16976325.862 8
 89 11 16 13  7 59.0800000  0  4G13G 6G11G 9
  20698662.612    20698664.421   -23795582.539 9 -11385795.502 7
  22065293.306    22065295.566    10374910.391 9   -927121.602 9
  21308120.597    21308121.927    -1441405.865 9   -287469.613 9
  20312923.448    20312924.320   -10280410.255 8 -16964892.192 8
 89 11 16 13  8 29.0800000  0  4G13G 6G11G 9
  20692564.634    20692565.758   -23827628.455 9 -11410766.350 9
  22082523.739    22082525.436    10465458.424 9   -856564.699 9
  21318394.814    21318394.306    -1387417.107 9   -245400.464 8
  20315834.716    20315836.322   -10265113.210 8 -16952972.475 9
 89 11 16 13  8 59.0800000  0  4G13G 6G11G 9
  20686554.727    20686556.123   -23859208.394 9 -11435374.082 8
  22099835.193    22099836.645    10556431.369 9   -785676.710 9
  21328721.357    21328722.951    -1333147.275 9   -203112.287 8
  20318864.023    20318865.888   -10249190.720 8 -16940565.394 8
 89 11 16 13  9 29.0800000  0  4G13G 6G11G 9
  20680634.484    20680634.807   -23890322.385 9 -11459618.730 8
  22117228.199    22117228.737    10647828.179 9   -714458.415 9
  21339102.325    21339103.888    -1278597.835 9   -160606.251 9
  20322014.437    20322014.644   -10232641.516 9 -16927669.938 9
 89 11 16 13  9 59.0800000  0  4G13G 6G11G 9
  20674801.971    20674802.866   -23920971.558 9 -11483501.187 8
  22134700.323    22134700.832    10739646.150 9   -642911.961 9
  21349534.961    21349536.628    -1223771.691 9   -117884.595 9
  20325282.211    20325282.609   -10215466.188 7 -16914286.572 8
 89 11 16 13 10 29.0800000  0  4G13G 6G11G 9
  20669057.729    20669059.124   -23951156.202 9 -11507021.677 8
  22152252.141    22152252.734    10831883.741 9   -571038.522 9
  21360019.960    21360021.746    -1168670.627 9    -74948.737 8
  20328669.893    20328669.567   -10197663.845 8 -16900414.604 8
 89 11 16 13 10 59.0800000  0  4G13G 6G11G 9
  20663402.004    20663403.327   -23980878.065 9 -11530181.550 8
  22169883.790    22169885.108    10924537.367 9   -498840.893 9
  21370557.552    21370558.408    -1113298.296 9    -31801.487 8
  20332176.255    20332178.109   -10179235.543 8 -16886054.898 8
 89 11 16 13 11 29.0800000  0  4G13G 6G11G 9
  20657834.626    20657834.990   -24010137.077 9 -11552980.730 8
  22187594.176    22187595.170    11017605.491 9   -426320.271 9
  21381145.431    21381146.341    -1057656.673 9     11555.633 8
  20335803.188    20335803.893   -10160180.720 9 -16871206.954 8
 89 11 16 13 11 59.0800000  0  4G13G 6G11G 9
  20652354.503    20652356.399   -24038933.165 9 -11575419.218 8
  22205383.232    22205384.421    11111086.962 9   -353477.561 8
  21391784.724    21391785.719    -1001747.244 8     55121.422 8
  20339548.510    20339549.071   -10140498.153 7 -16855869.891 9
 89 11 16 13 12 29.0800000  0  4G13G 6G11G 9
  20646963.572    20646963.978   -24067266.975 9 -11597497.486 9
  22223250.040    22223251.764    11204979.695 9   -280314.415 9
  21402474.615    21402475.409     -945572.024 9     98894.311 9
  20343412.918    20343413.698   -10120187.757 8 -16840043.608 9
 89 11 16 13 12 59.0800000  0  4G13G 6G11G 9
  20641659.753    20641659.960   -24095139.875 9 -11619216.635 8
  22241194.888    22241196.913    11299280.441 9   -206833.322 9
  21413214.829    21413215.519     -889134.635 9    142871.483 8
  20347397.560    20347399.835   -10099250.260 7 -16823728.657 8
 89 11 16 13 13 29.0800000  0  4G13G 6G11G 9
  20636442.577    20636444.629   -24122551.886 9 -11640576.626 8
  22259217.257    22259218.945    11393988.448 9   -133034.895 9
  21424003.530    21424004.707     -832435.978 9    187052.258 8
  20351501.885    20351501.336   -10077684.204 8 -16806923.951 9
 89 11 16 13 13 59.0800000  0  4G13G 6G11G 9
  20631313.676    20631315.327   -24149503.675 9 -11661578.007 8
  22277317.232    22277318.241    11489101.140 9    -58921.122 9
  21434842.270    21434843.359     -775478.640 9    231434.582 9
  20355724.238    20355725.406   -10055489.871 8 -16789629.670 9
 89 11 16 13 14 29.0800000  0  4G13G 6G11G 9
  20626272.673    20626273.798   -24175996.130 9 -11682221.480 8
  22295493.017    22295494.183    11584616.238 9     15506.214 9
  21445729.292    21445731.608     -718265.084 9    276016.560 9
  20360067.739    20360068.591   -10032667.590 9 -16771846.085 8
 89 11 16 13 14 59.0800000  0  4G13G 6G11G 9
  20621319.416    20621321.010   -24202029.570 9 -11702507.253 8
  22313744.676    22313745.594    11680532.144 9     90245.856 9
  21456665.514    21456666.107     -660796.714 9    320797.096 8
  20364529.931    20364530.302   -10009216.493 8 -16753572.513 9
 89 11 16 13 15 29.0800000  0  4G13G 6G11G 9
  20616451.855    20616452.965   -24227604.469 9 -11722435.737 9
  22332073.698    22332073.899    11776846.421 9    165295.921 9
  21467649.144    21467650.730     -603076.352 9    365773.970 8
  20369111.368    20369114.225    -9985136.784 9 -16734809.130 8
 89 11 16 13 15 59.0800000  0  4G13G 6G11G 9
  20611671.883    20611672.748   -24252722.713 9 -11742008.366 7
  22350476.728    22350476.641    11873555.846 9    240653.908 9
  21478681.065    21478681.990     -545107.076 9    410944.847 9
  20373814.189    20373815.168    -9960429.508 8 -16715556.698 7
 89 11 16 13 16 29.0800000  0  4G13G 6G11G 9
  20606978.638    20606979.848   -24277385.602 9 -11761226.200 7
  22368954.772    22368954.587    11970658.480 9    316318.285 8
  21489759.160    21489760.439     -486891.023 9    456307.991 9
  20378636.342    20378635.778    -9935094.680 9 -16695815.315 9
 89 11 16 13 16 59.0800000  0  4G13G 6G11G 9
  20602372.365    20602373.202   -24301590.880 9 -11780087.470 8
  22387507.275    22387507.949    12068154.015 9    392288.799 9
  21500884.173    21500885.201     -428428.769 9    501862.968 8
  20383576.365    20383578.018    -9909130.149 8 -16675583.298 8
 89 11 16 13 17 29.0800000  0  4G13G 6G11G 9
  20597852.891    20597854.730   -24325341.163 9 -11798594.176 8
  22406133.821    22406135.261    12166039.095 9    468562.878 9
  21512054.726    21512056.414     -369723.404 9    547607.402 9
  20388636.690    20388637.206    -9882537.338 8 -16654861.667 8
 89 11 16 13 17 59.0800000  0  4G13G 6G11G 9
  20593419.415    20593420.338   -24348638.170 9 -11816747.684 7
  22424834.562    22424834.969    12264310.480 9    545137.958 9
  21523271.522    21523273.946     -310778.284 9    593538.658 9
  20393816.802    20393816.666    -9855317.001 8 -16633651.042 8
 89 11 16 13 18 29.0800000  0  4G13G 6G11G 9
  20589072.524    20589074.063   -24371480.754 9 -11834547.083 8
  22443608.857    22443608.307    12362967.193 9    622013.311 9
  21534534.414    21534535.697     -251594.109 9    639656.188 9
  20399115.645    20399116.130    -9827468.373 9 -16611950.836 8
 89 11 16 13 18 59.0800000  0  4G13G 6G11G 9
  20584811.832    20584813.213   -24393870.625 9 -11851993.729 9
  22462454.970    22462454.857    12462006.946 9    699187.116 9
  21545841.759    21545842.521     -192173.212 9    685958.175 9
  20404535.821    20404535.132    -9798991.129 8 -16589760.790 9
 89 11 16 13 19 29.0800000  0  4G13G 6G11G 9
  20580637.424    20580638.102   -24415808.455 9 -11869088.118 8
  22481374.162    22481374.875    12561427.531 9    776657.698 9
  21557194.059    21557195.072     -132517.962 9    732442.785 8
  20410073.300    20410074.421    -9769885.886 8 -16567081.410 8
 89 11 16 13 19 59.0800000  0  4G13G 6G11G 9
  20576548.527    20576550.138   -24437295.410 9 -11885831.194 8
  22500365.726    22500365.956    12661225.842 9    854422.595 8
  21568590.166    21568590.077      -72631.450 9    779107.593 9
  20415731.794    20415731.591    -9740153.454 8 -16543913.287 7
 89 11 16 13 20 29.0800000  0  4G13G 6G 3G 9
  20572545.925    20572546.402   -24458331.860 9 -11902223.224 8
  22519427.869    22519429.292    12761400.195 9    932480.516 9
                  23951369.204   -51935787.955 9
  20421508.740    20421509.005    -9709793.270 7 -16520256.029 8
 89 11 16 13 20 59.0800000  0  4G13G 6G 3G 9
  20568628.076    20568629.954   -24478918.860 9 -11918265.036 8
  22538562.119    22538562.110    12861948.568 9   1010829.872 9
  23934958.779    23934960.712   -52022111.465 9  65983678.385 7
  20427405.526    20427407.306    -9678805.537 8 -16496109.745 8
 89 11 16 13 21 29.0800000  0  4G13G 6G 3G 9
  20564795.194    20564797.920   -24499058.734 9 -11933958.425 9
  22557765.463    22557766.893    12962867.111 9   1089467.686 9
  23918578.047    23918578.150   -52108196.246 9  65916599.344 8
  20433420.852    20433421.861    -9647192.127 7 -16471475.908 7
 89 11 16 13 21 59.0800000  0  4G13G 6G 3G 9
  20561048.057    20561050.114   -24518751.088 9 -11949303.090 8
  22577040.172    22577041.451    13064154.310 9   1168392.742 9
  23902242.216    23902244.072   -52194040.466 9  65849707.741 9
  20439555.744    20439557.582    -9614952.380 8 -16446354.015 8
 89 11 16 13 22 29.0800000  0  4G13G 6G 3G 9
  20557386.428    20557386.798   -24537995.353 8 -11964298.613 9
  22596384.582    22596384.961    13165809.745 9   1247604.747 9
  23885952.873    23885953.814   -52279641.472 9  65783005.661 8
  20445810.032    20445811.372    -9582084.846 8 -16420742.958 7
 89 11 16 13 22 59.0800000  0  4G13G 6G 3G 9
  20553808.553    20553810.486   -24556794.548 9 -11978947.329 8
  22615798.612    22615798.484    13267829.053 9   1327100.274 8
  23869709.215    23869711.331   -52365000.517 9  65716492.132 9
  20452184.601    20452185.642    -9548591.782 8 -16394644.443 8
 89 11 16 13 23 29.0800000  0  4G13G 6G 3G 9
  20550315.789    20550316.200   -24575149.802 9 -11993250.130 8
  22635280.704    22635280.984    13370209.355 9   1406877.110 9
  23853512.240    23853513.301   -52450117.266 9  65650167.395 8
  20458676.766    20458677.448    -9514474.120 8 -16368059.263 7
 89 11 16 13 23 59.0800000  0  4G13G 6G 3G 9
  20546906.201    20546909.220   -24593061.939 9 -12007207.650 8
  22654830.552    22654832.017    13472948.611 9   1486933.643 9
  23837362.459    23837363.141   -52534990.410 9  65584032.490 8
  20465287.898    20465289.679    -9479731.889 8 -16340987.373 9
 89 11 16 13 24 29.0800000  0  4G13G 6G 3G 9
  20543583.117    20543584.959   -24610529.799 9 -12020818.964 8
  22674449.668    22674451.578    13576045.966 9   1567269.192 9
  23821257.578    23821258.489   -52619617.782 9  65518089.077 8
  20472018.423    20472018.977    -9444364.148 9 -16313428.085 8
 89 11 16 13 24 59.0800000  0  4G13G 6G 3G 9
  20540343.008    20540345.186   -24627555.186 9 -12034085.498 8
  22694135.374    22694137.699    13679498.962 9   1647881.880 9
  23805200.988    23805201.160   -52703998.711 9  65452337.714 9
  20478867.146    20478868.055    -9408371.370 8 -16285381.765 8
 89 11 16 13 25 29.0800000  0  4G13G 6G 3G 9
  20537187.265    20537188.569   -24644140.278 9 -12047008.951 8
  22713889.849    22713890.644    13783303.830 9   1728768.758 9
  23789189.614    23789191.153   -52788133.671 9  65386778.014 9
  20485835.347    20485836.598    -9371755.363 9 -16256849.821 7
 89 11 16 13 25 59.0800000  0  4G13G 6G 3G 9
  20534113.835    20534116.595   -24660286.174 9 -12059590.158 8
  22733709.811    22733710.777    13887458.669 9   1809928.352 9
  23773226.528    23773228.714   -52872021.424 9  65321410.931 9
  20492921.257    20492922.910    -9334516.327 8 -16227832.427 8
 89 11 16 13 26 29.0800000  0  4G13G 6G 3G 9
  20531125.825    20531127.052   -24675993.266 9 -12071829.454 8
  22753595.815    22753595.946    13991960.835 9   1891358.587 9
  23757310.981    23757311.770   -52955661.456 9  65256236.893 9
  20500125.933    20500127.228    -9296654.951 8 -16198330.046 8
 89 11 16 13 26 59.0800000  0  4G13G 6G 3G 9
  20528220.253    20528221.921   -24691262.157 9 -12083727.306 9
  22773547.309    22773548.315    14096808.592 9   1973058.120 9
  23741441.371    23741442.577   -53039052.262 9  65191257.054 9
  20507449.518    20507450.227    -9258171.257 8 -16168342.757 8
 89 11 16 13 27 29.0800000  0  4G13G 6G 3G 9
  20525397.777    20525400.024   -24706093.900 9 -12095284.515 8
  22793565.044    22793565.101    14201999.736 9   2055025.213 9
  23725620.595    23725621.987   -53122192.846 8  65126472.188 9
  20514891.469    20514891.964    -9219065.218 8 -16137870.519 8
 89 11 16 13 27 59.0800000  0  4G13G 6G 3G 9
  20522658.548    20522659.845   -24720490.760 9 -12106502.839 8
  22813646.534    22813648.222    14307530.833 9   2137257.211 9
  23709847.018    23709848.887   -53205083.536 9  65061882.038 9
  20522451.329    20522450.808    -9179338.651 9 -16106914.754 8
 89 11 16 13 28 29.0800000  0  4G13G 6G 3G 9
  20520001.533    20520001.718   -24734453.346 9 -12117382.760 7
  22833792.902    22833793.968    14413399.183 9   2219751.987 9
  23694120.773    23694122.144   -53287723.633 9  64997487.176 9
  20530129.067    20530129.990    -9138992.509 8 -16075476.225 9
 89 11 16 13 28 59.0800000  0  4G13G 6G 3G 9
  20517426.319    20517428.102   -24747982.927 8 -12127925.277 8
  22854002.796    22854003.834    14519602.543 9   2302507.820 9
  23678442.477    23678444.380   -53370112.349 8  64933288.200 8
  20537924.425    20537925.709    -9098027.278 9 -16043555.255 8
 89 11 16 13 29 29.0800000  0  4G13G 6G 3G 9
  20514934.861    20514934.550   -24761079.806 8 -12138130.622 8
  22874275.736    22874276.566    14626138.717 9   2385522.991 9
  23662812.757    23662814.659   -53452248.806 9  64869285.776 9
  20545837.437    20545838.044    -9056443.107 9 -16011152.011 8
 89 11 16 13 29 59.0800000  0  4G13G 6G 3G 9
  20512524.039    20512525.004   -24773744.277 9 -12147999.036 8
  22894611.703    22894612.932    14733006.489 9   2468796.540 9
  23647230.824    23647232.398   -53534130.916 8  64805481.549 9
  20553868.754    20553866.815    -9014239.962 8 -15978266.441 9
 89 11 16 13 30 29.0800000  0  4G13G 6G 3G 9
  20510195.270    20510197.925   -24785980.096 9 -12157533.439 8
  22915011.042    22915011.372    14840200.561 9   2552324.351 9
  23631698.444    23631698.474   -53615760.817 8  64741873.847 9
  20562017.207    20562016.786    -8971421.017 8 -15944901.049 8
 89 11 16 13 30 59.0800000  0  4G13G 6G 3G 9
  20507948.436    20507950.342   -24797787.871 9 -12166734.286 9
  22935470.811    22935471.733    14947719.032 9   2636104.932 9
  23616210.876    23616214.253   -53697137.109 9  64678463.769 9
  20570283.338    20570282.417    -8927986.517 9 -15911055.993 7
 89 11 16 13 31 29.0800000  0  4G13G 6G 3G 9
  20505783.034    20505784.353   -24809166.709 9 -12175600.892 8
  22955992.846    22955993.519    15055561.972 9   2720138.354 9
  23600775.311    23600777.099   -53778256.678 8  64615253.722 9
  20578664.774    20578665.023    -8883934.827 8 -15876730.015 8
 89 11 16 13 31 59.0800000  0  4G13G 6G 3G 9
  20503699.919    20503700.912   -24820119.300 8 -12184135.361 7
  22976575.794    22976577.033    15163725.035 9   2804421.209 9
  23585388.314    23585389.551   -53859120.652 8  64552242.853 9
  20587164.402    20587166.186    -8839268.545 9 -15841925.140 8
 89 11 16 13 32 29.0800000  0  4G13G 6G 3G 9
  20501695.883    20501696.497   -24830646.834 9 -12192338.624 8
  22997218.971    22997219.872    15272205.681 9   2888951.543 9
  23570048.623    23570049.782   -53939728.086 9  64489431.872 9
  20595779.766    20595780.804    -8793988.494 8 -15806641.991 8
 89 11 16 13 33 29.0800000  0  4G13G 6G 3G 9
  20497932.020    20497932.755   -24919710.061 9 -12207754.138 8
  23038685.914    23038686.315    15317016.840 6   3058746.913 6
  23539517.569    23539517.975   -54122978.504 9  64364411.043 8
  20613363.896    20613363.383    -8753142.674 9 -15734643.742 8
 89 11 16 13 33 59.0800000  0  4G13G 6G 3G 9
  20496170.053    20496170.624   -24928968.570 9 -12214968.529 8
  23059506.846    23059507.673    15426435.070 9   3144007.844 9
  23524325.900    23524325.310   -54202813.383 9  64302202.067 9
  20622330.073    20622330.132    -8706026.859 8 -15697930.107 8
 89 11 16 13 34 29.0800000  0  4G13G 6G 3G 9
  20494488.664    20494488.420   -24937806.757 9 -12221855.436 8
  23080386.545    23080387.154    15536160.318 9   3229507.986 9
  23509182.760    23509183.522   -54282389.815 9  64240194.457 9
  20631412.175    20631411.619    -8658301.356 9 -15660741.434 9
 89 11 16 13 34 59.0800000  0  4G13G 6G 3G 9
  20492886.004    20492887.863   -24946226.069 9 -12228415.957 8
  23101323.622    23101324.800    15646190.431 9   3315245.672 9
  23494088.973    23494089.785   -54361706.953 9  64178388.880 9
  20640608.588    20640611.513    -8609966.964 9 -15623078.306 7
 89 11 16 13 35 29.0800000  0  4G13G 6G 3G 9
  20491363.362    20491363.935   -24954226.320 9 -12234649.935 8
  23122319.557    23122321.778    15756524.097 9   3401219.889 9
  23479045.132    23479045.606   -54440762.911 9  64116786.837 8
  20649922.752    20649923.901    -8561023.235 9 -15584940.361 8
 89 11 16 13 35 59.0800000  0  4G13G 6G 3G 9
  20489920.020    20489921.321   -24961811.137 9 -12240560.167 8
  23143373.568    23143373.748    15867156.316 9   3487426.761 8
  23464051.342    23464050.659   -54519559.332 9  64055387.035 9
  20659351.582    20659352.105    -8511473.823 9 -15546330.449 9
 89 11 16 13 36 29.0800000  0  4G13G 6G 3G 9
  20488554.608    20488555.794   -24968980.869 8 -12246146.964 8
  23164481.611    23164483.438    15978085.165 9   3573864.770 9
  23449106.336    23449106.417   -54598095.043 9  63994190.386 9
  20668896.533    20668896.778    -8461318.832 8 -15507248.654 8
 89 11 16 13 36 59.0800000  0  4G13G 6G 3G 9
  20487270.442    20487271.771   -24975734.843 9 -12251409.799 8
  23185647.288    23185648.846    16089309.788 9   3660533.256 9
  23434210.658    23434211.930   -54676367.644 9  63933198.752 8
  20678556.216    20678554.782    -8410557.857 9 -15467694.641 9
 89 11 16 13 37 29.0800000  0  4G13G 6G 3G 9
  20486063.832    20486064.562   -24982076.527 9 -12256351.382 7
  23206868.424    23206868.720    16200825.911 9   3747428.888 9
  23419365.836    23419366.847   -54754378.187 9  63872411.311 8
  20688330.261    20688330.703    -8359193.556 8 -15427670.530 8
 89 11 16 13 37 59.0800000  0  4G13G 6G 3G 9
  20484935.866    20484936.552   -24988007.085 9 -12260972.586 9
  23228144.358    23228145.356    16312631.232 8   3834549.860 8
  23404570.667    23404571.923   -54832126.246 9  63811828.411 9
  20698218.355    20698220.318    -8307226.940 9 -15387177.069 8
 89 11 16 13 38 29.0800000  0  4G13G 6G 3G 9
  20483884.425    20483886.270   -24993526.814 9 -12265273.667 7
  23249474.380    23249475.578    16424723.497 9   3921894.433 9
  23389826.753    23389826.400   -54909610.568 9  63751451.048 9
  20708221.777    20708223.234    -8254658.813 9 -15346214.897 8
 89 11 16 13 38 59.0800000  0  4G13G 6G 3G 9
  20482912.514    20482913.929   -24998638.527 9 -12269256.823 8
  23270858.883    23270860.128    16537099.272 9   4009459.919 9
  23375131.334    23375132.225   -54986831.457 9  63691278.915 8
  20718340.090    20718339.650    -8201491.093 9 -15304785.506 9
 89 11 16 13 39 29.0800000  0  4G13G 6G 3G 9
  20482017.416    20482018.575   -25003343.064 8 -12272922.716 8
  23292296.832    23292297.359    16649756.283 9   4097244.540 9
  23360486.983    23360488.410   -55063788.109 8  63631312.694 9
  20728570.897    20728572.187    -8147724.552 9 -15262889.519 9
 89 11 16 13 39 59.0800000  0  4G13G 6G 3G 9
  20481198.957    20481200.116   -25007641.782 9 -12276272.350 8
  23313788.221    23313789.205    16762691.412 9   4185245.896 9
  23345893.174    23345895.724   -55140480.642 9  63571552.296 9
  20738916.014    20738916.039    -8093361.189 9 -15220528.465 9
 89 11 16 13 40 29.0800000  0  4G13G 6G 3G 9
  20480457.624    20480458.898   -25011534.823 8 -12279305.892 8
  23335330.856    23335332.119    16875903.320 9   4273462.902 9
  23331348.902    23331351.410   -55216906.842 9  63511999.430 8
  20749375.205    20749375.127    -8038400.633 9 -15177702.074 8
 89 11 16 13 40 59.0800000  0  4G13G 6G 3G 9
  20479794.364    20479795.607   -25015024.628 9 -12282025.232 8
  23356926.210    23356928.073    16989388.437 9   4361892.788 9
  23316855.992    23316857.450   -55293067.529 8  63452653.440 9
  20759946.558    20759948.232    -7982845.330 9 -15134412.269 9
 89 11 16 13 41 29.0800000  0  4G13G 6G 3G 9
  20479206.971    20479207.413   -25018112.895 8 -12284431.666 8
  23378573.452    23378575.116    17103144.073 9   4450533.483 9
  23302413.374    23302415.731   -55368962.233 9  63393514.728 8
  20770630.436    20770632.079    -7926696.716 9 -15090660.127 8
 89 11 16 13 41 59.0800000  0  4G13G 6G 3G 9
  20478695.415    20478695.761   -25020800.886 9 -12286526.196 8
  23400271.259    23400272.982    17217167.471 9   4539382.820 9
  23288023.841    23288024.138   -55444590.439 8  63334583.683 9
  20781427.666    20781429.170    -7869956.225 9 -15046446.778 9
 89 11 16 13 42 29.0800000  0  4G13G 6G 3G 9
  20478259.442    20478260.944   -25023089.704 9 -12288309.682 8
  23422020.493    23422021.730    17331456.264 9   4628438.947 9
  23273682.575    23273683.952   -55519951.364 8  63275860.897 9
  20792337.889    20792339.866    -7812624.997 8 -15001773.110 8
 89 11 16 13 42 59.0800000  0  4G13G 6G 3G 9
  20477899.192    20477901.552   -25024980.415 9 -12289782.978 9
  23443818.500    23443820.261    17446007.668 9   4717699.708 9
  23259392.334    23259393.955   -55595044.815 9  63217346.517 9
  20803361.148    20803361.600    -7754704.111 9 -14956639.980 8
 89 11 16 13 43 29.0800000  0  4G13G 6G 3G 9
  20477614.924    20477615.310   -25026475.100 8 -12290947.649 8
  23465666.181    23465666.844    17560818.816 9   4807162.849 9
  23245152.927    23245154.220   -55669870.620 8  63159040.707 9
  20814494.755    20814495.314    -7696195.489 8 -14911048.861 8
 89 11 16 13 43 59.0800000  0  4G13G 6G 3G 9
  20477406.122    20477407.381   -25027574.654 9 -12291804.450 8
  23487563.748    23487564.718    17675887.171 9   4896826.448 9
  23230966.199    23230967.189   -55744427.805 9  63100944.213 9
  20825740.677    20825740.689    -7637100.184 9 -14865000.571 9
 89 11 16 13 44 29.0800000  0  4G13G 6G 3G 9
  20477270.641    20477273.532   -25028280.958 9 -12292354.812 8
  23509508.214    23509509.964    17791210.022 9   4986688.299 9
  23216829.352    23216830.129   -55818716.407 9  63043056.986 8
  20837096.318    20837097.072    -7577420.066 9 -14818496.615 9
 89 11 16 13 44 59.0800000  0  4G13G 6G 3G 9
  20477211.543    20477212.373   -25028595.520 9 -12292599.915 8
  23531501.849    23531503.361    17906784.492 9   5076746.250 9
  23202743.183    23202745.461   -55892735.832 9  62985379.527 9
  20848563.377    20848564.682    -7517156.595 9 -14771538.078 9
 89 11 16 13 45 29.0800000  0  4G13G 6G 3G 9
  20477225.535    20477227.497   -25028519.096 9 -12292540.358 8
  23553541.589    23553544.153    18022608.337 9   5166998.520 8
  23188709.722    23188710.712   -55966485.366 9  62927912.354 9
  20860142.282    20860143.389    -7456310.944 9 -14724125.896 9
 89 11 16 13 45 59.0800000  0  4G13G 6G 3G 9
  20477313.593    20477315.911   -25028054.497 9 -12292178.358 7
  23575628.924    23575630.352    18138677.688 9   5257442.067 9
  23174727.005    23174727.710   -56039965.677 9  62870654.970 8
  20871831.695    20871832.255    -7394885.649 8 -14676262.070 8
 89 11 16 13 46 29.0800000  0  4G13G 6G 3G 9
  20477475.543    20477477.674   -25027202.820 9 -12291514.671 8
  23597763.130    23597764.600    18254990.651 9   5348075.476 9
  23160795.096    23160796.000   -56113175.906 9  62813608.058 9
  20883630.471    20883632.010    -7332881.529 9 -14627947.172 9
 89 11 16 13 46 59.0800000  0  4G13G 6G 3G 9
  20477711.444    20477713.749   -25025964.579 9 -12290549.788 8
  23619943.990    23619944.490    18371544.961 9   5438896.938 9
  23146915.651    23146915.706   -56186115.105 9  62756772.334 9
  20895540.139    20895540.497    -7270299.825 9 -14579182.212 8
 89 11 16 13 47 29.0800000  0  4G13G 6G 3G 9
  20478021.036    20478022.838   -25024340.611 9 -12289284.350 9
  23642168.683    23642169.860    18488338.159 9   5529904.540 9
  23133087.411    23133087.988   -56258782.494 9  62700148.395 9
  20907558.295    20907558.134    -7207141.910 9 -14529968.279 8
 89 11 16 13 47 59.0800000  0  4G13G 6G 3G 9
  20478402.318    20478404.663   -25022333.650 9 -12287720.508 8
  23664437.898    23664440.035    18605366.540 9   5621095.365 9
  23119310.455    23119312.647   -56331178.720 9  62643735.725 9
  20919686.170    20919686.513    -7143410.357 9 -14480307.371 8
 89 11 16 13 48 29.0800000  0  4G13G 6G 3G 9
  20478857.893    20478859.337   -25019945.674 9 -12285859.703 8
  23686751.815    23686753.602    18722627.088 9   5712467.178 9
                  23105585.835   -56403303.849 9
  20931922.513    20931922.067    -7079106.993 9 -14430200.835 9
 89 11 16 13 48 59.0800000  0  4G13G 6G 3G 9
  20479384.068    20479384.584   -25017178.539 9 -12283703.500 8
  23709109.543    23709110.759    18840116.271 9   5804017.079 9
  23091913.029    23091913.388   -56475158.250 9  62589118.927 9
  20944267.720    20944267.814    -7014234.490 9 -14379650.850 9
 89 11 16 13 49 29.0800000  0  4G13G 6G 3G 9
  20479982.679    20479984.810   -25014032.182 9 -12281251.830 8
  23731511.348    23731511.645    18957832.991 9   5895744.266 9
  23078289.773    23078291.644   -56546740.102 9  62533340.821 8
  20956721.230    20956721.986    -6948792.646 8 -14328657.258 9
 89 11 16 13 49 59.0800000  0  4G13G 6G 3G 9
  20480652.690    20480654.694   -25010508.574 8 -12278506.162 9
  23753954.206    23753956.113    19075774.203 9   5987646.402 9
  23064720.931    23064721.688   -56618049.203 9  62477775.290 8
  20969281.371    20969281.833    -6882783.607 9 -14277221.659 8
 89 11 16 13 50 29.0800000  0  4G13G 6G 3G 9
  20481394.849    20481395.393   -25006610.699 9 -12275468.833 9
  23776439.741    23776440.383    19193935.997 9   6079720.432 9
  23051203.049    23051204.491   -56689086.496 9  62422421.591 9
  20981950.708    20981950.210    -6816210.355 9 -14225346.393 8
 89 11 16 13 50 59.0800000  0  4G13G 6G 3G 9
  20482208.240    20482209.226   -25002338.586 9 -12272139.919 9
  23798966.602    23798968.852    19312317.213 9   6171965.417 9
  23037737.172    23037739.182   -56759850.213 9  62367281.037 8
  20994726.470    20994726.609    -6749072.912 9 -14173031.522 8
 89 11 16 13 51 29.0800000  0  4G13G 6G 3G 9
  20483091.489    20483092.445   -24997693.700 9 -12268520.506 9
  23821535.447    23821536.829    19430914.952 9   6264379.136 9
  23024323.122    23024324.488   -56830340.097 9  62312353.870 9
  21007609.624    21007608.472    -6681373.535 9 -14120278.765 9
 89 11 16 13 51 59.0800000  0  4G13G 6G 3G 9
  20484045.824    20484047.726   -24992679.178 9 -12264613.126 8
  23844143.819    23844145.103    19549724.488 8   6356957.858 9
  23010960.733    23010961.722   -56900557.853 8  62257638.731 9
  21020598.548    21020599.005    -6613115.951 9 -14067091.073 8
 89 11 16 13 52 29.0800000  0  4G13G 6G 3G 9
  20485070.561    20485071.347   -24987296.176 9 -12260418.598 9
  23866792.743    23866794.314    19668744.152 8   6449700.318 9
  22997651.161    22997652.913   -56970502.087 9  62203136.708 8
  21033692.842    21033693.375    -6544300.617 9 -14013468.785 9
 89 11 16 13 52 59.0800000  0  4G13G 6G 3G 9
  20486165.299    20486165.944   -24981545.033 9 -12255937.193 8
  23889481.082    23889482.726    19787971.595 9   6542604.688 9
  22984393.461    22984394.711   -57040172.165 9  62148848.342 9
  21046894.843    21046894.696    -6474929.128 9 -13959413.113 8
 89 11 16 13 53 29.0800000  0  4G13G 6G 3G 9
  20487328.234    20487330.580   -24975427.991 9 -12251170.688 8
  23912208.929    23912210.893    19907404.033 8   6635668.793 9
  22971187.696    22971188.933   -57109567.964 9  62094773.688 9
  21060200.655    21060200.884    -6405003.377 9 -13904925.546 7
 89 11 16 13 53 59.0800000  0  4G13G 6G 3G 9
  20488561.655    20488563.858   -24968946.484 9 -12246120.156 8
  23934974.975    23934976.246    20027038.421 9   6728890.271 9
  22958034.343    22958036.067   -57178689.577 8  62040912.709 9
  21073611.879    21073612.209    -6334525.483 9 -13850007.736 8
 89 11 16 13 54 29.0800000  0  4G13G 6G 3G 9
  20489864.191    20489865.752   -24962102.562 9 -12240787.235 9
  23957778.239    23957780.046    20146871.835 9   6822266.809 9
  22944933.371    22944934.420   -57247536.833 9  61987265.512 8
  21087127.696    21087129.235    -6263497.600 9 -13794661.360 8
 89 11 16 13 54 59.0800000  0  4G13G 6G 3G 9
  20491235.326    20491237.671   -24954897.335 9 -12235172.765 8
  23980618.844    23980620.808    20266901.537 8   6915796.296 9
  22931884.156    22931885.451   -57316109.471 9  61933832.278 9
  21100748.973    21100749.212    -6191921.640 8 -13738887.906 9
 89 11 16 13 55 29.0800000  0  4G13G 6G 3G 9
  20492675.459    20492676.532   -24947332.884 9 -12229278.410 8
  24003496.914    24003499.502    20387124.629 8   7009476.476 9
  22918887.518    22918888.680   -57384407.499 9  61880613.029 8
  21114472.000    21114473.743    -6119799.729 8 -13682689.047 8
 89 11 16 13 55 59.0800000  0  4G13G 6G 3G 9
  20494182.532    20494183.347   -24939410.228 9 -12223104.912 9
  24026410.710    24026412.446    20507538.388 9   7103305.247 8
  22905943.795    22905944.415   -57452430.437 9  61827608.147 9
  21128300.871    21128301.884    -6047133.748 9 -13626066.221 9
 89 11 16 13 56 29.0800000  0  4G13G 6G 3G 9
  20495757.770    20495759.388   -24931131.335 9 -12216653.845 8
  24049361.118    24049362.774    20628140.352 8   7197280.637 9
  22893051.209    22893052.225   -57520178.015 9  61774817.817 9
  21142231.597    21142232.967    -5973925.252 9 -13569020.679 9
 89 11 16 13 56 59.0800000  0  4G13G 6G 3G 9
  20497401.209    20497401.153   -24922498.701 9 -12209927.111 8
  24072345.806    24072347.928    20748926.373 9   7291399.483 9
  22880211.796    22880213.115   -57587651.208 9  61722241.303 9
  21156265.207    21156265.695    -5900177.927 9 -13511555.271 9
 89 11 16 13 57 29.0800000  0  4G13G 6G 3G 9
  20499110.390    20499112.173   -24913512.572 9 -12202924.925 8
  24095365.391    24095366.860    20869895.098 9   7385660.660 9
  22867424.836    22867425.783   -57654848.503 9  61669879.773 9
  21170401.430    21170402.978    -5825892.145 8 -13453670.265 9
 89 11 16 13 57 59.0800000  0  4G13G 6G 3G 9
  20500888.317    20500888.951   -24904174.818 9 -12195648.777 9
  24118420.052    24118421.958    20991043.255 9   7480061.654 8
  22854690.130    22854691.159   -57721770.071 9  61617733.089 8
  21184639.332    21184640.306    -5751070.359 8 -13395367.616 9
 89 11 16 13 58 29.0800000  0  4G13G 6G 3G 9
  20502731.522    20502732.366   -24894488.011 8 -12188100.595 8
  24141507.890    24141508.873    21112367.208 9   7574599.648 8
  22842007.860    22842009.208   -57788416.881 9  61565800.533 9
  21198979.632    21198979.703    -5675715.687 9 -13336649.697 9
 89 11 16 13 58 59.0800000  0  4G13G 6G 3G 9
  20504641.059    20504642.628   -24884453.117 9 -12180281.216 8
  24164627.130    24164628.470    21233864.887 9   7669272.986 9
  22829377.328    22829378.640   -57854788.037 9  61514082.747 9
  21213419.694    21213420.967    -5599829.466 9 -13277517.612 9
 89 11 16 13 59 29.0800000  0  4G13G 6G 3G 9
  20506616.226    20506618.144   -24874071.428 8 -12172191.602 8
  24187779.681    24187781.889    21355533.852 9   7764079.800 9
  22816800.191    22816801.003   -57920883.038 9  61462580.166 9
  21227961.410    21227963.040    -5523413.423 9 -13217972.685 9
 89 11 16 13 59 59.0800000  0  4G13G 6G 3G 9
  20508657.709    20508658.075   -24863345.111 9 -12163833.449 9
  24210965.752    24210966.350    21477370.637 9   7859017.354 9
  22804274.656    22804275.844   -57986702.256 9  61411292.448 9
  21242602.773    21242604.376    -5446470.380 8 -13158017.115 9
 89 11 16 14  0 29.0800000  0  4G13G12G 3G 9
  20510764.575    20510765.073   -24852275.599 8 -12155207.857 8
                  20636266.291   -66283925.806 9
  22791801.213    22791803.361   -58052245.248 9  61360219.961 9
  21257344.690    21257346.078    -5369002.137 9 -13097652.299 9
 89 11 16 14  0 59.0800000  0  4G13G12G 3G 9
  20512935.505    20512936.007   -24840865.049 9 -12146316.533 8
  20631115.376    20631117.792   -66311155.771 9  84240081.602 8
  22779382.033    22779383.185   -58117512.471 9  61309362.379 9
  21272186.325    21272186.546    -5291011.159 9 -13036880.142 9
 89 11 16 14  1 29.0800000  0  4G13G12G 3G 9
  20515171.958    20515172.314   -24829115.379 9 -12137160.939 8
  20626043.795    20626046.471   -66337802.813 9  84219317.686 9
  22767015.137    22767016.182   -58182503.886 9  61258719.733 8
  21287126.744    21287128.010    -5212499.901 8 -12975702.564 7
 89 11 16 14  1 59.0800000  0  4G13G12G 3G 9
  20517471.846    20517472.058   -24817028.252 9 -12127742.386 7
  20621085.528    20621086.902   -66363865.697 9  84199008.933 9
  22754700.026    22754700.887   -58247219.902 9  61208291.662 8
  21302165.946    21302166.462    -5133471.026 9 -12914121.673 9
 89 11 16 14  2 29.0800000  0  4G13G12G 3G 9
  20519835.200    20519836.824   -24804604.735 9 -12118061.720 8
  20616236.585    20616239.003   -66389342.394 9  84179156.950 9
  22742438.561    22742439.433   -58311659.774 9  61158078.773 9
  21317303.180    21317302.902    -5053926.169 9 -12852138.723 8
 89 11 16 14  2 59.0800000  0  4G13G12G 3G 9
  20522262.920    20522265.633   -24791846.356 9 -12108120.121 8
  20611500.941    20611502.517   -66414231.304 9  84159762.990 9
  22730228.355    22730228.648   -58375823.477 8  61108081.078 9
  21332537.138    21332536.880    -4973867.667 9 -12789755.504 9
 89 11 16 14  3 29.0800000  0  4G13G12G 3G 9
  20524754.437    20524756.596   -24778754.323 9 -12097918.530 8
  20606877.039    20606879.128   -66438529.812 9  84140829.078 9
  22718070.682    22718072.044   -58439710.295 8  61058299.127 9
  21347868.906    21347869.901    -4893297.138 9 -12726973.324 9
 89 11 16 14  3 59.0800000  0  4G13G12G 3G 9
  20527308.414    20527311.959   -24765330.137 8 -12087458.133 7
  20602366.062    20602367.493   -66462236.280 9  84122356.483 9
  22705966.315    22705968.104   -58503319.747 9  61008733.303 8
  21363298.357    21363299.139    -4812216.386 9 -12663793.562 8
 89 11 16 14  4 29.0800000  0  4G13G12G 3G 9
  20529926.453    20529927.194   -24751578.529 9 -12076742.585 8
  20597966.958    20597969.705   -66485352.352 9  84104343.943 8
  22693913.331    22693914.831   -58566655.234 9  60959380.961 9
  21378822.763    21378824.601    -4730631.072 9 -12600220.629 9
 89 11 16 14  4 59.0800000  0  4G13G12G 3G 9
  20532606.001    20532606.244   -24737499.051 9 -12065771.525 7
  20593680.952    20593683.498   -66507875.134 9  84086793.715 9
  22681914.035    22681915.249   -58629714.886 9  60910243.553 9
  21394444.448    21394445.063    -4648541.669 9 -12536254.899 8
 89 11 16 14  5 29.0800000  0  4G13G12G 3G 9
  20535346.930    20535348.422   -24723093.106 9 -12054546.112 8
  20589508.304    20589510.020   -66529801.704 9  84069708.063 8
  22669966.768    22669968.965   -58692497.632 9  60861321.930 9
  21410161.414    21410161.851    -4565949.589 9 -12471897.471 8
 89 11 16 14  5 59.0800000  0  4G13G12G 3G 9
  20538149.971    20538150.800   -24708362.552 9 -12043067.746 8
  20585449.886    20585451.447   -66551130.843 9  84053087.944 8
  22658072.395    22658073.059   -58755004.111 9  60812615.575 9
  21425973.922    21425974.327    -4482857.593 9 -12407150.509 8
 89 11 16 14  6 29.0800000  0  4G13G12G 3G 9
  20541014.995    20541015.953   -24693307.976 9 -12031336.907 8
  20581505.612    20581507.199   -66571860.626 9  84036934.847 9
  22646229.159    22646231.154   -58817233.382 9  60764125.206 9
  21441880.210    21441880.882    -4399267.437 9 -12342015.362 8
 89 11 16 14  6 59.0800000  0  4G13G12G 3G 9
  20543939.778    20543941.566   -24677933.091 9 -12019356.472 8
  20577674.695    20577676.227   -66591991.873 9  84021248.151 9
  22634440.414    22634442.747   -58879187.956 9  60715848.911 9
  21457881.212    21457881.106    -4315183.597 9 -12276495.538 8
 89 11 16 14  7 29.0800000  0  4G13G12G 3G 9
  20546927.086    20546928.170   -24662239.368 9 -12007127.569 8
  20573958.525    20573959.641   -66611522.603 9  84006029.400 9
  22622703.033    22622705.078   -58940866.904 9  60667787.390 9
  21473975.803    21473975.275    -4230608.015 9 -12210592.535 8
 89 11 16 14  7 59.0800000  0  4G13G12G 3G 9
  20549973.625    20549974.627   -24646229.003 9 -11994651.932 8
  20570356.597    20570358.013   -66630451.663 9  83991279.486 9
  22611019.279    22611020.511   -59002270.957 9  60619940.079 9
  21490161.723    21490163.304    -4145543.315 9 -12144308.386 8
 89 11 16 14  8 29.0800000  0  4G13G12G 3G 9
  20553081.002    20553081.759   -24629902.840 9 -11981930.239 8
  20566868.817    20566869.403   -66648777.066 9  83976999.932 9
  22599386.679    22599387.999   -59063399.245 9  60572307.640 8
  21506441.747    21506442.584    -4059991.386 9 -12077644.610 9
 89 11 16 14  8 59.0800000  0  4G13G12G 3G 9
  20556247.467    20556247.028   -24613260.262 9 -11968961.999 8
  20563497.383    20563498.613   -66666495.849 9  83963193.078 9
  22587807.501    22587808.363   -59124250.026 9  60524891.428 9
  21522814.259    21522816.470    -3973952.849 9 -12010601.641 8
 89 11 16 14  9 29.0800000  0  4G13G12G 3G 9
  20559474.104    20559474.021   -24596305.614 9 -11955750.610 8
  20560240.978    20560242.239   -66683608.360 9  83949858.632 8
  22576279.035    22576281.041   -59184825.323 9  60477689.875 8
  21539279.165    21539279.252    -3887432.105 9 -11943182.938 8
 89 11 16 14  9 59.0800000  0  4G13G12G 3G 9
  20562758.706    20562760.299   -24579042.121 9 -11942298.566 8
  20557099.838    20557100.940   -66700114.681 8  83936996.545 9
  22564805.300    22564805.673   -59245126.667 9  60430701.790 9
  21555834.076    21555835.414    -3800433.156 9 -11875391.599 7
 89 11 16 14 10 29.0800000  0  4G13G12G 3G 9
  20566103.089    20566103.859   -24561469.326 9 -11928605.501 8
  20554074.829    20554075.402   -66716012.032 9  83924608.972 9
  22553382.913    22553383.344   -59305152.291 9  60383928.553 8
  21572481.029    21572481.303    -3712956.680 9 -11807228.175 9
 89 11 16 14 10 59.0800000  0  4G13G12G 3G 9
  20569504.622    20569506.294   -24543589.723 9 -11914673.393 8
  20551164.524    20551167.029   -66731299.799 9  83912696.392 9
  22542012.273    22542013.661   -59364903.343 9  60337369.258 8
  21589217.433    21589218.369    -3625006.137 9 -11738695.354 8
 89 11 16 14 11 29.0800000  0  4G13G12G 3G 9
  20572965.364    20572965.909   -24525404.279 9 -11900502.930 8
  20548372.183    20548373.215   -66745976.142 9  83901260.263 9
  22530694.819    22530695.701   -59424378.845 9  60291024.697 9
  21606044.375    21606043.795    -3536583.223 9 -11669794.440 8
 89 11 16 14 11 59.0800000  0  4G13G12G 3G 9
  20576483.823    20576484.535   -24506914.663 9 -11886095.468 7
  20545695.690    20545697.794   -66760039.372 9  83890301.886 8
  22519429.106    22519430.316   -59483578.694 9  60244894.927 9
  21622959.126    21622960.370    -3447690.207 9 -11600527.210 8
 89 11 16 14 12 29.0800000  0  4G13G12G 3G 9
  20580060.370    20580061.347   -24488123.507 9 -11871453.030 8
  20543136.488    20543136.933   -66773490.044 9  83879820.818 9
  22508216.007    22508216.636   -59542504.626 9  60198978.603 9
  21639964.197    21639964.513    -3358331.005 9 -11530896.737 9
 89 11 16 14 12 59.0800000  0  4G13G12G 3G 9
  20583692.842    20583693.583   -24469032.648 9 -11856577.064 8
  20540693.193    20540695.352   -66786326.881 8  83869818.068 9
  22497053.995    22497056.051   -59601156.162 9  60153276.083 8
  21657057.012    21657057.628    -3268508.055 9 -11460904.898 8
 89 11 16 14 13 29.0800000  0  4G13G12G 3G 9
  20587382.660    20587384.090   -24449642.188 9 -11841467.636 8
  20538367.703    20538369.449   -66798547.286 9  83860295.646 9
  22485945.952    22485946.847   -59659532.373 9  60107788.111 8
  21674236.441    21674237.515    -3178222.721 9 -11390552.749 8
 89 11 16 14 13 59.0800000  0  4G13G12G 3G 9
  20591129.068    20591130.917   -24429954.720 9 -11826126.770 8
  20536159.821    20536162.165   -66810150.874 8  83851253.881 9
  22474890.071    22474890.646   -59717634.162 9  60062513.977 8
  21691505.460    21691507.476    -3087478.236 9 -11319842.823 8
 89 11 16 14 14 29.0800000  0  4G13G12G 3G 9
  20594931.815    20594932.665   -24409972.920 9 -11810556.556 9
  20534069.216    20534071.649   -66821137.670 9  83842692.723 9
  22463885.092    22463886.487   -59775462.959 9  60017452.553 8
  21708860.983    21708862.041    -2996278.311 9 -11248778.019 9
 89 11 16 14 14 59.0800000  0  4G13G12G 3G 9
  20598790.565    20598790.510   -24389697.755 9 -11794757.744 8
  20532097.407    20532098.782   -66831505.838 9  83834613.605 9
  22452932.853    22452935.868   -59833017.668 9  59972604.704 9
  21726301.163    21726303.057    -2904624.709 9 -11177359.694 9
 89 11 16 14 15 29.0800000  0  4G13G12G 3G 9
  20602703.907    20602704.807   -24369130.073 9 -11778731.015 7
  20530241.807    20530243.994   -66841253.536 9  83827017.964 9
  22442033.333    22442034.077   -59890297.642 9  59927970.938 9
  21743828.790    21743829.275    -2812519.385 9 -11105589.383 9
 89 11 16 14 15 59.0800000  0  4G13G12G 3G 9
  20606673.178    20606673.710   -24348272.802 9 -11762478.630 8
  20528503.838    20528507.112   -66850380.712 8  83819905.853 9
  22431184.545    22431186.861   -59947304.290 8  59883550.150 9
  21761441.386    21761442.237    -2719966.057 9 -11033469.985 9
 89 11 16 14 16 29.0800000  0  4G13G12G 3G 9
  20610697.212    20610697.666   -24327127.775 9 -11746002.010 8
  20526885.808    20526887.710   -66858887.003 9  83813277.552 8
  22420388.664    22420389.958   -60004038.278 9  59839341.837 9
  21779138.249    21779140.108    -2626967.920 8 -10961003.978 9
 89 11 16 14 16 59.0800000  0  4G13G12G 3G 9
  20614775.052    20614776.090   -24305696.526 9 -11729302.386 8
  20525385.615    20525387.332   -66866771.786 8  83807133.531 9
  22409644.420    22409645.451   -60060499.604 9  59795345.979 9
  21796919.186    21796920.760    -2533527.302 9 -10888193.187 8
 89 11 16 14 17 29.0800000  0  4G13G12G 3G 9
  20618907.382    20618908.595   -24283979.740 9 -11712380.231 8
  20524004.604    20524005.834   -66874032.738 9  83801475.632 9
  22398951.900    22398953.625   -60116687.587 9  59751563.115 9
  21814784.169    21814786.099    -2439646.150 9 -10815039.130 8
 89 11 16 14 17 59.0800000  0  4G13G12G 3G 9
  20623093.768    20623095.375   -24261980.684 9 -11695238.154 7
  20522741.743    20522743.818   -66880670.224 9  83796303.531 8
  22388312.142    22388313.202   -60172603.546 9  59707992.230 9
  21832733.103    21832733.453    -2345328.412 9 -10741544.875 8
 89 11 16 14 18 29.0800000  0  4G13G12G 3G 9
  20627333.944    20627334.716   -24239700.522 9 -11677877.041 8
  20521597.507    20521598.739   -66886683.013 9  83791618.210 8
  22377723.589    22377725.069   -60228247.448 9  59664633.317 9
  21850763.455    21850765.122    -2250576.527 8 -10667712.330 9
 89 11 16 14 18 59.0800000  0  4G13G12G 3G 9
  20631626.759    20631627.537   -24217140.567 9 -11660297.908 7
  20520572.723    20520573.396   -66892070.104 9  83787420.452 9
  22367187.657    22367187.072   -60283619.159 9  59621486.512 9
  21868876.286    21868878.519    -2155392.857 9 -10593543.309 8
 89 11 16 14 19 29.0800000  0  4G13G12G 3G 9
  20635972.330    20635973.411   -24194302.926 9 -11642502.396 8
  20519665.605    20519667.106   -66896830.724 9  83783710.847 9
  22356701.792    22356703.197   -60338718.970 9  59578551.578 8
  21887070.933    21887072.447    -2059780.243 9 -10519040.065 9
 89 11 16 14 19 59.0800000  0  4G13G12G 3G 9
  20640370.753    20640371.970   -24171188.238 9 -11624490.999 8
  20518879.542    20518881.445   -66900963.544 9  83780490.441 8
  22346268.387    22346268.831   -60393546.352 9  59535828.916 8
  21905346.380    21905347.940    -1963740.653 9 -10444204.114 9
 89 11 16 14 20 29.0800000  0  4G13G12G 3G 9
  20644821.869    20644823.235   -24147800.048 9 -11606266.472 8
  20518211.701    20518213.489   -66904469.001 9  83777758.896 8
  22335885.801    22335887.704   -60448102.980 9  59493317.238 9
  21923702.175    21923704.986    -1867278.361 9 -10369038.782 9
 89 11 16 14 20 59.0800000  0  4G13G12G 3G 9
  20649324.342    20649325.206   -24124140.549 9 -11587830.528 8
  20517664.370    20517666.647   -66907346.684 9  83775516.509 9
  22325555.922    22325556.872   -60502389.483 9  59451016.053 9
  21942138.557    21942140.125    -1770396.334 9 -10293546.378 9
 89 11 16 14 21 29.0800000  0  4G13G12G 3G 9
  20653878.535    20653879.663   -24100209.128 9 -11569182.693 8
  20517237.427    20517238.856   -66909594.235 9  83773765.133 9
  22315276.963    22315277.714   -60556404.424 9  59408926.466 9
  21960654.671    21960656.540    -1673096.144 9 -10217728.153 8
 89 11 16 14 21 59.0800000  0  4G13G12G 3G 9
  20658483.354    20658485.559   -24076008.633 9 -11550325.171 8
  20516929.375    20516931.378   -66911212.418 9  83772504.175 9
  22305050.172    22305051.040   -60610149.434 9  59367047.214 9
  21979249.332    21979251.106    -1575381.521 9 -10141586.983 9
 89 11 16 14 22 29.0800000  0  4G13G12G 3G 9
  20663139.285    20663139.995   -24051541.441 9 -11531259.861 8
  20516741.163    20516742.067   -66912200.976 9  83771733.834 9
  22294873.303    22294876.127   -60663624.852 9  59325378.036 9
  21997922.209    21997923.496    -1477255.524 9 -10065125.264 9
 89 11 16 14 22 59.0800000  0  4G13G12G 3G 9
  20667846.021    20667846.810   -24026808.441 9 -11511987.401 8
  20516673.738    20516675.239   -66912559.107 9  83771454.749 9
  22284749.570    22284750.992   -60716830.680 9  59283918.927 9
  22016672.544    22016673.989    -1378720.761 9  -9988345.020 9
 89 11 16 14 23 29.0800000  0  4G13G12G 3G 9
  20672603.897    20672604.462   -24001811.438 9 -11492509.236 8
  20516725.363    20516726.292   -66912285.919 9  83771667.574 8
  22274674.758    22274677.047   -60769767.350 9  59242669.533 9
  22035500.828    22035502.166    -1279780.084 9  -9911248.477 9
 89 11 16 14 23 59.0800000  0  4G13G12G 3G 9
  20677410.072    20677410.583   -23976552.314 9 -11472826.836 8
  20516897.500    20516899.516   -66911380.596 9  83772372.989 9
  22264652.355    22264655.204   -60822434.410 9  59201630.242 9
  22054404.751    22054406.896    -1180435.993 9  -9833837.596 9
 89 11 16 14 24 29.0800000  0  4G13G12G 3G 9
  20682265.530    20682267.644   -23951032.041 9 -11452940.953 8
  20517191.035    20517192.110   -66909842.688 9  83773571.317 9
  22254682.025    22254683.266   -60874832.549 8  59160800.496 9
  22073386.245    22073387.609    -1080691.293 9  -9756114.558 9
 89 11 16 14 24 59.0800000  0  4G13G12G 3G 9
  20687171.042    20687173.826   -23925253.110 9 -11432853.509 8
  20517603.625    20517604.812   -66907672.137 9  83775262.626 9
  22244761.892    22244764.185   -60926962.606 9  59120179.640 9
  22092442.323    22092443.546     -980549.467 9  -9678082.075 9
 89 11 16 14 25 29.0800000  0  4G13G12G 3G 9
  20692126.319    20692126.903   -23899217.525 9 -11412566.102 8
  20518136.955    20518137.830   -66904868.520 9  83777447.207 9
  22234894.015    22234894.381   -60978824.766 9  59079767.539 9
  22111574.090    22111575.077     -880013.472 9  -9599742.429 9
 89 11 16 14 25 59.0800000  0  4G13G12G 3G 9
  20697129.175    20697129.912   -23872926.559 9 -11392079.690 8
  20518790.911    20518791.814   -66901431.367 9  83780125.474 8
  22225075.445    22225076.253   -61030419.476 9  59039563.846 9
  22130780.194    22130781.776     -779086.091 9  -9521097.830 9
 89 11 16 14 26 29.0800000  0  4G13G12G 3G 9
  20702180.520    20702182.723   -23846381.656 9 -11371395.422 8
  20519565.322    20519567.798   -66897360.342 9  83783297.663 8
  22215308.709    22215309.405   -61081746.995 9  58999568.353 9
  22150060.169    22150061.013     -677770.205 9  -9442150.492 9
 89 11 16 14 26 59.0800000  0  4G13G12G 3G 9
  20707279.429    20707281.341   -23819584.318 9 -11350514.465 9
  20520460.990    20520463.381   -66892654.376 9  83786964.589 9
  22205591.534    22205593.601   -61132806.971 9  58959781.331 9
  22169413.651    22169414.802     -576068.175 9  -9362902.275 9
 89 11 16 14 27 29.0800000  0  4G13G12G 3G 9
  20712426.681    20712429.102   -23792537.224 9 -11329438.891 8
  20521476.197    20521479.129   -66887314.537 9  83791125.458 9
  22195925.707    22195927.528   -61183600.896 9  58920201.615 9
  22188839.144    22188839.674     -473984.037 9  -9283356.309 9
 89 11 16 14 27 59.0800000  0  4G13G12G 3G 9
  20717621.306    20717623.133   -23765242.351 9 -11308170.227 8
  20522614.204    20522615.907   -66881340.822 9  83795780.242 8
  22186310.258    22186312.745   -61234129.551 9  58880828.608 8
  22208336.660    22208338.501     -371521.123 8  -9203515.198 8
 89 11 16 14 28 29.0800000  0  4G13G12G 3G 9
  20722861.847    20722863.852   -23737699.806 9 -11286708.563 9
  20523871.364    20523873.799   -66874731.299 9  83800930.469 9
  22176745.696    22176748.036   -61284391.752 8  58841663.224 8
  22227906.476    22227908.487     -268680.931 9  -9123380.110 9
 89 11 16 14 28 59.0800000  0  4G13G12G 3G 9
  20728150.054    20728151.826   -23709912.932 9 -11265056.492 7
  20525250.696    20525252.313   -66867487.137 9  83806575.226 8
  22167231.518    22167233.703   -61334389.322 8  58802704.043 9
  22247546.802    22247549.821     -165467.860 9  -9042954.453 8
 89 11 16 14 29 29.0800000  0  4G13G12G 3G 9
  20733482.746    20733484.990   -23681883.134 9 -11243215.122 9
  20526749.396    20526752.088   -66859608.381 9  83812714.474 9
  22157768.163    22157769.163   -61384122.955 9  58763950.532 9
  22267258.629    22267260.546      -61884.828 9  -8962240.517 9
 89 11 16 14 29 59.0800000  0  4G13G12G 3G 9
  20738863.928    20738865.548   -23653610.505 9 -11221184.579 9
  20528369.797    20528372.199   -66851093.536 9  83819349.367 9
  22148354.309    22148356.207   -61433591.279 9  58725403.764 9
  22287040.483    22287042.415       42066.435 8  -8881239.664 9
 89 11 16 14 30 29.0800000  0  4G13G12G 3G 9
  20744289.700    20744289.985   -23625097.106 9 -11198966.389 7
  20530111.206    20530113.682   -66841942.273 9  83826480.177 8
  22138990.447    22138993.650   -61482794.838 9  58687063.305 8
  22306890.165    22306893.829      146382.951 9  -8799954.189 9
 89 11 16 14 30 59.0800000  0  4G13G12G 3G 9
  20749760.743    20749761.887   -23596345.653 9 -11176562.709 7
  20531974.491    20531976.079   -66832155.624 9  83834106.086 9
  22129678.001    22129680.400   -61531735.193 9  58648927.952 9
  22326810.019    22326813.073      251060.768 9  -8718387.193 8
 89 11 16 14 31 29.0800000  0  4G13G12G 3G 9
  20755275.929    20755278.974   -23567358.257 9 -11153975.188 7
  20533957.529    20533958.815   -66821734.317 9  83842226.536 9
  22120414.504    22120417.651   -61580413.447 9  58610996.817 9
  22346798.578    22346800.439      356096.001 9  -8636541.681 8
 89 11 16 14 31 59.0800000  0  4G13G12G 3G 9
  20760837.346    20760839.687   -23538136.070 9 -11131204.701 8
  20536060.764    20536063.211   -66810677.191 9  83850842.426 8
  22111201.003    22111204.441   -61628829.137 9  58573270.277 9
  22366853.418    22366855.936      461486.587 9  -8554419.265 8
 89 11 16 14 32 29.0800000  0  4G13G12G 3G 9
  20766442.635    20766445.885   -23508680.127 9 -11108252.071 8
  20538286.212    20538288.373   -66798983.640 9  83859954.215 8
  22102038.623    22102040.902   -61676982.192 9  58535748.387 8
  22386976.405    22386978.373      567230.019 9  -8472021.922 8
 89 11 16 14 32 59.0800000  0  4G13G12G 3G 9
  20772092.467    20772094.978   -23478991.633 9 -11085118.260 9
  20540632.288    20540635.850   -66786653.229 9  83869562.280 8
  22092924.444    22092928.038   -61724872.540 8  58498431.199 9
  22407164.993    22407168.446      673323.664 9  -8389351.665 9
 89 11 16 14 33 29.0800000  0  4G13G12G 3G 9
  20777785.547    20777789.076   -23449073.881 9 -11061805.781 8
  20543100.694    20543101.495   -66773687.483 8  83879665.401 9
  22083860.304    22083863.958   -61772502.284 9  58461317.073 9
  22427421.119    22427422.678      779763.011 9  -8306412.039 9
 89 11 16 14 33 59.0800000  0  4G13G12G 3G 9
  20783522.122    20783524.744   -23418927.513 9 -11038315.159 9
  20545688.423    20545689.768   -66760085.984 9  83890263.913 9
  22074846.625    22074850.496   -61819871.362 9  58424406.075 9
  22447740.628    22447742.145      886545.182 9  -8223205.292 9
 89 11 16 14 34 29.0800000  0  4G13G12G 3G 9
  20789301.633    20789304.691   -23388554.847 9 -11014648.185 9
  20548397.665    20548399.754   -66745849.070 9  83901357.560 9
  22065882.824    22065884.853   -61866980.439 9  58387697.671 9
  22468125.202    22468127.328      993667.255 9  -8139733.675 9
 89 11 16 14 34 59.0800000  0  4G13G12G 3G 9
  20795125.283    20795127.222   -23357957.187 9 -10990805.904 9
  20551227.907    20551230.138   -66730976.799 9  83912946.277 9
  22056968.202    22056969.886   -61913829.914 9  58351191.565 9
  22488574.617    22488576.428     1101126.362 9  -8055999.447 8
 89 11 16 14 35 29.0800000  0  4G13G12G 3G 9
  20800989.654    20800991.748   -23327136.052 9 -10966789.471 8
  20554179.118    20554181.208   -66715469.132 8  83925030.110 8
  22048102.386    22048104.560   -61960419.848 9  58314887.687 8
  22509085.920    22509088.919     1208919.211 9  -7972005.168 8
 89 11 16 14 35 59.0800000  0  4G13G12G 3G 9
  20806897.153    20806899.417   -23296093.345 9 -10942600.386 7
  20557251.343    20557252.358   -66699326.460 9  83937608.771 9
  22039285.446    22039288.615   -62006750.907 9  58278785.542 8
  22529661.824    22529663.832     1317042.721 9  -7887753.210 9
 89 11 16 14 36 29.0800000  0  4G13G12G 3G 9
  20812846.601    20812849.090   -23264830.192 9 -10918239.528 8
  20560444.751    20560445.052   -66682548.604 9  83950682.366 9
  22030518.515    22030519.681   -62052823.861 9  58242884.510 8
  22550300.326    22550301.886     1425493.928 9  -7803245.915 8
 89 11 16 14 36 59.0800000  0  4G13G12G 3G 9
  20818836.203    20818839.787   -23233349.219 9 -10893708.934 8
  20563757.169    20563759.172   -66665136.429 9  83964250.230 9
  22021800.538    22021801.762   -62098639.333 9  58207184.102 8
  22570998.522    22571000.460     1534269.232 9  -7718486.087 8
 89 11 16 14 37 29.0800000  0  4G13G12G 3G 9
  20824868.943    20824871.045   -23201650.349 9 -10869008.576 9
  20567191.345    20567193.434   -66647088.872 9  83978313.216 9
  22013131.281    22013133.396   -62144196.141 9  58171685.257 8
  22591758.734    22591761.289     1643367.430 9  -7633474.657 9
 89 11 16 14 37 59.0800000  0  4G13G12G 3G 9
  20830941.325    20830945.091   -23169737.075 9 -10844141.167 9
  20570745.659    20570748.121   -66628408.534 9  83992869.262 9
  22004510.369    22004513.476   -62189497.038 9  58136385.815 8
  22612581.183    22612582.871     1752783.175 9  -7548215.765 8
 89 11 16 14 38 29.0800000  0  4G13G12G 3G 9
  20837055.064    20837057.955   -23137610.223 9 -10819107.354 9
  20574420.746    20574423.750   -66609094.943 9  84007918.756 9
  21995939.355    21995941.211   -62234541.774 9  58101285.987 8
  22633461.526    22633463.680     1862513.969 9  -7462711.398 8
 89 11 16 14 38 59.0800000  0  4G13G12G 3G 9
  20843209.253    20843212.140   -23105271.039 9 -10793908.052 8
  20578217.871    20578219.775   -66589147.695 9  84023462.013 9
  21987416.004    21987417.675   -62279330.717 9  58066385.464 8
  22654401.634    22654405.304     1972556.694 9  -7376963.964 9
 89 11 16 14 39 29.0800000  0  4G13G12G 3G 9
  20849403.703    20849405.532   -23072720.844 9 -10768544.335 9
  20582133.838    20582136.055   -66568566.962 9  84039498.898 9
  21978941.806    21978944.112   -62323863.863 9  58031684.262 8
  22675401.102    22675404.206     2082909.057 9  -7290975.258 9
 89 11 16 14 39 59.0800000  0  4G13G12G 3G 9
  20855638.380    20855639.592   -23039960.919 8 -10743017.174 9
  20586170.889    20586173.620   -66547353.334 9  84056028.929 8
  21970516.198    21970517.837   -62368141.894 9  57997181.861 9
  22696459.681    22696461.529     2193567.690 9  -7204747.894 9
 89 11 16 14 40 29.0800000  0  4G13G12G 3G 9
  20861911.323    20861913.624   -23006994.994 9 -10717329.491 8
  20590327.706    20590330.096   -66525509.315 9  84073050.192 9
  21962138.738    21962139.415   -62412167.207 9  57962876.389 8
  22717574.625    22717577.058     2304527.446 9  -7118285.896 9
 89 11 16 14 40 59.0800000  0  4G13G12G 3G 9
  20868223.598    20868226.648   -22973823.898 9 -10691481.939 8
  20594603.706    20594606.911   -66503034.121 9  84090563.280 8
  21953809.546    21953809.795   -62455939.278 9  57928768.243 8
  22738746.477    22738749.367     2415786.249 9  -7031590.860 9
 89 11 16 14 41 29.0800000  0  4G13G12G 3G 9
  20874574.338    20874577.393   -22940448.670 9 -10665475.336 8
  20599001.233    20599003.894   -66479927.541 9  84108568.345 9
  21945526.994    21945528.929   -62499457.924 9  57894857.565 9
  22759975.569    22759977.260     2527341.726 9  -6944664.665 8
 89 11 16 14 41 59.0800000  0  4G13G12G 3G 9
  20880964.626    20880967.050   -22906869.954 9 -10639310.138 9
  20603519.016    20603520.646   -66456189.815 9  84127065.205 8
  21937295.345    21937295.524   -62542723.234 9  57861144.295 9
  22781259.884    22781262.526     2639191.004 9  -6857509.537 9
 89 11 16 14 42 29.0800000  0  4G13G12G 3G 9
  20887391.975    20887395.615   -22873090.452 9 -10612988.484 8
  20608155.721    20608158.455   -66431822.157 9  84146052.941 9
  21929108.304    21929110.726   -62585737.022 9  57827627.015 9
  22802599.168    22802601.679     2751330.028 9  -6770128.632 8
 89 11 16 14 42 59.0800000  0  4G13G12G 3G 9
  20893858.344    20893860.645   -22839112.107 9 -10586511.909 8
  20612913.265    20612914.712   -66406825.327 9  84165530.927 9
  21920971.223    21920973.720   -62628499.856 9  57794305.279 8
  22823992.096    22823995.417     2863755.649 9  -6682524.419 8
 89 11 16 14 43 29.0800000  0  4G13G12G 3G 9
  20900362.046    20900364.621   -22804935.900 9 -10559881.149 8
  20617789.694    20617791.541   -66381199.975 9  84185498.674 9
  21912881.546    21912883.141   -62671011.706 9  57761179.124 8
  22845440.666    22845443.864     2976465.029 9  -6594699.091 8
 89 11 16 14 43 59.0800000  0  4G13G12G 3G 9
  20906902.107    20906905.520   -22770563.643 9 -10533097.614 8
  20622784.946    20622787.077   -66354947.156 9  84205955.366 9
  21904839.845    21904841.149   -62713273.377 9  57728247.904 8
  22866942.786    22866945.634     3089454.678 9  -6506655.357 9
 89 11 16 14 44 29.0800000  0  4G13G12G 3G 9
  20913479.804    20913483.226   -22735997.163 9 -10506162.763 8
  20627900.393    20627901.610   -66328067.449 9  84226900.535 8
  21896845.140    21896846.424   -62755286.199 9  57695510.606 9
  22888495.993    22888499.906     3202721.037 9  -6418396.027 8
 89 11 16 14 44 59.0800000  0  4G13G12G 3G 9
  20920094.518    20920097.800   -22701236.467 9 -10479076.566 8
  20633134.464    20633136.595   -66300560.366 9  84248334.577 9
  21888897.791    21888899.462   -62797049.156 9  57662967.986 9
  22910103.094    22910105.719     3316262.160 9  -6329922.608 9
 89 11 16 14 45 29.0800000  0  4G13G12G 3G 9
  20926746.445    20926749.010   -22666284.198 9 -10451841.087 9
  20638487.948    20638490.208   -66272427.249 9  84270256.435 9
  21880997.808    21880999.339   -62838563.617 9  57630619.007 8
  22931761.585    22931763.803     3430074.304 9  -6241237.972 9
 89 11 16 14 45 59.0800000  0  4G13G12G 3G 9
  20933433.655    20933436.058   -22631142.037 9 -10424457.660 8
  20643960.479    20643962.240   -66243669.777 9  84292664.803 9
  21873145.713    21873147.148   -62879830.757 9  57598462.733 8
  22953469.774    22953472.227     3544153.722 8  -6152345.096 9
 89 11 16 14 46 29.0800000  0  4G13G12G 3G 9
  20940157.404    20940159.404   -22595810.849 9 -10396926.938 8
  20649552.380    20649553.726   -66214286.961 9  84315560.443 8
  21865339.542    21865340.746   -62920849.830 9  57566499.792 9
  22975228.875    22975231.529     3658498.517 9  -6063245.425 9
 89 11 16 14 46 59.0800000  0  4G13G12G 3G 9
  20946916.043    20946919.306   -22560292.807 9 -10369250.612 8
  20655262.162    20655264.007   -66184280.548 9  84338941.998 9
  21857580.481    21857581.856   -62961622.392 9  57534728.918 9
  22997037.607    22997040.232     3773104.640 9  -5973942.130 9
 89 11 16 14 47 29.0800000  0  4G13G12G 3G 9
  20953711.020    20953713.340   -22524590.222 9 -10341430.514 8
  20661089.507    20661091.881   -66153652.631 9  84362807.845 8
  21849868.857    21849870.213   -63002149.533 9  57503149.272 9
  23018895.841    23018897.918     3887967.918 9  -5884438.452 8
 89 11 16 14 47 59.0800000  0  4G13G12G 3G 9
  20960539.001    20960541.652   -22488704.227 9 -10313467.467 8
  20667036.376    20667039.751   -66122403.763 9  84387157.554 9
  21842203.173    21842205.185   -63042432.109 9  57471760.213 9
  23040801.783    23040804.559     4003085.432 9  -5794736.680 9
 89 11 16 14 48 29.0800000  0  4G13G12G 3G 9
  20967402.548    20967405.692   -22452634.538 9 -10285361.259 8
  20673101.713    20673104.071   -66090533.120 9  84411991.785 9
  21834584.604    21834586.484   -63082469.038 9  57440562.567 8
  23062756.053    23062758.580     4118455.448 9  -5704838.131 8
 89 11 16 14 48 59.0800000  0  4G13G12G 3G 9
  20974301.480    20974303.772   -22416383.401 9 -10257113.675 8
  20679283.752    20679286.700   -66058042.636 8  84437308.964 9
  21827012.066    21827014.254   -63122261.536 8  57409555.389 8
  23084757.544    23084760.341     4234073.963 9  -5614745.970 8
 89 11 16 14 49 29.0800000  0  4G13G12G 3G 9
  20981234.319    20981236.371   -22379953.589 9 -10228726.874 8
  20685584.887    20685587.093   -66024933.880 9  84463107.939 9
  21819486.547    21819488.171   -63161811.317 9  57378737.330 9
  23106805.454    23106808.981     4349937.131 9  -5524463.155 8
 89 11 16 14 49 59.0800000  0  4G13G12G 3G 9
  20988199.954    20988202.526   -22343345.908 9 -10200201.469 8
  20692002.202    20692005.306   -65991207.459 9  84489388.196 9
  21812006.200    21812008.694   -63201118.334 9  57348108.436 8
  23128900.200    23128903.839     4466042.211 8  -5433991.857 8
 89 11 16 14 50 29.0800000  0  4G13G12G 3G 9
  20995200.675    20995201.959   -22306560.728 9 -10171537.768 8
  20698538.883    20698540.655   -65956863.686 9  84516149.512 9
  21804572.881    21804574.542   -63240182.255 9  57317668.975 9
  23151039.280    23151042.821     4582387.039 9  -5343333.740 8
 89 11 16 14 50 59.0800000  0  4G13G12G 3G 9
  21002233.726    21002235.654   -22269600.911 9 -10142737.991 8
  20705190.264    20705192.254   -65921904.078 9  84543390.700 9
  21797185.365    21797187.922   -63279004.539 9  57287417.795 9
  23173224.665    23173228.163     4698967.476 9  -5252492.027 9
 89 11 16 14 51 29.0800000  0  4G13G12G 3G 9
  21009299.866    21009302.508   -22232467.470 9 -10113802.924 8
  20711959.940    20711962.644   -65886329.892 9  84571110.773 8
  21789843.273    21789845.636   -63317585.941 9  57257354.313 9
  23195453.593    23195456.104     4815780.039 9  -5161469.434 9
 89 11 16 14 51 59.0800000  0  4G13G12G 3G 9
  21016398.898    21016402.040   -22195161.994 9 -10084733.808 7
  20718846.310    20718848.856   -65850142.554 9  84599308.624 9
  21782547.413    21782549.469   -63355927.292 9  57227477.893 8
  23217726.481    23217729.506     4932821.756 9  -5070268.302 9
 89 11 16 14 52 29.0800000  0  4G13G12G 3G 9
  21023530.889    21023533.314   -22157686.518 9 -10055532.229 8
  20725849.053    20725851.171   -65813343.736 9  84627982.946 9
  21775296.479    21775298.767   -63394029.495 9  57197787.828 9
  23240040.893    23240043.648     5050088.550 9  -4978891.774 9
 89 11 16 14 52 59.0800000  0  4G13G12G 3G 9
  21030694.436    21030697.017   -22120041.656 9 -10026198.672 9
  20732968.317    20732969.736   -65775934.501 9  84657132.932 9
  21768092.129    21768094.586   -63431893.054 9  57168283.716 9
  23262398.031    23262402.417     5167577.600 9  -4887342.056 9
 89 11 16 14 53 29.0800000  0  4G13G12G 3G 9
  21037889.820    21037893.070   -22082228.083 9  -9996733.643 8
  20740203.615    20740206.005   -65737914.647 9  84686758.710 8
  21760932.116    21760933.975   -63469517.019 9  57138966.310 9
  23284797.319    23284802.111     5285287.208 9  -4795620.479 9
 89 11 16 14 53 59.0800000  0  4G13G12G 3G 9
  21045117.526    21045120.047   -22044248.218 9  -9967139.032 9
  20747554.015    20747556.521   -65699285.918 9  84716858.942 9
  21753817.675    21753819.743   -63506903.329 9  57109834.078 9
  23307238.644    23307242.202     5403213.260 9  -4703730.267 9
 89 11 16 14 54 29.0800000  0  4G13G12G 3G 9
  21052376.258    21052377.734   -22006103.512 9  -9937415.965 8
  20755020.236    20755022.970   -65660050.130 9  84747432.203 9
  21746748.289    21746751.070   -63544052.748 9  57080886.430 9
  23329719.008    23329724.568     5521351.935 8  -4611674.354 9
 89 11 16 14 54 59.0800000  0  4G13G12G 3G 9
  21059666.566    21059668.284   -21967794.707 9  -9907565.027 8
  20762602.061    20762604.778   -65620208.175 9  84778477.805 9
  21739724.074    21739725.938   -63580965.380 9  57052123.301 9
  23352240.767    23352245.137     5639700.619 9  -4519454.806 9
 89 11 16 14 55 29.0800000  0  4G13G12G 3G 9
  21066987.034    21066989.095   -21929323.596 9  -9877587.594 8
  20770299.230    20770300.661   -65579761.446 9  84809994.653 9
  21732744.508    21732747.443   -63617642.333 9  57023543.834 9
  23374801.532    23374806.497     5758255.741 9  -4427074.406 9
 89 11 16 14 55 59.0800000  0  4G13G12G 3G 9
  21074339.342    21074340.543   -21890691.753 9  -9847484.929 7
  20778110.644    20778113.761   -65538711.271 9  84841981.728 9
  21725810.269    21725812.418   -63654084.432 9  56995147.347 9
  23397400.334    23397405.340     5877013.911 9  -4334535.783 9
 89 11 16 14 56 29.0800000  0  4G13G12G 3G 9
  21081720.030    21081722.021   -21851900.477 9  -9817258.030 8
  20786036.559    20786039.079   -65497058.786 9  84874438.108 9
  21718920.091    21718922.640   -63690291.997 9  56966933.626 9
  23420036.981    23420041.258     5995972.337 9  -4241841.128 9
 89 11 16 14 56 59.0800000  0  4G13G12G 3G 9
  21089132.073    21089134.600   -21812950.976 9  -9786907.840 7
  20794077.366    20794081.014   -65454805.181 9  84907362.916 9
  21712075.052    21712076.683   -63726265.526 9  56938902.265 9
  23442712.277    23442716.814     6115127.898 9  -4148992.852 9
 89 11 16 14 57 29.0800000  0  4G13G12G 3G 9
  21096574.348    21096575.368   -21773845.154 9  -9756435.846 8
  20802232.200    20802235.163   -65411952.501 9  84940754.528 9
  21705273.841    21705275.480   -63762006.380 9  56911052.208 9
  23465424.419    23465428.140     6234476.813 8  -4055993.917 9
 89 11 16 14 57 59.0800000  0  4G13G12G 3G 9
  21104045.069    21104047.165   -21734584.293 9  -9725843.046 8
  20810500.337    20810503.212   -65368502.481 9  84974611.594 9
  21698516.947    21698518.747   -63797515.347 9  56883382.838 9
  23488171.200    23488176.221     6354015.514 9  -3962847.111 9
 89 11 16 14 58 29.0800000  0  4G13G12G 3G 9
  21111545.372    21111547.804   -21695168.400 9  -9695129.446 8
  20818882.388    20818885.163   -65324454.945 9  85008934.259 9
  21691804.280    21691806.591   -63832791.533 9  56855894.865 8
  23510954.716    23510958.765     6473742.372 9  -3869553.691 9
 89 11 16 14 58 59.0800000  0  4G13G12G 3G 9
  21119075.114    21119079.123   -21655599.435 9  -9664296.573 9
  20827377.795    20827380.613   -65279812.516 9  85043720.476 9
  21685135.002    21685135.830   -63867836.366 9  56828587.174 9
  23533774.041    23533777.447     6593653.497 9  -3776116.679 8
 89 11 16 14 59 29.0800000  0  4G13G12G 3G 9
  21126634.116    21126636.534   -21615879.554 9  -9633346.097 8
  20835985.760    20835988.764   -65234577.103 9  85078968.765 9
  21678509.785    21678511.647   -63902651.492 9  56801458.463 9
  23556625.922    23556630.686     6713744.612 9  -3682539.410 8
 89 11 16 14 59 59.0800000  0  4G13G12G 3G 9
  21134220.939    21134223.771   -21576009.066 9  -9602278.260 8
  20844706.609    20844709.986   -65188749.559 9  85114678.450 9
  21671928.501    21671930.386   -63937236.494 9  56774509.062 8
  23579512.373    23579517.252     6834013.477 9  -3588823.643 8
 89 11 16 15  0 29.0800000  0  4G13G12G 3G 9
  21141836.695    21141839.799   -21535990.144 9  -9571094.769 7
  20853539.687    20853543.077   -65142331.444 9  85150848.314 9
  21665390.665    21665392.833   -63971592.185 9  56747738.344 8
  23602433.265    23602437.158     6954456.893 9  -3494971.858 8
 89 11 16 15  0 59.0800000  0  4G13G12G 3G 9
  21149479.902    21149482.856   -21495824.500 9  -9539796.947 8
  20862484.287    20862487.808   -65095325.593 9  85187476.152 9
  21658895.428    21658898.864   -64005720.526 9  56721144.773 9
  23625385.466    23625389.044     7075070.470 9  -3400987.475 8
 89 11 16 15  1 29.0800000  0  4G13G12G 3G 9
  21157151.314    21157153.153   -21455512.621 9  -9508385.178 8
  20871541.147    20871544.580   -65047732.394 9  85224561.653 9
  21652445.163    21652447.021   -64039620.774 9  56694728.940 8
  23648368.977    23648373.498     7195852.312 9  -3306872.002 9
 89 11 16 15  1 59.0800000  0  4G13G12G 3G 9
  21164849.098    21164852.818   -21415055.238 9  -9476860.030 8
  20880709.533    20880712.407   -64999553.265 9  85262103.732 9
  21646037.651    21646039.445   -64073293.588 8  56668490.320 8
  23671384.833    23671389.182     7316799.161 9  -3212627.942 8
 89 11 16 15  2 29.0800000  0  4G13G12G 3G 9
  21172575.975    21172578.822   -21374454.520 9  -9445223.204 8
  20889988.174    20889992.226   -64950790.718 9  85300100.427 9
  21639673.277    21639674.078   -64106740.349 9  56642427.860 8
  23694431.123    23694435.422     7437907.106 9  -3118258.361 9
 89 11 16 15  2 59.0800000  0  4G13G12G 3G 9
  21180328.695    21180332.700   -21333711.689 9  -9413475.633 9
  20899378.165    20899382.389   -64901446.185 9  85338550.615 8
  21633351.562    21633354.390   -64139961.837 9  56616540.928 8
  23717507.748    23717511.641     7559173.121 9  -3023765.613 9
 89 11 16 15  3 29.0800000  0  4G13G12G 3G 9
  21188109.260    21188111.965   -21292827.325 9  -9381617.792 8
  20908879.402    20908882.478   -64851520.991 9  85377453.274 9
  21627072.215    21627073.521   -64172957.924 9  56590829.634 9
  23740613.753    23740616.973     7680594.542 9  -2929151.778 8
 89 11 16 15  3 59.0800000  0  4G13G12G 3G 9
  21195915.496    21195919.057   -21251803.301 9  -9349651.103 8
  20918490.506    20918493.005   -64801017.039 9  85416806.918 9
  21620836.801    21620838.436   -64205729.416 9  56565293.337 9
  23763748.589    23763753.371     7802167.895 9  -2834419.551 9
 89 11 16 15  4 29.0800000  0  4G13G12G 3G 9
  21203748.663    21203751.954   -21210641.118 9  -9317576.798 8
  20928210.901    20928214.180   -64749936.885 9  85456609.542 9
  21614642.466    21614644.712   -64238277.647 9  56539931.006 8
  23786911.367    23786916.495     7923889.300 9  -2739571.950 8
 89 11 16 15  4 59.0800000  0  4G13G12G 3G 9
  21211607.729    21211609.832   -21169342.464 9  -9285396.122 8
  20938040.487    20938043.956   -64698282.312 9  85496859.772 9
  21608491.329    21608492.618   -64270603.774 8  56514741.749 8
  23810102.000    23810106.908     8045755.407 8  -2644611.636 8
 89 11 16 15  5 29.0800000  0  4G13G12G 3G 9
  21219492.723    21219496.041   -21127906.296 9  -9253108.291 8
  20947979.493    20947982.380   -64646053.082 9  85537557.789 9
  21602382.334    21602384.273   -64302706.443 9  56489726.623 8
  23833319.109    23833324.525     8167765.076 8  -2549539.427 9
 89 11 16 15  5 59.0800000  0  4G13G12G 3G 9
  21227403.473    21227406.936   -21086335.358 9  -9220715.466 8
  20958026.495    20958030.145   -64593253.142 9  85578700.509 8
  21596315.421    21596317.457   -64334588.050 9  56464883.737 7
  23856563.301    23856568.010     8289913.153 8  -2454359.396 8
 89 11 16 15  6 29.0800000  0  4G13G12G 3G 9
  21235339.522    21235343.542   -21044631.361 9  -9188218.959 8
  20968182.526    20968184.574   -64539884.367 9  85620286.469 9
  21590291.018    21590293.136   -64366249.569 9  56440212.367 8
  23879833.197    23879838.235     8412196.149 8  -2359074.230 9
 89 11 16 15  6 59.0800000  0  4G13G12G 3G 9
  21243301.099    21243303.028   -21002795.232 9  -9155619.485 8
  20978446.185    20978449.484   -64485948.063 9  85662314.669 8
  21584306.881    21584310.043   -64397690.885 9  56415712.571 9
  23903128.397    23903133.764     8534611.655 9  -2263685.807 9
 89 11 16 15  7 29.0800000  0  4G13G12G 3G 9
  21251286.945    21251290.679   -20960827.530 9  -9122917.488 8
  20988817.998    20988820.331   -64431445.633 9  85704784.013 9
  21578366.065    21578368.239   -64428912.498 9  56391384.000 8
  23926448.924    23926453.889     8657156.746 9  -2168196.413 9
 89 11 16 15  7 59.0800000  0  4G13G12G 3G 9
  21259298.489    21259301.066   -20918729.314 9  -9090113.805 7
  20999296.248    20999300.501   -64376379.537 9  85747692.572 9
  21572466.618    21572468.458   -64459915.423 9  56367225.806 9
  23949792.159    23949797.318     8779827.907 9  -2072608.780 9
 89 11 16 15  8 29.0800000  0  4G13G12G 3G 9
  21267333.473    21267337.020   -20876503.022 9  -9057210.297 8
  21009882.259    21009885.030   -64320752.283 9  85791038.399 9
  21566608.378    21566610.017   -64490700.608 9  56343237.300 8
  23973159.848    23973164.714     8902621.674 8  -1976925.605 9
 89 11 16 15  8 59.0800000  0  4G13G12G 3G 9
  21275393.468    21275396.814   -20834148.897 9  -9024207.188 8
  21020574.003    21020577.001   -64264565.435 9  85834820.265 9
  21560792.010    21560793.772   -64521268.829 9  56319417.841 8
  23996549.420    23996554.813     9025534.951 9  -1881149.312 9
 89 11 16 15  9 29.0800000  0  4G13G12G 3G 9
  21283477.016    21283480.320   -20791668.440 9  -8991105.642 8
  21031372.619    21031376.117   -64207820.765 9  85879036.795 8
  21555015.447    21555018.686   -64551620.419 9  56295767.208 8
  24019961.440    24019966.325     9148564.712 9  -1785282.273 8
 89 11 16 15  9 59.0800000  0  4G13G12G 3G 9
  21291584.574    21291587.395   -20749062.292 9  -8957906.146 9
  21042276.289    21042280.306   -64150520.258 9  85923686.444 9
  21549281.504    21549283.336   -64581755.526 9  56272285.245 8
  24043395.459    24043401.290     9271708.287 9  -1689326.525 8
 89 11 16 15 10 29.0800000  0  4G13G12G 3G 9
  21299716.317    21299719.707   -20706332.190 9  -8924610.076 8
  21053286.069    21053288.641   -64092666.476 9  85968767.227 8
  21543587.472    21543589.911   -64611675.688 9  56248970.780 9
  24066848.890    24066855.308     9394961.619 9  -1593285.268 8
 89 11 16 15 10 59.0800000  0  4G13G12G 3G 9
  21307871.010    21307875.533   -20663479.502 9  -8891218.478 8
  21064398.898    21064403.125   -64034261.746 9  86014277.298 9
  21537935.632    21537938.269   -64641381.709 9  56225823.176 9
  24090324.522    24090329.845     9518321.535 9  -1497160.942 8
 89 11 16 15 11 29.0800000  0  4G13G12G 3G 9
  21316048.999    21316052.675   -20620503.658 9  -8857730.908 7
  21075618.120    21075621.923   -63975306.623 9  86060216.264 8
  21532323.551    21532324.887   -64670873.136 9  56202842.783 8
  24113819.278    24113824.222     9641785.905 9  -1400955.241 9
 89 11 16 15 11 59.0800000  0  4G13G12G 3G 9
  21324250.542    21324253.563   -20577407.089 9  -8824149.256 7
  21086941.816    21086944.421   -63915804.529 9  86106581.432 9
  21526752.022    21526753.720   -64700151.968 9  56180028.053 8
  24137333.188    24137338.510     9765350.517 9  -1304671.422 9
 89 11 16 15 12 29.0800000  0  4G13G12G 3G 9
  21332474.234    21332476.323   -20534191.494 9  -8790474.865 7
  21098367.855    21098372.327   -63855757.587 9  86153371.160 9
  21521220.673    21521223.332   -64729218.582 9  56157378.692 9
  24160865.534    24160871.393     9889012.050 9  -1208312.092 8
 89 11 16 15 12 59.0800000  0  4G13G12G 3G 9
  21340720.735    21340724.927   -20490856.500 9  -8756707.436 8
  21109898.129    21109901.167   -63795167.106 9  86200584.429 9
  21515729.259    21515732.018   -64758073.143 9  56134894.557 8
  24184415.550    24184421.776    10012768.159 8  -1111879.068 8
 89 11 16 15 13 29.0800000  0  4G13G12G 3G 9
  21348989.101    21348993.651   -20447403.562 9  -8722848.106 7
  21121531.715    21121535.418   -63734035.637 9  86248219.228 9
  21510278.769    21510280.697   -64786716.702 9  56112574.852 9
  24207983.042    24207989.523    10136615.209 8  -1015375.199 9
 89 11 16 15 13 59.0800000  0  4G13G12G 3G 9
  21357280.306    21357283.151   -20403834.611 9  -8688898.362 8
  21133266.370    21133269.410   -63672366.168 9  86296273.252 8
  21504867.691    21504870.698   -64815150.447 9  56090418.622 9
  24231566.809    24231573.720    10260549.878 8   -918803.046 9
 89 11 16 15 14 29.0800000  0  4G13G12G 3G 9
  21365593.486    21365596.777   -20360150.610 9  -8654858.965 8
  21145104.355    21145107.700   -63610160.517 9  86344745.084 9
  21499498.155    21499499.685   -64843374.859 9  56068425.520 8
  24255167.293    24255174.121    10384568.978 8   -822165.109 9
 89 11 16 15 14 59.0800000  0  4G13G12G 3G 9
  21373927.646    21373930.722   -20316352.567 9  -8620730.711 9
  21157042.945    21157046.988   -63547421.320 9  86393632.665 8
  21494166.918    21494169.006   -64871390.492 9  56046595.101 8
  24278782.748    24278789.905    10508669.430 8   -725463.794 8
 89 11 16 15 15 29.0800000  0  4G13G12G 3G 9
  21382284.129    21382288.450   -20272440.777 9  -8586513.822 9
  21169083.262    21169086.469   -63484150.055 9  86442934.853 9
  21488874.958    21488877.241   -64899197.514 9  56024927.247 9
  24302413.756    24302420.681    10632848.359 8   -628701.320 9
 89 11 16 15 15 59.0800000  0  4G13G12G 3G 9
  21390661.159    21390665.424   -20228416.826 9  -8552209.555 8
  21181224.499    21181226.766   -63420349.488 9  86492649.459 8
  21483622.870    21483624.700   -64926797.112 9  56003421.007 8
  24326058.919    24326066.209    10757102.669 8   -531880.113 9
 89 11 16 15 16 29.0800000  0  4G13G12G 3G 9
  21399060.311    21399062.613   -20184281.266 9  -8517818.301 8
  21193465.381    21193469.773   -63356021.295 9  86542775.225 9
  21478410.090    21478412.033   -64954189.740 9  55982076.032 8
  24349717.639    24349724.203    10881429.069 9   -435002.732 9
 89 11 16 15 16 59.0800000  0  4G13G12G 3G 9
  21407480.126    21407483.617   -20140036.763 9  -8483342.157 8
  21205806.843    21205809.909   -63291168.856 9  86593309.477 9
  21473236.152    21473239.702   -64981377.191 9  55960890.951 9
  24373389.574    24373395.556    11005823.322 9   -338072.467 9
 89 11 16 15 17 29.0800000  0  4G13G12G 3G 9
  21415919.974    21415922.993   -20095682.248 9  -8448780.298 8
  21218246.503    21218250.992   -63225792.838 9  86644251.726 9
  21468101.719    21468105.746   -65008358.462 9  55939866.521 9
  24397073.637    24397080.572    11130284.326 9   -241090.204 9
 89 11 16 15 17 59.0800000  0  4G13G12G 3G 9
  21424381.455    21424385.376   -20051218.917 9  -8414133.645 8
  21230786.540    21230790.722   -63159896.496 9  86695599.407 9
  21463007.913    21463009.566   -65035134.357 8  55919002.113 9
  24420770.203    24420777.562    11254808.469 9   -144058.741 8
 89 11 16 15 18 29.0800000  0  4G13G12G 3G 9
  21432863.172    21432865.891   -20006648.588 9  -8379403.638 8
  21243426.033    21243428.447   -63093483.212 9  86747349.919 8
  21457950.758    21457952.763   -65061706.703 9  55898296.334 8
  24444477.514    24444485.163    11379391.640 8    -46981.287 9
 89 11 16 15 18 59.0800000  0  4G13G12G 3G 9
  21441364.662    21441367.451   -19961971.897 9  -8344590.765 8
  21256161.785    21256164.866   -63026554.128 9  86799502.322 8
  21452933.502    21452935.783   -65088075.180 9  55877749.414 8
  24468195.903    24468204.223    11504031.848 9     50140.594 9
 89 11 16 15 19 29.0800000  0  4G13G12G 3G 9
  21449887.217    21449889.552   -19917190.899 9  -8309696.612 8
  21268995.347    21268999.595   -62959113.472 9  86852053.382 9
  21447954.174    21447954.839   -65114242.284 9  55857359.414 8
  24491924.413    24491932.196    11628723.766 8    147302.777 9
 89 11 16 15 19 59.0800000  0  4G13G12G 3G 9
  21458427.972    21458431.391   -19872305.746 9  -8274721.300 8
  21281925.625    21281929.457   -62891162.914 9  86905001.757 8
  21443012.478    21443014.439   -65140207.873 9  55837126.435 8
  24515661.900    24515670.455    11753465.214 9    244503.561 9
 89 11 16 15 20 29.0800000  0  4G13G12G 3G 9
  21466989.248    21466992.896   -19827316.351 9  -8239664.749 9
  21294953.026    21294956.736   -62822703.170 9  86958346.896 8
  21438110.120    21438112.419   -65165970.796 9  55817051.383 9
  24539409.299    24539417.445    11878255.144 9    341742.102 8
 89 11 16 15 20 59.0800000  0  4G13G12G 3G 9
  21475569.583    21475574.405   -19782224.771 9  -8204528.584 9
  21308076.623    21308080.454   -62753738.373 9  87012085.586 9
  21433244.986    21433248.600   -65191533.415 9  55797132.398 9
  24563164.491    24563172.427    12003088.555 8    439014.519 9
 89 11 16 15 21 29.0800000  0  4G13G12G 3G 9
  21484170.409    21484172.842   -19737031.871 9  -8169313.456 7
  21321296.163    21321300.099   -62684270.939 9  87066215.934 9
  21428419.522    21428422.143   -65216896.181 9  55777369.146 9
  24586928.540    24586935.798    12127962.659 8    536318.657 8
 89 11 16 15 21 59.0800000  0  4G13G12G 3G 9
  21492789.666    21492793.127   -19691737.668 9  -8134019.375 9
  21334610.689    21334615.766   -62614302.680 9  87120736.522 9
  21423631.500    21423634.105   -65242059.507 9  55757761.282 9
  24610698.989    24610705.246    12252874.682 9    633652.302 9
 89 11 16 15 22 29.0800000  0  4G13G12G 3G 9
  21501426.979    21501431.960   -19646343.881 9  -8098647.704 9
  21348019.969    21348023.163   -62543836.374 9  87175645.217 9
  21418880.574    21418883.245   -65267023.894 9  55738308.446 8
  24634474.809    24634482.985    12377821.686 7    731013.216 8
 89 11 16 15 22 59.0800000  0  4G13G12G 3G 9
  21510084.039    21510089.134   -19600851.171 9  -8063198.936 9
  21361522.930    21361527.876   -62472874.948 9  87230939.718 9
  21414167.490    21414171.136   -65291790.240 9  55719009.899 9
  24658258.028    24658265.932    12502800.159 8    828398.626 8
 89 11 16 15 23 29.0800000  0  4G13G12G 3G 9
  21518759.990    21518764.225   -19555261.213 9  -8027674.380 9
  21375120.731    21375124.649   -62401422.040 9  87286617.189 9
  21409492.673    21409494.461   -65316360.512 9  55699864.142 9
  24682046.218    24682054.592    12627805.929 8    925805.313 9
 89 11 16 15 23 59.0800000  0  4G13G12G 3G 9
  21527453.655    21527459.119   -19509574.607 9  -7992074.518 8
  21388810.892    21388815.231   -62329479.005 9  87342676.560 9
  21404853.767    21404857.229   -65340734.380 9  55680871.422 8
  24705839.389    24705847.546    12752836.995 8   1023231.697 9
 89 11 16 15 24 29.0800000  0  4G13G12G 3G 9
  21536166.493    21536170.054   -19463791.002 9  -7956399.074 8
  21402594.684    21402598.100   -62257047.835 9  87399116.311 9
  21400253.927    21400255.658   -65364911.306 9  55662032.180 8
  24729636.165    24729643.959    12877891.254 8   1120676.147 9
 89 11 16 15 24 59.0800000  0  4G13G12G 3G 9
  21544896.873    21544900.463   -19417912.308 9  -7920649.549 8
  21416469.806    21416474.166   -62184132.020 9  87455933.713 9
  21395689.830    21395692.258   -65388892.992 9  55643345.074 9
  24753436.644    24753445.665    13002964.561 8   1218135.442 8
 89 11 16 15 25 29.0800000  0  4G13G12G 3G 9
  21553645.055    21553648.661   -19371939.814 9  -7884826.940 8
  21430436.698    21430441.981   -62110734.739 9  87513126.268 9
  21391163.060    21391165.507   -65412680.825 9  55624809.019 8
  24777240.805    24777250.026    13128053.128 8   1315606.603 8
 89 11 16 15 25 59.0800000  0  4G13G12G 3G 9
  21562411.237    21562415.818   -19325873.302 9  -7848931.049 9
  21444496.185    21444500.103   -62036857.149 9  87570693.093 9
  21386673.649    21386676.920   -65436274.150 9  55606424.550 9
  24801047.765    24801055.873    13253155.547 9   1413088.543 8
 89 11 16 15 26 29.0800000  0  4G13G12G 3G 9
  21571195.479    21571199.873   -19279712.939 9  -7812962.022 7
  21458645.607    21458649.904   -61962501.936 9  87628632.092 9
  21382220.989    21382223.403   -65459673.003 9  55588191.613 9
  24824856.223    24824865.030    13378268.844 9   1510578.940 8
 89 11 16 15 26 59.0800000  0  4G13G12G 3G 9
  21579996.775    21580000.768   -19233461.692 9  -7776922.177 8
  21472884.589    21472888.936   -61887673.581 9  87686939.771 9
  21377804.608    21377807.128   -65482880.389 9  55570107.872 9
  24848665.952    24848675.177    13503388.027 9   1608073.950 9
 89 11 16 15 27 29.0800000  0  4G13G12G 3G 9
  21588816.018    21588819.537   -19187120.065 9  -7740811.916 8
  21487213.557    21487218.503   -61812374.021 9  87745614.630 9
  21373425.353    21373427.173   -65505896.092 9  55552173.490 8
  24872476.578    24872484.951    13628510.843 9   1705571.760 9
 89 11 16 15 27 59.0800000  0  4G13G12G 3G 9
  21597651.171    21597655.604   -19140687.796 9  -7704631.017 8
  21501632.047    21501637.687   -61736605.697 9  87804654.753 9
  21369082.416    21369084.533   -65528720.305 9  55534388.331 8
  24896287.659    24896295.372    13753634.775 9   1803070.426 9
 89 11 16 15 28 29.0800000  0  4G13G12G 3G 9
  21606504.153    21606507.716   -19094165.662 9  -7668380.093 8
  21516140.057    21516143.629   -61660371.464 9  87864057.920 9
  21364776.126    21364778.067   -65551353.585 9  55516751.943 8
  24920097.866    24920106.126    13878756.488 9   1900567.350 8
 89 11 16 15 28 59.0800000  0  4G13G12G 3G 9
  21615373.220    21615378.369   -19047555.212 9  -7632060.353 8
  21530735.115    21530739.026   -61583674.285 9  87923821.822 9
  21360504.468    21360507.661   -65573796.941 9  55499263.548 9
  24943906.587    24943915.912    14003872.913 8   1998060.159 8
 89 11 16 15 29 29.0800000  0  4G13G12G 3G 9
  21624260.400    21624263.962   -19000857.048 9  -7595672.266 7
  21545416.911    21545421.629   -61506517.137 9  87983944.153 9
  21356269.230    21356271.905   -65596051.165 9  55481922.539 9
  24967714.351    24967723.265    14128980.789 8   2095546.279 9
 89 11 16 15 29 59.0800000  0  4G13G12G 3G 9
  21633163.780    21633167.385   -18954071.627 9  -7559216.174 8
  21560186.235    21560191.112   -61428902.404 9  88044423.044 8
  21352071.159    21352073.913   -65618116.704 9  55464728.566 8
  24991519.655    24991529.462    14254077.551 8   2193023.713 8
 89 11 16 15 30 29.0800000  0  4G13G12G 3G 9
  21642082.841    21642087.292   -18907199.888 9  -7522692.832 8
  21575042.151    21575046.963   -61350833.056 9  88105256.174 9
  21347907.993    21347909.148   -65639994.014 9  55447681.269 8
  25015322.936    25015332.358    14379160.296 7   2290490.233 8
 89 11 16 15 30 59.0800000  0  4G13G12G 3G 9
  21651018.789    21651023.223   -18860242.023 9  -7486102.392 8
  21589984.387    21589989.485   -61272311.680 9  88166441.535 9
  21343780.033    21343783.383   -65661683.373 9  55430780.430 8
  25039122.499    25039132.675    14504225.949 6   2387943.390 7
 89 11 16 15 31 29.0800000  0  4G13G12G 3G 9
  21659971.192    21659974.455   -18813198.895 9  -7449445.500 8
  21605013.007    21605016.704   -61193340.974 9  88227977.019 8
  21339688.434    21339690.704   -65683185.621 9  55414025.369 9
  25062919.032    25062927.582    14629271.720 7   2485381.053 8
 89 11 16 15 31 59.0800000  0  4G13G12G 3G 9
  21668939.163    21668942.738   -18766072.619 9  -7412723.832 7
  21620124.501    21620128.876   -61113925.259 9  88289859.258 9
  21335631.933    21335635.273   -65704502.494 9  55397414.767 8
  25086710.030    25086718.806    14754293.272 7   2582799.884 8
 89 11 16 15 32 29.0800000  0  4G13G12G 3G 9
  21677922.846    21677927.395   -18718863.266 9  -7375937.442 8
  21635322.042    21635326.397   -61034066.324 9  88352086.869 9
  21331611.463    21331613.503   -65725633.552 9  55380948.955 9
  25110495.494    25110505.565    14879288.638 8   2680198.287 7
 89 11 16 15 32 59.0800000  0  4G13G12G 3G 9
  21686922.441    21686926.101   -18671570.666 9  -7339086.195 8
  21650602.447    21650606.772   -60953766.271 9  88414658.213 9
  21327625.131    21327628.299   -65746579.282 9  55364627.561 8
  25134276.624    25134286.453    15004255.193 8   2777574.246 8
 89 11 16 15 33 29.0800000  0  4G13G12G 3G 9
  21695937.401    21695941.394   -18624196.936 9  -7302171.742 7
  21665967.391    21665971.151   -60873029.107 9  88477570.147 9
  21323674.462    21323676.473   -65767341.136 9  55348449.458 8
  25158051.394    25158061.060    15129188.986 9   2874924.672 8
 89 11 16 15 33 59.0800000  0  4G13G12G 3G 9
  21704967.648    21704971.925   -18576741.333 9  -7265193.502 8
  21681413.119    21681417.158   -60791857.435 9  88540820.670 9
  21319758.383    21319761.202   -65787919.226 9  55332414.532 9
  25181818.565    25181829.740    15254087.671 9   2972247.752 8
 89 11 16 15 34 29.0800000  0  4G13G12G 3G 9
  21714013.719    21714017.852   -18529204.497 9  -7228151.944 8
  21696942.059    21696946.278   -60710253.907 9  88604407.703 9
  21315878.119    21315880.960   -65808313.860 9  55316522.562 8
  25205580.070    25205590.581    15378948.525 9   3069541.357 8
 89 11 16 15 34 59.0800000  0  4G13G12G 3G 9
  21723074.384    21723079.006   -18481588.033 9  -7191048.318 8
  21712552.129    21712556.210   -60628221.917 9  88668328.602 9
  21312031.146    21312033.793   -65828526.259 9  55300772.616 8
  25229331.948    25229342.880    15503768.176 9   3166802.856 9
 89 11 16 15 35 29.0800000  0  4G13G12G 3G 9
  21732150.447    21732155.840   -18433891.867 9  -7153882.577 8
  21728243.108    21728247.698   -60545763.381 9  88732581.877 8
  21308219.030    21308223.590   -65848556.059 9  55285164.926 8
  25253077.080    25253088.330    15628544.515 9   3264030.623 8
 89 11 16 15 35 59.0800000  0  4G13G12G 3G 9
  21741243.079    21741247.416   -18386117.461 9  -7116655.894 8
  21744015.458    21744019.496   -60462882.735 8  88797164.048 9
  21304442.786    21304445.058   -65868404.957 9  55269698.207 8
  25276812.201    25276823.388    15753273.253 8   3361221.294 9
 89 11 16 15 36 29.0800000  0  4G13G12G 3G 9
  21750348.821    21750354.269   -18338264.866 9  -7079368.273 8
  21759866.370    21759871.217   -60379582.957 9  88862072.815 9
  21300700.175    21300702.070   -65888073.317 9  55254372.154 9
  25300538.413    25300549.350    15877951.974 8   3458372.982 8
 89 11 16 15 36 59.0800000  0  4G13G12G 3G 9
  21759469.813    21759473.876   -18290334.881 9  -7042020.370 9
  21775796.921    21775803.407   -60295866.747 9  88927306.077 8
  21296991.695    21296995.573   -65907561.701 9  55239186.347 9
  25324254.061    25324265.571    16002577.519 9   3555483.253 8
 89 11 16 15 37 29.0800000  0  3G13G12G 3
  21768605.604    21768609.952   -18242327.861 8  -7004612.430 8
  21791806.518    21791811.261   -60211736.372 1  88992862.028 1
  21293317.070    21293320.103   -65926870.085 9  55224140.784 9
 89 11 16 15 37 59.0800000  0  3G13G12G 3
  21777755.414    21777759.021   -18194245.170 9  -6967145.540 7
  21807895.044    21807899.987   -60127195.573 9  89058737.844 8
  21289677.303    21289680.284   -65945999.829 9  55209234.451 8
 89 11 16 15 38 29.0800000  0  3G13G12G 3
  21786919.851    21786925.129   -18146086.894 9  -6929619.739 7
  21824059.758    21824064.630   -60042247.377 9  89124931.087 8
  21286070.642    21286074.045   -65964951.149 9  55194467.146 9
 89 11 16 15 38 59.0800000  0  3G13G12G 3
  21796099.027    21796103.262   -18097852.574 9  -6892034.698 7
  21840302.692    21840307.679   -59956893.321 9  89191440.583 9
  21282497.976    21282501.755   -65983723.685 9  55179839.142 8
 89 11 16 15 39 29.0800000  0  3G13G12G 3
  21805290.680    21805295.598   -18049545.108 9  -6854392.650 8
  21856620.929    21856625.702   -59871138.578 9  89258262.306 9
  21278959.244    21278963.237   -66002319.819 9  55165348.606 8
 89 11 16 15 39 59.0800000  0  3G13G12G 3
  21814497.756    21814502.292   -18001164.353 8  -6816693.500 8
  21873015.464    21873021.180   -59784985.561 9  89325394.370 9
  21275454.665    21275457.144   -66020739.649 9  55150995.447 8
 89 11 16 15 40 29.0800000  0  3G13G12G 3
  21823718.255    21823723.093   -17952709.785 9  -6778936.838 7
  21889485.205    21889489.579   -59698436.794 9  89392834.810 9
  21271982.830    21271986.299   -66038982.649 9  55136780.079 9
 89 11 16 15 40 59.0800000  0  3G13G12G 3
  21832952.206    21832959.504   -17904181.811 9  -6741122.979 8
  21906029.894    21906034.488   -59611495.182 9  89460581.348 9
  21268544.466    21268548.499   -66057049.711 9  55122701.792 8
 89 11 16 15 41 29.0800000  0  3G13G12G 3
  21842201.696    21842207.089   -17855581.660 9  -6703252.866 7
  21922648.346    21922653.361   -59524164.263 9  89528631.272 9
  21265141.066    21265143.723   -66074941.927 9  55108759.767 9
 89 11 16 15 41 59.0800000  0  3G13G12G 3
  21851462.605    21851467.484   -17806910.293 8  -6665327.235 8
  21939340.961    21939345.441   -59436447.577 9  89596981.794 9
  21261768.508    21261771.762   -66092659.846 9  55094953.556 9
 89 11 16 15 42 29.0800000  0  3G13G12G 3
  21860738.282    21860744.192   -17758168.754 8  -6627346.932 8
  21956105.924    21956110.173   -59348348.680 9  89665630.134 9
  21258430.501    21258433.082   -66110204.412 9  55081282.455 8
 89 11 16 15 42 59.0800000  0  3G13G12G 3
  21870027.924    21870031.543   -17709356.425 9  -6589311.508 8
  21972942.412    21972947.277   -59259869.924 9  89734574.437 9
  21255124.971    21255127.699   -66127575.415 9  55067746.520 8
 89 11 16 15 43 29.0800000  0  3G13G12G 3
  21879329.956    21879334.179   -17660472.778 9  -6551220.506 8
  21989851.031    21989856.611   -59171013.151 9  89803813.300 9
  21251852.786    21251855.486   -66144772.464 9  55054346.145 9
 89 11 16 15 43 59.0800000  0  3G13G12G 3
  21888644.811    21888648.862   -17611519.895 8  -6513075.510 8
  22006832.013    22006837.308   -59081782.735 9  89873343.342 9
  21248612.539    21248615.409   -66161797.430 9  55041079.886 9
 89 11 16 15 44 29.0800000  0  3G13G12G 3
  21897973.832    21897978.956   -17562498.750 9  -6474877.358 8
  22023881.658    22023887.574   -58992182.801 9  89943161.288 9
  21245405.432    21245408.149   -66178651.169 9  55027947.043 9
 89 11 16 15 44 59.0800000  0  3G13G12G 3
  21907315.073    21907319.909   -17513408.935 9  -6436625.691 7
  22041002.389    22041007.228   -58902215.719 9  90013265.342 9
  21242230.955    21242233.636   -66195333.799 9  55014947.516 8
 89 11 16 15 45 29.0800000  0  3G13G12G 3
  21916670.365    21916674.730   -17464250.587 9  -6398320.650 8
  22058192.415    22058197.236   -58811884.066 9  90083653.453 9
  21239088.640    21239092.012   -66211845.106 9  55002081.471 8
 89 11 16 15 45 59.0800000  0  3G13G12G 3
  21926037.305    21926041.913   -17415024.041 9  -6359962.438 9
  22075450.780    22075456.610   -58721190.742 9  90154323.398 9
  21235979.518    21235981.740   -66228185.265 9  54989348.801 9
 89 11 16 15 46 29.0800000  0  3G13G12G 3
  21935418.296    21935423.032   -17365730.671 8  -6321552.155 8
  22092776.951    22092783.045   -58630140.780 9  90225271.250 8
  21232903.075    21232905.083   -66244356.548 9  54976747.735 8
 89 11 16 15 46 59.0800000  0  3G13G12G 3
  21944810.766    21944816.258   -17316370.666 9  -6283089.964 8
  22110170.909    22110176.818   -58538736.261 9  90296495.358 9
  21229857.768    21229860.413   -66260358.448 9  54964278.650 8
 89 11 16 15 47 29.0800000  0  3G13G12G 3
  21954216.796    21954222.606   -17266944.616 9  -6244576.310 8
  22127631.327    22127635.886   -58446980.537 9  90367993.150 9
  21226844.616    21226847.014   -66276191.311 9  54951941.290 8
 89 11 16 15 47 59.0800000  0  3G13G12G 3
  21963635.508    21963640.715   -17217451.659 9  -6206010.505 8
  22145157.892    22145163.743   -58354875.800 9  90439762.899 9
  21223863.701    21223866.971   -66291855.334 9  54939735.469 9
 89 11 16 15 48 29.0800000  0  3G13G12G 3
  21973065.552    21973070.033   -17167893.209 9  -6167393.671 7
  22162751.061    22162756.716   -58262426.387 9  90511801.203 9
  21220914.810    21220918.202   -66307351.450 9  54927660.514 8
 89 11 16 15 48 59.0800000  0  3G13G12G 3
  21982508.359    21982514.155   -17118270.554 9  -6128726.808 8
  22180408.597    22180414.213   -58169636.250 9  90584105.032 8
  21217998.290    21218001.937   -66322680.978 9  54915715.350 9
 89 11 16 15 49 29.0800000  0  3G13G12G 3
  21991964.416    21991969.399   -17068581.870 8  -6090008.504 9
  22198130.745    22198137.492   -58076506.788 9  90656673.244 9
  21215113.287    21215115.973   -66337842.389 9  54903901.205 8
 89 11 16 15 49 59.0800000  0  3G13G12G 3
  22001431.807    22001436.873   -17018828.662 9  -6051239.905 8
  22215916.255    22215923.201   -57983041.651 9  90729503.029 9
  21212259.716    21212262.481   -66352837.106 9  54892216.935 9
 89 11 16 15 50 29.0800000  0  3G13G12G 3
  22010912.448    22010917.284   -16969012.249 9  -6012422.075 8
  22233765.910    22233772.543   -57889245.317 9  90802590.897 9
  21209438.548    21209440.606   -66367666.394 9  54880661.587 9
 89 11 16 15 50 59.0800000  0  3G13G12G 3
  22020403.478    22020409.773   -16919132.784 9  -5973555.125 8
  22251677.514    22251682.600   -57795120.307 9  90875934.867 9
  21206647.696    21206650.874   -66382330.039 9  54869235.328 8
 89 11 16 15 51 29.0800000  0  3G13G12G 3
  22029907.443    22029913.081   -16869190.175 9  -5934638.958 8
  22269650.794    22269656.905   -57700670.068 9  90949532.270 9
  21203889.059    21203891.309   -66396828.690 9  54857937.611 8
 89 11 16 15 51 59.0800000  0  3G13G12G 3
  22039423.256    22039429.751   -16819184.082 9  -5895673.332 8
  22287686.314    22287691.307   -57605897.401 9  91023380.910 9
  21201161.143    21201163.280   -66411162.282 9  54846768.516 8
 89 11 16 15 52 29.0800000  0  3G13G12G 3
  22048951.404    22048957.655   -16769115.314 9  -5856658.868 8
  22305781.167    22305786.812   -57510806.832 9  91097477.266 9
  21198464.285    21198467.891   -66425331.789 9  54835727.288 8
 89 11 16 15 52 59.0800000  0  3G13G12G 3
  22058491.943    22058496.691   -16718984.290 9  -5817595.897 7
  22323936.318    22323942.191   -57415400.640 9  91171819.543 9
  21195799.534    21195802.489   -66439337.313 9  54824813.827 9
 89 11 16 15 53 29.0800000  0  3G13G12G 3
  22068043.241    22068047.189   -16668790.789 9  -5778484.258 8
  22342151.181    22342157.949   -57319682.122 9  91246405.195 9
  21193165.547    21193168.523   -66453178.960 9  54814028.064 9
 89 11 16 15 53 59.0800000  0  3G13G12G 3
  22077606.877    22077612.458   -16618535.852 9  -5739324.733 8
  22360425.055    22360431.473   -57223655.103 9  91321231.248 9
  21190562.075    21190564.825   -66466857.858 9  54803369.125 8
 89 11 16 15 54 29.0800000  0  3G13G12G 3
  22087181.643    22087186.380   -16568219.280 9  -5700117.187 7
  22378756.827    22378762.706   -57127321.782 9  91396295.964 9
  21187991.159    21187992.893   -66480373.632 9  54792837.278 8
 89 11 16 15 54 59.0800000  0  3G13G12G 3
  22096767.515    22096773.495   -16517842.416 8  -5660862.647 8
  22397145.389    22397151.821   -57030686.221 9  91471596.187 9
  21185449.549    21185452.291   -66493727.328 9  54782431.746 9
 89 11 16 15 55 29.0800000  0  3G13G12G 3
  22106366.751    22106371.771   -16467404.425 9  -5621560.449 8
  22415591.788    22415598.015   -56933751.835 9  91547129.300 9
  21182939.074    21182942.169   -66506919.005 9  54772152.493 9
 89 11 16 15 55 59.0800000  0  3G13G12G 3
  22115975.114    22115982.266   -16416906.443 9  -5582211.519 8
  22434094.068    22434100.385   -56836522.584 9  91622892.131 9
  21180460.870    21180461.889   -66519949.793 9  54761998.585 8
 89 11 16 15 56 29.0800000  0  3G13G12G 3
  22125597.331    22125602.653   -16366347.495 9  -5542815.111 8
  22452651.944    22452658.863   -56739000.788 9  91698882.929 9
  21178010.924    21178013.594   -66532819.064 9  54751970.519 9
 89 11 16 15 56 59.0800000  0  3G13G12G 3
  22135229.591    22135233.897   -16315728.021 9  -5503371.521 7
  22471265.155    22471271.664   -56641189.671 9  91775099.158 9
  21175592.846    21175595.658   -66545527.279 9  54742067.944 9
 89 11 16 15 57 29.0800000  0  3G13G12G 3
  22144873.758    22144879.123   -16265048.499 8  -5463881.131 8
  22489932.625    22489939.228   -56543091.935 9  91851538.730 9
  21173205.439    21173207.945   -66558074.767 9  54732290.615 8
 89 11 16 15 57 59.0800000  0  3G13G12G 3
  22154528.712    22154535.812   -16214309.376 9  -5424344.321 8
  22508653.683    22508659.543   -56444711.329 9  91928198.709 9
  21170847.513    21170851.117   -66570461.695 9  54722638.372 9
 89 11 16 15 58 29.0800000  0  3G13G12G 3
  22164195.858    22164200.495   -16163510.830 9  -5384761.193 9
  22527427.157    22527435.419   -56346052.265 9  92005075.669 9
  21168520.757    21168524.383   -66582689.374 9  54713110.233 8
 89 11 16 15 58 59.0800000  0  3G13G12G 3
  22173873.512    22173878.861   -16112654.415 8  -5345132.963 8
  22546254.641    22546260.729   -56247118.701 9  92082166.538 9
  21166224.271    21166226.956   -66594758.703 9  54703705.489 9
 89 11 16 15 59 29.0800000  0  3G13G12G 3
  22183562.349    22183568.258   -16061738.450 9  -5305458.320 7
  22565133.901    22565139.703   -56147912.713 9  92159469.704 8
  21163957.993    21163961.301   -66606668.614 9  54694424.965 9
 89 11 16 15 59 59.0800000  0  3G13G12G 3
  22193262.322    22193269.833   -16010762.917 9  -5265737.263 7
  22584063.258    22584069.941   -56048437.293 9  92236982.798 9
  21161721.430    21161725.719   -66618419.045 9  54685268.709 8
 89 11 16 16  0 29.0800000  0  3G13G12G 3
  22202974.457    22202980.352   -15959729.320 9  -5225970.964 8
  22603043.536    22603049.946   -55948696.743 9  92314702.491 9
  21159515.950    21159520.321   -66630011.660 9  54676235.418 8
 89 11 16 16  0 59.0800000  0  3G13G12G 3
  22212697.152    22212702.818   -15908637.094 9  -5186158.965 9
  22622073.201    22622079.440   -55848693.562 9  92392626.836 9
  21157340.258    21157344.173   -66641445.562 9  54667325.805 9
 89 11 16 16  1 29.0800000  0  3G13G12G 3
  22222430.407    22222436.688   -15857487.688 9  -5146302.424 8
  22641153.227    22641159.337   -55748432.283 9  92470752.283 9
  21155194.464    21155198.669   -66652722.667 9  54658538.372 9
 89 11 16 16  1 59.0800000  0  3G13G12G 3
  22232175.339    22232181.234   -15806280.619 9  -5106400.962 8
  22660279.773    22660287.700   -55647915.946 9  92549076.468 9
  21153077.477    21153081.736   -66663842.481 9  54649873.506 8
 89 11 16 16  2 29.0800000  0  3G13G12G 3
  22241930.288    22241936.727   -15755014.354 9  -5066453.351 7
  22679456.292    22679462.688   -55547146.508 9  92627597.890 9
  21150992.116    21150995.965   -66674803.961 9  54641332.011 9
 89 11 16 16  2 59.0800000  0  3G13G12G 3
  22251697.455    22251703.108   -15703691.318 9  -5026461.504 8
  22698678.968    22698686.779   -55446129.269 9  92706312.393 9
  21148936.560    21148939.354   -66685609.528 9  54632912.015 9
 89 11 16 16  3 29.0800000  0  3G13G12G 3
  22261474.955    22261480.751   -15652310.786 9  -4986424.888 8
  22717949.433    22717956.661   -55344866.608 9  92785218.141 9
  21146910.285    21146914.242   -66696258.516 9  54624614.007 9
 89 11 16 16  3 59.0800000  0  3G13G12G 3
  22271263.129    22271270.269   -15600872.738 9  -4946343.455 8
  22737264.805    22737272.338   -55243361.819 9  92864312.557 9
  21144912.509    21144917.337   -66706751.067 9  54616437.903 9
 89 11 16 16  4 29.0800000  0  3G13G12G 3
  22281062.494    22281069.820   -15549377.091 9  -4906217.134 8
  22756626.227    22756634.003   -55141618.394 9  92943592.923 9
  21142946.398    21142950.684   -66717087.328 9  54608383.582 9
 89 11 16 16  4 59.0800000  0  3G13G12G 3
  22290872.732    22290878.896   -15497823.956 9  -4866046.041 8
  22776032.389    22776039.771   -55039639.647 9  93023056.652 9
  21141009.044    21141013.845   -66727267.544 9  54600450.866 8
 89 11 16 16  5 29.0800000  0  3G13G12G 3
  22300694.160    22300700.999   -15446214.020 9  -4825830.668 8
  22795482.415    22795490.199   -54937429.439 9  93102700.752 9
  21139101.395    21139105.741   -66737292.850 9  54592638.858 8
 89 11 16 16  5 59.0800000  0  3G13G12G 3
  22310526.436    22310532.146   -15394546.830 9  -4785570.681 8
  22814976.298    22814983.754   -54834991.095 9  93182522.612 9
  21137222.684    21137227.459   -66747162.846 9  54584947.864 9
 89 11 16 16  6 29.0800000  0  3G13G12G 3
  22320369.928    22320376.624   -15342823.103 8  -4745266.654 8
  22834512.488    22834519.870   -54732328.477 9  93262519.204 9
  21135374.072    21135379.190   -66756878.694 9  54577377.002 9
 89 11 16 16  6 59.0800000  0  3G13G12G 3
  22330222.007    22330230.251   -15291042.963 8  -4704918.667 7
  22854089.802    22854098.637   -54629444.009 9  93342688.680 9
  21133555.705    21133558.793   -66766439.489 9  54569926.968 9
 89 11 16 16  7 29.0800000  0  3G13G12G 3
  22340086.651    22340094.121   -15239204.974 9  -4664525.580 7
  22873710.816    22873718.764   -54526340.204 9  93423029.053 9
  21131766.390    21131768.967   -66775844.540 9  54562598.304 9
 89 11 16 16  7 59.0800000  0  3G13G12G 3
  22349963.055    22349969.195   -15187310.345 9  -4624088.379 8
  22893371.631    22893380.135   -54423021.720 9  93503536.698 9
  21130004.875    21130009.572   -66785095.234 9  54555389.907 9
 89 11 16 16  8 29.0800000  0  3G13G12G 3
  22359848.876    22359854.741   -15135358.918 9  -4583606.927 8
  22913072.970    22913081.046   -54319491.867 9  93584209.047 9
  21128274.796    21128278.058   -66794191.765 9  54548301.649 9
 89 11 16 16  8 59.0800000  0  3G13G12G 3
  22369745.369    22369753.098   -15083351.093 8  -4543081.514 8
  22932814.159    22932822.228   -54215754.273 9  93665043.273 9
  21126573.163    21126577.046   -66803134.680 9  54541333.097 9
 89 11 16 16  9 29.0800000  0  3G13G12G 3
  22379652.539    22379659.993   -15031288.295 9  -4502513.287 8
  22952593.204    22952601.725   -54111813.082 9  93746036.161 9
  21124900.141    21124903.895   -66811924.839 9  54534483.560 8
 89 11 16 16  9 59.0800000  0  3G13G12G 3
  22389569.725    22389577.495   -14979168.528 8  -4461900.655 8
  22972410.990    22972419.268   -54007670.288 9  93827186.126 9
  21123256.436    21123260.877   -66820560.920 9  54527754.084 9
 89 11 16 16 10 29.0800000  0  3G13G12G 3
  22399499.388    22399506.971   -14926991.835 9  -4421243.680 8
  22992267.126    22992275.124   -53903329.654 9  93908490.247 9
  21121643.185    21121646.751   -66829043.795 9  54521143.991 9
 89 11 16 16 10 59.0800000  0  3G13G12G 3
  22409440.586    22409446.566   -14874758.060 9  -4380542.207 7
  23012159.336    23012168.208   -53798794.211 9  93989946.159 8
  21120057.817    21120061.084   -66837372.831 9  54514653.749 8
 89 11 16 16 11 29.0800000  0  3G13G12G 3
  22419390.625    22419397.823   -14822468.183 9  -4339797.036 8
  23032088.219    23032097.261   -53694068.080 9  94071550.678 9
  21118502.334    21118505.688   -66845549.087 9  54508282.560 9
 89 11 16 16 11 59.0800000  0  3G13G12G 3
  22429351.369    22429360.226   -14770121.750 9  -4299007.781 9
  23052054.070    23052061.747   -53589154.340 8  94153301.379 9
  21116974.505    21116978.315   -66853572.611 9  54502030.374 9
 89 11 16 16 12 29.0800000  0  3G13G12G 3
  22439325.446    22439331.069   -14717717.992 9  -4258173.873 8
  23072053.997    23072061.833   -53484055.379 9  94235196.388 9
  21115477.494    21115481.222   -66861442.594 9  54495897.824 9
 89 11 16 16 12 59.0800000  0  3G13G12G 3
  22449307.281    22449313.620   -14665258.072 9  -4217296.201 8
  23092088.355    23092096.202   -53378775.922 9  94317232.050 9
  21114008.945    21114012.659   -66869160.328 9  54489883.921 9
 89 11 16 16 13 29.0800000  0  3G13G12G 3
  22459300.736    22459308.747   -14612741.663 9  -4176374.496 8
  23112155.278    23112163.529   -53273319.819 9  94399405.371 9
  21112569.200    21112573.084   -66876726.059 9  54483988.446 8
 89 11 16 16 13 59.0800000  0  3G13G12G 3
  22469305.807    22469312.461   -14560168.539 9  -4135408.606 9
  23132256.459    23132264.904   -53167689.706 9  94481714.270 9
  21111158.649    21111162.369   -66884139.426 9  54478211.708 8
 89 11 16 16 14 29.0800000  0  3G13G12G 3
  22479319.496    22479327.880   -14507539.441 9  -4094399.081 8
  23152388.949    23152398.584   -53061889.427 9  94564155.754 9
  21109777.382    21109780.187   -66891401.034 9  54472553.215 8
 89 11 16 16 14 59.0800000  0  3G13G12G 3
  22489346.089    22489353.515   -14454853.562 9  -4053345.332 9
  23172554.062    23172562.785   -52955921.968 9  94646727.520 9
  21108424.984    21108427.970   -66898510.390 9  54467013.371 8
 89 11 16 16 15 29.0800000  0  3G13G12G 3
  22499382.957    22499389.451   -14402110.671 9  -4012247.135 8
  23192751.137    23192759.780   -52849790.667 9  94729426.942 9
  21107100.321    21107104.014   -66905467.610 9  54461592.079 7
 89 11 16 16 15 59.0800000  0  3G13G12G 3
  22509429.639    22509438.600   -14349311.319 8  -3971104.963 7
  23212977.579    23212986.911   -52743499.382 9  94812251.016 9
  21105804.718    21105810.057   -66912273.216 9  54456288.919 8
 89 11 16 16 16 29.0800000  0  3G13G12G 3
  22519488.773    22519496.614   -14296455.083 9  -3929918.475 8
  23233233.957    23233243.303   -52637051.195 9  94895197.342 8
  21104538.637    21104542.728   -66918926.994 9  54451104.070 8
 89 11 16 16 16 59.0800000  0  3G13G12G 3
  22529559.010    22529565.606   -14243541.721 9  -3888687.461 8
  23253519.927    23253529.657   -52530448.899 9  94978263.762 9
  21103302.331    21103306.055   -66925428.525 9  54446037.863 8
 89 11 16 16 17 29.0800000  0  3G13G12G 3
  22539637.633    22539644.686   -14190570.969 8  -3847411.727 7
  23273834.330    23273843.895   -52423695.709 9  95061447.750 9
  21102093.633    21102097.492   -66931777.958 9  54441090.172 9
 89 11 16 16 17 59.0800000  0  3G13G12G 3
  22549729.019    22549736.215   -14137543.494 8  -3806091.798 7
  23294177.850    23294187.052   -52316795.522 9  95144746.286 9
  21100915.063    21100918.930   -66937975.961 9  54436260.477 9
 89 11 16 16 18 29.0800000  0  3G13G12G 3
  22559830.993    22559838.292   -14084458.998 8  -3764727.434 8
  23314546.834    23314556.865   -52209752.765 9  95228155.919 9
  21099762.883    21099768.473   -66944023.184 9  54431548.266 9
 89 11 16 16 18 59.0800000  0  3G13G12G 3
  22569942.783    22569951.812   -14031317.467 9  -3723318.632 8
  23334943.523    23334952.866   -52102570.654 9  95311674.130 9
  21098641.295    21098645.488   -66949919.109 9  54426953.956 8
 89 11 16 16 19 29.0800000  0  3G13G12G 3
  22580067.365    22580074.951   -13978118.117 9  -3681864.781 8
  23355366.251    23355375.339   -51995251.296 9  95395299.283 9
  21097548.487    21097553.353   -66955662.803 9  54422478.257 8
 89 11 16 16 19 59.0800000  0  3G13G12G 3
  22590202.539    22590210.608   -13924860.580 9  -3640365.616 8
  23375813.650    23375823.631   -51887797.724 9  95479029.009 9
  21096484.459    21096489.496   -66961254.447 8  54418121.044 9
 89 11 16 16 20 29.0800000  0  3G13G12G 3
  22600348.244    22600354.795   -13871546.229 9  -3598822.145 8
  23396286.382    23396296.257   -51780215.858 9  95562858.749 8
  21095448.964    21095454.036   -66966696.098 9  54413880.724 8
 89 11 16 16 20 59.0800000  0  3G13G12G 3
  22610503.418    22610511.859   -13818174.575 9  -3557234.047 8
  23416783.328    23416793.087   -51672507.751 9  95646786.771 8
  21094442.804    21094446.374   -66971986.807 9  54409758.029 9
 89 11 16 16 21 29.0800000  0  3G13G12G 3
  22620672.504    22620678.756   -13764744.276 9  -3515600.249 8
  23437303.203    23437312.969   -51564675.953 9  95730811.244 8
  21093465.052    21093469.790   -66977124.995 9  54405754.152 8
 89 11 16 16 21 59.0800000  0  3G13G12G 3
  22630849.716    22630857.629   -13711255.648 8  -3473921.014 8
  23457846.286    23457856.639   -51456724.009 9  95814929.319 9
  21092516.027    21092521.195   -66982111.915 9  54401868.161 9
 89 11 16 16 22 29.0800000  0  3G13G12G 3
  22641038.978    22641048.763   -13657709.897 9  -3432197.254 8
  23478411.165    23478421.067   -51348656.502 9  95899137.426 8
  21091595.781    21091599.631   -66986948.246 9  54398099.520 8
 89 11 16 16 22 59.0800000  0  3G13G12G 3
  22651240.455    22651249.142   -13604106.347 8  -3390428.451 8
  23498996.855    23499007.157   -51240476.622 9  95983433.127 8
  21090704.172    21090708.282   -66991633.838 9  54394448.340 9
 89 11 16 16 23 29.0800000  0  3G13G12G 3
  22661452.420    22661459.865   -13550443.695 9  -3348613.617 8
  23519604.223    23519614.382   -51132186.815 9  96067814.443 9
  21089841.864    21089846.033   -66996167.141 9  54390915.820 9
 89 11 16 16 23 59.0800000  0  3G13G12G 3
  22671675.056    22671684.385   -13496721.247 9  -3306752.192 8
  23540231.502    23540241.411   -51023790.028 9  96152279.112 9
  21089008.259    21089012.733   -67000547.884 9  54387502.152 8
 89 11 16 16 24 29.0800000  0  3G13G12G 3
  22681908.873    22681917.289   -13442939.464 9  -3264844.517 8
  23560878.735    23560889.833   -50915290.202 9  96236824.062 9
  21088203.208    21088207.993   -67004776.855 9  54384206.749 9
 89 11 16 16 24 59.0800000  0  3G13G12G 3
  22692155.148    22692164.148   -13389099.687 9  -3222891.652 8
  23581544.208    23581554.767   -50806692.009 8  96321445.668 9
  21087427.184    21087431.188   -67008855.940 9  54381028.150 9
 89 11 16 16 25 29.0800000  0  3G13G12G 3
  22702412.238    22702419.402   -13335201.451 9  -3180893.239 8
  23602228.582    23602238.890   -50697998.542 8  96406141.504 9
  21086679.659    21086684.303   -67012784.144 9  54377967.133 7
 89 11 16 16 25 59.0800000  0  3G13G12G 3
  22712680.915    22712687.381   -13281241.724 9  -3138846.942 9
  23622930.189    23622940.791   -50589210.645 9  96490910.898 8
  21085961.064    21085966.213   -67016558.982 9  54375025.602 7
 89 11 16 16 26 29.0800000  0  3G13G12G 3
  22722960.323    22722968.644   -13227222.184 9  -3096754.021 8
  23643648.827    23643659.436   -50480332.958 8  96575750.288 8
  21085272.101    21085277.568   -67020181.750 9  54372202.588 8
 89 11 16 16 26 59.0800000  0  3G13G12G 3
  22733250.839    22733260.233   -13173144.480 9  -3054615.796 9
  23664383.720    23664395.802   -50371370.657 8  96660655.567 9
  21084612.022    21084615.950   -67023654.200 9  54369496.690 8
 89 11 16 16 27 29.0800000  0  3G13G12G 3
  22743553.223    22743561.370   -13119006.738 9  -3012430.779 9
  23685134.808    23685146.185   -50262326.008 9  96745625.017 9
  21083979.278    21083984.603   -67026974.933 8  54366909.012 9
 89 11 16 16 27 59.0800000  0  3G13G12G 3
  22753867.533    22753876.026   -13064807.664 9  -2970197.984 8
  23705901.874    23705912.585   -50153200.561 9  96830657.418 9
  21083377.229    21083382.045   -67030142.582 9  54364440.597 8
 89 11 16 16 28 29.0800000  0  3G13G12G 3
  22764192.149    22764201.314   -13010547.514 9  -2927917.593 8
  23726682.334    23726692.487   -50043999.002 9  96915749.129 9
  21082802.891    21082807.711   -67033157.991 9  54362090.823 8
 89 11 16 16 28 59.0800000  0  3G13G12G 3
  22774529.810    22774539.003   -12956226.481 9  -2885589.747 9
  23747476.847    23747488.027   -49934724.756 9  97000897.475 9
  21082258.868    21082262.764   -67036021.334 9  54359859.542 8
 89 11 16 16 29 29.0800000  0  3G13G12G 3
  22784878.682    22784887.158   -12901845.931 8  -2843215.526 8
  23768283.914    23768295.366   -49825382.338 9  97086098.946 9
  21081742.106    21081747.097   -67038733.600 9  54357746.009 8
 89 11 16 16 29 59.0800000  0  3G13G12G 3
  22795239.389    22795247.449   -12847403.302 8  -2800792.935 8
  23789104.439    23789115.893   -49715972.962 9  97171352.587 9
  21081255.561    21081259.892   -67041292.654 9  54355751.855 9
 89 11 16 16 30 29.0800000  0  3G13G12G 3
  22805609.995    22805619.112   -12792899.360 9  -2758322.570 9
  23809935.818    23809948.217   -49606501.078 9  97256654.928 9
  21080798.117    21080802.605   -67043699.011 9  54353876.673 9
 89 11 16 16 30 59.0800000  0  3G13G12G 3
  22815994.160    22816003.683   -12738334.190 9  -2715804.501 9
  23830780.555    23830791.845   -49496970.443 9  97342003.050 9
  21080368.992    21080372.598   -67045953.269 9  54352120.008 9
 89 11 16 16 31 29.0800000  0  3G13G12G 3
  22826388.869    22826399.408   -12683706.887 8  -2673238.012 8
  23851633.840    23851645.689   -49387383.225 9  97427395.240 8
  21079968.458    21079973.537   -67048054.585 9  54350482.520 9
 89 11 16 16 31 59.0800000  0  3G13G12G 3
  22836796.775    22836806.014   -12629016.983 9  -2630622.737 8
  23872497.839    23872510.973   -49277743.001 9  97512828.742 9
  21079598.344    21079604.883   -67050002.498 9  54348964.585 9
 89 11 16 16 32 29.0800000  0  3G13G12G 3
  22847215.301    22847225.465   -12574263.800 8  -2587958.124 8
  23893372.016    23893383.312   -49168053.198 9  97598300.871 8
  21079256.829    21079261.798   -67051796.866 9  54347566.294 8
 89 11 16 16 32 59.0800000  0  3G13G12G 3
  22857647.179    22857657.471   -12519448.608 9  -2545245.197 8
  23914253.086    23914265.059   -49058318.460 8  97683807.981 8
  21078944.141    21078949.441   -67053438.994 9  54346286.644 8
 89 11 16 16 33 29.0800000  0  3G13G12G 3
  22868090.895    22868099.704   -12464569.680 9  -2502482.643 8
  23935145.150    23935156.359   -48948540.578 8  97769348.735 8
  21078661.833    21078665.999   -67054927.039 9  54345127.050 9
 89 11 16 16 33 59.0800000  0  3G13G12G 3
  22878545.235    22878556.111   -12409626.718 9  -2459670.173 8
  23956042.185    23956054.361   -48838722.568 8  97854920.738 9
  21078407.566    21078413.106   -67056261.033 9  54344087.502 8
 89 11 16 16 34 29.0800000  0  3G13G12G 3
  22889013.974    22889023.549   -12354620.228 9  -2416808.215 8
  23976946.742    23976959.712   -48728867.984 9  97940521.231 8
  21078182.504    21078188.145   -67057440.968 9  54343167.983 9
 89 11 16 16 34 59.0800000  0  3G13G12G 3
  22899493.502    22899503.166   -12299550.276 9  -2373896.782 8
  23997858.151    23997870.535   -48618980.705 8  98026147.215 9
  21077987.580    21077994.115   -67058467.280 9  54342368.195 9
 89 11 16 16 35 29.0800000  0  3G13G12G 3
  22909984.696    22909995.216   -12244416.418 8  -2330935.553 9
  24018775.815    24018788.907   -48509063.628 9  98111796.401 9
  21077821.234    21077826.765   -67059338.975 9  54341688.861 8
 89 11 16 16 35 59.0800000  0  3G13G12G 3
  22920488.559    22920499.263   -12189217.583 9  -2287923.698 8
  24039697.942    24039710.077   -48399119.733 9  98197466.508 8
  21077685.697    21077690.744   -67060055.978 9  54341130.091 9
 89 11 16 16 36 29.0800000  0  3G13G12G 3
  22931005.739    22931015.419   -12133954.171 8  -2244861.499 9
  24060623.233    24060636.177   -48289153.130 9  98283154.290 8
  21077578.006    21077583.818   -67060618.635 9  54340691.575 8
 89 11 16 16 36 59.0800000  0  3G13G12G 3
  22941534.436    22941543.938   -12078624.917 9  -2201747.990 7
  24081553.940    24081566.875   -48179166.021 9  98368858.077 9
  21077500.966    21077506.595   -67061025.814 9  54340374.202 8
 89 11 16 16 37 29.0800000  0  3G13G12G 3
  22952075.277    22952085.687   -12023229.669 9  -2158583.073 8
  24102487.558    24102500.001   -48069161.962 9  98454575.044 9
  21077453.586    21077459.328   -67061277.444 9  54340178.059 9
 89 11 16 16 37 59.0800000  0  3G13G12G 3
  22962630.707    22962640.319   -11967768.269 9  -2115366.596 8
  24123424.095    24123435.523   -47959144.356 9  98540302.577 9
  21077435.128    21077440.268   -67061373.494 9  54340103.118 8
 89 11 16 16 38 29.0800000  0  3G13G12G 3
  22973196.895    22973207.622   -11912241.503 9  -2072099.173 8
  24144360.698    24144374.985   -47849117.054 9  98626037.668 9
  21077446.502    21077452.613   -67061314.428 9  54340149.060 8
 89 11 16 16 38 59.0800000  0  3G13G12G 3
  22983776.431    22983786.348   -11856647.635 8  -2028779.480 8
  24165301.062    24165313.017   -47739082.343 9  98711778.539 9
  21077487.250    21077492.699   -67061098.899 9  54340316.898 8
 89 11 16 16 39 29.0800000  0  3G13G12G 3
  22994368.114    22994377.777   -11800985.501 9  -1985406.597 8
  24186240.676    24186254.520   -47629042.897 9  98797523.075 9
  21077558.302    21077564.307   -67060725.986 9  54340607.398 8
 89 11 16 16 39 59.0800000  0  3G13G12G 3
  23004972.946    23004982.770   -11745256.607 9  -1941981.679 7
  24207179.847    24207195.193   -47519003.715 9  98883267.403 9
  21077658.855    21077665.072   -67060197.222 9  54341019.342 8
 89 11 16 16 40 29.0800000  0  3G13G12G 3
  23015591.622    23015600.496   -11689459.978 9  -1898504.006 8
  24228120.083    24228134.727   -47408967.039 9  98969009.777 8
  21077790.242    21077795.452   -67059511.316 9  54341553.737 8
 89 11 16 16 40 59.0800000  0  3G13G12G 3
  23026221.899    23026231.315   -11633595.443 9  -1854973.401 8
  24249059.167    24249073.025   -47298936.497 8  99054747.364 8
  21077950.766    21077955.590   -67058668.576 9  54342210.325 8
 89 11 16 16 41 29.0800000  0  3G13G12G 3
  23036865.941    23036876.801   -11577663.306 9  -1811390.115 8
  24269995.111    24270009.257   -47188915.979 9  99140477.146 9
  21078140.727    21078146.064   -67057669.136 9  54342989.019 9
 89 11 16 16 41 59.0800000  0  3G13G12G 3
  23047522.871    23047533.072   -11521662.019 9  -1767752.946 8
  24290928.909    24290943.954   -47078906.884 7  99226198.007 8
  21078361.142    21078366.532   -67056511.009 9  54343891.376 9
 89 11 16 16 42 29.0800000  0  3G13G12G 3
  23058193.016    23058202.369   -11465590.836 9  -1724061.327 7
  24311860.946    24311875.367   -46968912.212 7  99311907.612 8
  21078611.978    21078616.888   -67055193.611 9  54344917.826 8
 89 11 16 16 42 59.0800000  0  3G13G12G 3
  23068875.724    23068886.979   -11409451.346 9  -1680316.473 8
  24332789.449    24332803.194   -46858937.142 7  99397601.932 8
  21078892.488    21078897.557   -67053718.670 9  54346067.054 8
 89 11 16 16 43 29.0800000  0  3G13G12G 3
  23079571.728    23079582.481   -11353242.583 9  -1636517.649 8
  24353713.344    24353726.802   -46748984.815 7  99483278.519 8
  21079203.382    21079208.016   -67052086.020 9  54347339.163 8
 89 11 16 16 43 59.0800000  0  3G13G12G 3
  23090282.009    23090292.535   -11296962.856 9  -1592663.548 9
  24374632.117    24374645.305   -46639056.991 7  99568936.011 8
  21079544.721    21079550.058   -67050293.520 9  54348735.837 8
 89 11 16 16 44 29.0800000  0  3G13G12G 3
  23101005.703    23101016.238   -11240611.893 9  -1548753.929 8
  24395546.261    24395560.114   -46529156.895 9  99654571.874 7
  21079917.198    21079921.772   -67048340.942 9  54350257.233 8
